<?xml version="1.0" encoding="utf-8"?><gpx version="1.0" creator="SportyPal" xmlns:xsi="http://www.w3.org/2001/XMLSchema-instance" xmlns="http://www.topografix.com/GPX/1/0" xsi:schemaLocation="http://www.topografix.com/GPX/1/0 http://www.topografix.com/GPX/1/0/gpx.xsd">
<trk>
<name>SportyPalTrack</name>
<desc>The track description</desc>
<trkseg>
<trkpt lat="51.2477894" lon="6.81057746">
<ele>114</ele>
<time>2011-09-30T13:57:40Z</time>
</trkpt>
<trkpt lat="51.2477941" lon="6.81057117">
<ele>113</ele>
<time>2011-09-30T13:57:44Z</time>
</trkpt>
<trkpt lat="51.24780537" lon="6.81056983">
<ele>111</ele>
<time>2011-09-30T13:57:46Z</time>
</trkpt>
<trkpt lat="51.24781145" lon="6.81056237">
<ele>109</ele>
<time>2011-09-30T13:57:51Z</time>
</trkpt>
<trkpt lat="51.24765601" lon="6.81052306">
<ele>109.5</ele>
<time>2011-09-30T13:57:55Z</time>
</trkpt>
<trkpt lat="51.24752542" lon="6.81057419">
<ele>106</ele>
<time>2011-09-30T13:57:58Z</time>
</trkpt>
<trkpt lat="51.24737354" lon="6.81063454">
<ele>104.5</ele>
<time>2011-09-30T13:58:02Z</time>
</trkpt>
<trkpt lat="51.24720795" lon="6.81067787">
<ele>103</ele>
<time>2011-09-30T13:58:06Z</time>
</trkpt>
<trkpt lat="51.24705708" lon="6.81058098">
<ele>103.5</ele>
<time>2011-09-30T13:58:10Z</time>
</trkpt>
<trkpt lat="51.24702409" lon="6.81030588">
<ele>97</ele>
<time>2011-09-30T13:58:14Z</time>
</trkpt>
<trkpt lat="51.24695214" lon="6.81002718">
<ele>97.5</ele>
<time>2011-09-30T13:58:18Z</time>
</trkpt>
<trkpt lat="51.24680507" lon="6.80978511">
<ele>101.5</ele>
<time>2011-09-30T13:58:22Z</time>
</trkpt>
<trkpt lat="51.2466687" lon="6.8095956">
<ele>102.5</ele>
<time>2011-09-30T13:58:26Z</time>
</trkpt>
<trkpt lat="51.24654368" lon="6.80939259">
<ele>103</ele>
<time>2011-09-30T13:58:30Z</time>
</trkpt>
<trkpt lat="51.24640643" lon="6.80919528">
<ele>102.5</ele>
<time>2011-09-30T13:58:34Z</time>
</trkpt>
<trkpt lat="51.24628519" lon="6.80918405">
<ele>101</ele>
<time>2011-09-30T13:58:38Z</time>
</trkpt>
<trkpt lat="51.24620334" lon="6.80935093">
<ele>99.5</ele>
<time>2011-09-30T13:58:42Z</time>
</trkpt>
<trkpt lat="51.24612195" lon="6.80951706">
<ele>97.5</ele>
<time>2011-09-30T13:58:46Z</time>
</trkpt>
<trkpt lat="51.24602828" lon="6.80969266">
<ele>96</ele>
<time>2011-09-30T13:58:50Z</time>
</trkpt>
<trkpt lat="51.24591601" lon="6.80987539">
<ele>94.5</ele>
<time>2011-09-30T13:58:54Z</time>
</trkpt>
<trkpt lat="51.24581291" lon="6.81007613">
<ele>92.5</ele>
<time>2011-09-30T13:58:58Z</time>
</trkpt>
<trkpt lat="51.24570642" lon="6.81027596">
<ele>92</ele>
<time>2011-09-30T13:59:02Z</time>
</trkpt>
<trkpt lat="51.24562624" lon="6.81044435">
<ele>92</ele>
<time>2011-09-30T13:59:05Z</time>
</trkpt>
<trkpt lat="51.2455418" lon="6.81061492">
<ele>91</ele>
<time>2011-09-30T13:59:08Z</time>
</trkpt>
<trkpt lat="51.24543887" lon="6.81081022">
<ele>88.5</ele>
<time>2011-09-30T13:59:12Z</time>
</trkpt>
<trkpt lat="51.24537806" lon="6.81093729">
<ele>87.5</ele>
<time>2011-09-30T13:59:16Z</time>
</trkpt>
<trkpt lat="51.24533342" lon="6.81093302">
<ele>87.5</ele>
<time>2011-09-30T13:59:20Z</time>
</trkpt>
<trkpt lat="51.24528187" lon="6.81087946">
<ele>87.5</ele>
<time>2011-09-30T13:59:24Z</time>
</trkpt>
<trkpt lat="51.24525275" lon="6.81088935">
<ele>88.5</ele>
<time>2011-09-30T13:59:28Z</time>
</trkpt>
<trkpt lat="51.2452478" lon="6.81089622">
<ele>88.5</ele>
<time>2011-09-30T13:59:32Z</time>
</trkpt>
<trkpt lat="51.24519617" lon="6.81098163">
<ele>87</ele>
<time>2011-09-30T13:59:36Z</time>
</trkpt>
<trkpt lat="51.24509186" lon="6.81114583">
<ele>87</ele>
<time>2011-09-30T13:59:40Z</time>
</trkpt>
<trkpt lat="51.24497665" lon="6.81133694">
<ele>0</ele>
<time>2011-09-30T13:59:44Z</time>
</trkpt>
<trkpt lat="51.24484689" lon="6.81155504">
<ele>86</ele>
<time>2011-09-30T13:59:48Z</time>
</trkpt>
<trkpt lat="51.24473043" lon="6.81176903">
<ele>86</ele>
<time>2011-09-30T13:59:52Z</time>
</trkpt>
<trkpt lat="51.24460457" lon="6.81199358">
<ele>0</ele>
<time>2011-09-30T13:59:56Z</time>
</trkpt>
<trkpt lat="51.24446983" lon="6.81221972">
<ele>86.5</ele>
<time>2011-09-30T14:00:00Z</time>
</trkpt>
<trkpt lat="51.24433761" lon="6.81245718">
<ele>0</ele>
<time>2011-09-30T14:00:04Z</time>
</trkpt>
<trkpt lat="51.24419994" lon="6.81268324">
<ele>0</ele>
<time>2011-09-30T14:00:08Z</time>
</trkpt>
<trkpt lat="51.24407065" lon="6.81291433">
<ele>85</ele>
<time>2011-09-30T14:00:12Z</time>
</trkpt>
<trkpt lat="51.24392924" lon="6.81312866">
<ele>86</ele>
<time>2011-09-30T14:00:16Z</time>
</trkpt>
<trkpt lat="51.24378956" lon="6.81336301">
<ele>85</ele>
<time>2011-09-30T14:00:20Z</time>
</trkpt>
<trkpt lat="51.24370067" lon="6.81361531">
<ele>83.5</ele>
<time>2011-09-30T14:00:24Z</time>
</trkpt>
<trkpt lat="51.2435565" lon="6.81384598">
<ele>82</ele>
<time>2011-09-30T14:00:28Z</time>
</trkpt>
<trkpt lat="51.2433985" lon="6.81405142">
<ele>82</ele>
<time>2011-09-30T14:00:32Z</time>
</trkpt>
<trkpt lat="51.24322072" lon="6.81425267">
<ele>81.5</ele>
<time>2011-09-30T14:00:36Z</time>
</trkpt>
<trkpt lat="51.24319579" lon="6.81438921">
<ele>81.5</ele>
<time>2011-09-30T14:00:40Z</time>
</trkpt>
<trkpt lat="51.24319905" lon="6.81441553">
<ele>82</ele>
<time>2011-09-30T14:00:44Z</time>
</trkpt>
<trkpt lat="51.24319507" lon="6.81442944">
<ele>0</ele>
<time>2011-09-30T14:00:48Z</time>
</trkpt>
<trkpt lat="51.24318137" lon="6.81444059">
<ele>0</ele>
<time>2011-09-30T14:00:52Z</time>
</trkpt>
<trkpt lat="51.24317546" lon="6.81445124">
<ele>84.5</ele>
<time>2011-09-30T14:00:56Z</time>
</trkpt>
<trkpt lat="51.24318418" lon="6.81445668">
<ele>88</ele>
<time>2011-09-30T14:01:00Z</time>
</trkpt>
<trkpt lat="51.24318757" lon="6.81445199">
<ele>88.5</ele>
<time>2011-09-30T14:01:04Z</time>
</trkpt>
<trkpt lat="51.24319151" lon="6.81445836">
<ele>88.5</ele>
<time>2011-09-30T14:01:08Z</time>
</trkpt>
<trkpt lat="51.2431947" lon="6.81446934">
<ele>88.5</ele>
<time>2011-09-30T14:01:12Z</time>
</trkpt>
<trkpt lat="51.2431939" lon="6.81447093">
<ele>89</ele>
<time>2011-09-30T14:01:16Z</time>
</trkpt>
<trkpt lat="51.24320035" lon="6.81447672">
<ele>90</ele>
<time>2011-09-30T14:01:20Z</time>
</trkpt>
<trkpt lat="51.24319532" lon="6.81447303">
<ele>90.5</ele>
<time>2011-09-30T14:01:24Z</time>
</trkpt>
<trkpt lat="51.24316846" lon="6.81445886">
<ele>90.5</ele>
<time>2011-09-30T14:01:28Z</time>
</trkpt>
<trkpt lat="51.24316104" lon="6.81445828">
<ele>0</ele>
<time>2011-09-30T14:01:32Z</time>
</trkpt>
<trkpt lat="51.24319662" lon="6.81454285">
<ele>92.5</ele>
<time>2011-09-30T14:01:36Z</time>
</trkpt>
<trkpt lat="51.24329427" lon="6.8145545">
<ele>94</ele>
<time>2011-09-30T14:01:40Z</time>
</trkpt>
<trkpt lat="51.24332814" lon="6.81459465">
<ele>93</ele>
<time>2011-09-30T14:01:44Z</time>
</trkpt>
<trkpt lat="51.24331632" lon="6.81459867">
<ele>93.5</ele>
<time>2011-09-30T14:01:48Z</time>
</trkpt>
<trkpt lat="51.24328321" lon="6.81459029">
<ele>93</ele>
<time>2011-09-30T14:01:52Z</time>
</trkpt>
<trkpt lat="51.24324696" lon="6.81457973">
<ele>91.5</ele>
<time>2011-09-30T14:01:56Z</time>
</trkpt>
<trkpt lat="51.24322449" lon="6.81456766">
<ele>91</ele>
<time>2011-09-30T14:02:00Z</time>
</trkpt>
<trkpt lat="51.24320609" lon="6.81457546">
<ele>91.5</ele>
<time>2011-09-30T14:02:04Z</time>
</trkpt>
<trkpt lat="51.24319859" lon="6.81457881">
<ele>91.5</ele>
<time>2011-09-30T14:02:08Z</time>
</trkpt>
<trkpt lat="51.24320044" lon="6.81458032">
<ele>91.5</ele>
<time>2011-09-30T14:02:12Z</time>
</trkpt>
<trkpt lat="51.24320563" lon="6.81457847">
<ele>0</ele>
<time>2011-09-30T14:02:16Z</time>
</trkpt>
<trkpt lat="51.24320794" lon="6.8145835">
<ele>90.5</ele>
<time>2011-09-30T14:02:20Z</time>
</trkpt>
<trkpt lat="51.24320702" lon="6.81458711">
<ele>91</ele>
<time>2011-09-30T14:02:24Z</time>
</trkpt>
<trkpt lat="51.24320698" lon="6.81458702">
<ele>0</ele>
<time>2011-09-30T14:02:28Z</time>
</trkpt>
<trkpt lat="51.24320681" lon="6.81458702">
<ele>0</ele>
<time>2011-09-30T14:02:44Z</time>
</trkpt>
<trkpt lat="51.24320681" lon="6.81458702">
<ele>91</ele>
<time>2011-09-30T14:02:54Z</time>
</trkpt>
<trkpt lat="51.24320698" lon="6.81458686">
<ele>0</ele>
<time>2011-09-30T14:03:06Z</time>
</trkpt>
<trkpt lat="51.24320651" lon="6.81458937">
<ele>0</ele>
<time>2011-09-30T14:03:33Z</time>
</trkpt>
<trkpt lat="51.24320563" lon="6.81459297">
<ele>90.5</ele>
<time>2011-09-30T14:03:37Z</time>
</trkpt>
<trkpt lat="51.24318975" lon="6.81529119">
<ele>92</ele>
<time>2011-09-30T14:03:42Z</time>
</trkpt>
<trkpt lat="51.24318657" lon="6.8152906">
<ele>92</ele>
<time>2011-09-30T14:03:46Z</time>
</trkpt>
<trkpt lat="51.24320119" lon="6.8152927">
<ele>0</ele>
<time>2011-09-30T14:03:50Z</time>
</trkpt>
<trkpt lat="51.24319348" lon="6.8153108">
<ele>92</ele>
<time>2011-09-30T14:03:54Z</time>
</trkpt>
<trkpt lat="51.24316616" lon="6.81526529">
<ele>91.5</ele>
<time>2011-09-30T14:03:58Z</time>
</trkpt>
<trkpt lat="51.24313803" lon="6.81508977">
<ele>90</ele>
<time>2011-09-30T14:04:03Z</time>
</trkpt>
<trkpt lat="51.24313208" lon="6.81503722">
<ele>90</ele>
<time>2011-09-30T14:04:06Z</time>
</trkpt>
<trkpt lat="51.24313435" lon="6.81503889">
<ele>0</ele>
<time>2011-09-30T14:04:08Z</time>
</trkpt>
<trkpt lat="51.24313154" lon="6.81504208">
<ele>0</ele>
<time>2011-09-30T14:04:12Z</time>
</trkpt>
<trkpt lat="51.24313208" lon="6.81504342">
<ele>90</ele>
<time>2011-09-30T14:04:16Z</time>
</trkpt>
<trkpt lat="51.24312249" lon="6.81500478">
<ele>90</ele>
<time>2011-09-30T14:04:20Z</time>
</trkpt>
<trkpt lat="51.24311104" lon="6.81499539">
<ele>89.5</ele>
<time>2011-09-30T14:04:24Z</time>
</trkpt>
<trkpt lat="51.24309411" lon="6.8149995">
<ele>89.5</ele>
<time>2011-09-30T14:04:28Z</time>
</trkpt>
<trkpt lat="51.24310258" lon="6.81498852">
<ele>88.5</ele>
<time>2011-09-30T14:04:32Z</time>
</trkpt>
<trkpt lat="51.24310585" lon="6.81498634">
<ele>88</ele>
<time>2011-09-30T14:04:36Z</time>
</trkpt>
<trkpt lat="51.24311331" lon="6.81498768">
<ele>86</ele>
<time>2011-09-30T14:04:40Z</time>
</trkpt>
<trkpt lat="51.24311486" lon="6.81499195">
<ele>86.5</ele>
<time>2011-09-30T14:04:44Z</time>
</trkpt>
<trkpt lat="51.24311607" lon="6.8149197">
<ele>94</ele>
<time>2011-09-30T14:04:48Z</time>
</trkpt>
<trkpt lat="51.24313883" lon="6.81479095">
<ele>99.5</ele>
<time>2011-09-30T14:04:52Z</time>
</trkpt>
<trkpt lat="51.24314373" lon="6.81474972">
<ele>100</ele>
<time>2011-09-30T14:04:56Z</time>
</trkpt>
<trkpt lat="51.24313041" lon="6.81473019">
<ele>102.5</ele>
<time>2011-09-30T14:05:00Z</time>
</trkpt>
<trkpt lat="51.24312663" lon="6.81472323">
<ele>103</ele>
<time>2011-09-30T14:05:04Z</time>
</trkpt>
<trkpt lat="51.24301113" lon="6.81458401">
<ele>102</ele>
<time>2011-09-30T14:05:08Z</time>
</trkpt>
<trkpt lat="51.24296176" lon="6.81440706">
<ele>103</ele>
<time>2011-09-30T14:05:12Z</time>
</trkpt>
<trkpt lat="51.24296658" lon="6.81420431">
<ele>93.5</ele>
<time>2011-09-30T14:05:16Z</time>
</trkpt>
<trkpt lat="51.24293741" lon="6.81402787">
<ele>91.5</ele>
<time>2011-09-30T14:05:20Z</time>
</trkpt>
<trkpt lat="51.24290757" lon="6.8140225">
<ele>92</ele>
<time>2011-09-30T14:05:24Z</time>
</trkpt>
<trkpt lat="51.24290284" lon="6.81412619">
<ele>90</ele>
<time>2011-09-30T14:05:28Z</time>
</trkpt>
<trkpt lat="51.24290799" lon="6.81419785">
<ele>87</ele>
<time>2011-09-30T14:05:32Z</time>
</trkpt>
<trkpt lat="51.24292195" lon="6.81420011">
<ele>84</ele>
<time>2011-09-30T14:05:36Z</time>
</trkpt>
<trkpt lat="51.24291487" lon="6.81419534">
<ele>85</ele>
<time>2011-09-30T14:05:40Z</time>
</trkpt>
<trkpt lat="51.24290946" lon="6.81427647">
<ele>83</ele>
<time>2011-09-30T14:05:44Z</time>
</trkpt>
<trkpt lat="51.24285778" lon="6.81434629">
<ele>81.5</ele>
<time>2011-09-30T14:05:48Z</time>
</trkpt>
<trkpt lat="51.24278352" lon="6.81415376">
<ele>82</ele>
<time>2011-09-30T14:05:52Z</time>
</trkpt>
<trkpt lat="51.24268692" lon="6.81400339">
<ele>82</ele>
<time>2011-09-30T14:05:56Z</time>
</trkpt>
<trkpt lat="51.2425389" lon="6.8141349">
<ele>82</ele>
<time>2011-09-30T14:06:00Z</time>
</trkpt>
<trkpt lat="51.2424754" lon="6.81443028">
<ele>82.5</ele>
<time>2011-09-30T14:06:04Z</time>
</trkpt>
<trkpt lat="51.24245709" lon="6.8147638">
<ele>0</ele>
<time>2011-09-30T14:06:08Z</time>
</trkpt>
<trkpt lat="51.24234397" lon="6.8150378">
<ele>0</ele>
<time>2011-09-30T14:06:12Z</time>
</trkpt>
<trkpt lat="51.2421949" lon="6.8152875">
<ele>81</ele>
<time>2011-09-30T14:06:16Z</time>
</trkpt>
<trkpt lat="51.242046" lon="6.81551632">
<ele>80</ele>
<time>2011-09-30T14:06:20Z</time>
</trkpt>
<trkpt lat="51.2419033" lon="6.81574004">
<ele>80.5</ele>
<time>2011-09-30T14:06:24Z</time>
</trkpt>
<trkpt lat="51.24176965" lon="6.81596367">
<ele>0</ele>
<time>2011-09-30T14:06:28Z</time>
</trkpt>
<trkpt lat="51.24161856" lon="6.81612611">
<ele>0</ele>
<time>2011-09-30T14:06:32Z</time>
</trkpt>
<trkpt lat="51.24151236" lon="6.81632292">
<ele>81</ele>
<time>2011-09-30T14:06:36Z</time>
</trkpt>
<trkpt lat="51.24143362" lon="6.816568">
<ele>81</ele>
<time>2011-09-30T14:06:40Z</time>
</trkpt>
<trkpt lat="51.24138865" lon="6.81665895">
<ele>80.5</ele>
<time>2011-09-30T14:06:44Z</time>
</trkpt>
<trkpt lat="51.24138161" lon="6.81663816">
<ele>81.5</ele>
<time>2011-09-30T14:06:48Z</time>
</trkpt>
<trkpt lat="51.24137796" lon="6.81666791">
<ele>82</ele>
<time>2011-09-30T14:06:52Z</time>
</trkpt>
<trkpt lat="51.24131065" lon="6.81679691">
<ele>82</ele>
<time>2011-09-30T14:06:56Z</time>
</trkpt>
<trkpt lat="51.24117994" lon="6.81696748">
<ele>81.5</ele>
<time>2011-09-30T14:07:00Z</time>
</trkpt>
<trkpt lat="51.24103552" lon="6.81717737">
<ele>82</ele>
<time>2011-09-30T14:07:04Z</time>
</trkpt>
<trkpt lat="51.24089378" lon="6.81742354">
<ele>82</ele>
<time>2011-09-30T14:07:08Z</time>
</trkpt>
<trkpt lat="51.24074479" lon="6.81767827">
<ele>81.5</ele>
<time>2011-09-30T14:07:12Z</time>
</trkpt>
<trkpt lat="51.24059207" lon="6.8179273">
<ele>0</ele>
<time>2011-09-30T14:07:16Z</time>
</trkpt>
<trkpt lat="51.24046048" lon="6.81817808">
<ele>0</ele>
<time>2011-09-30T14:07:20Z</time>
</trkpt>
<trkpt lat="51.24032624" lon="6.8183821">
<ele>82.5</ele>
<time>2011-09-30T14:07:24Z</time>
</trkpt>
<trkpt lat="51.24022733" lon="6.81845611">
<ele>0</ele>
<time>2011-09-30T14:07:28Z</time>
</trkpt>
<trkpt lat="51.24019905" lon="6.81865962">
<ele>0</ele>
<time>2011-09-30T14:07:32Z</time>
</trkpt>
<trkpt lat="51.24012424" lon="6.81891351">
<ele>84</ele>
<time>2011-09-30T14:07:36Z</time>
</trkpt>
<trkpt lat="51.2400014" lon="6.81915306">
<ele>0</ele>
<time>2011-09-30T14:07:40Z</time>
</trkpt>
<trkpt lat="51.23989156" lon="6.81940226">
<ele>84</ele>
<time>2011-09-30T14:07:44Z</time>
</trkpt>
<trkpt lat="51.23978804" lon="6.81965405">
<ele>84</ele>
<time>2011-09-30T14:07:48Z</time>
</trkpt>
<trkpt lat="51.23966336" lon="6.81989092">
<ele>0</ele>
<time>2011-09-30T14:07:52Z</time>
</trkpt>
<trkpt lat="51.23955062" lon="6.8201454">
<ele>83.5</ele>
<time>2011-09-30T14:07:56Z</time>
</trkpt>
<trkpt lat="51.23942468" lon="6.82042753">
<ele>83</ele>
<time>2011-09-30T14:08:00Z</time>
</trkpt>
<trkpt lat="51.23929468" lon="6.82071956">
<ele>82.5</ele>
<time>2011-09-30T14:08:04Z</time>
</trkpt>
<trkpt lat="51.23917302" lon="6.82102324">
<ele>82.5</ele>
<time>2011-09-30T14:08:08Z</time>
</trkpt>
<trkpt lat="51.23908861" lon="6.82131434">
<ele>82</ele>
<time>2011-09-30T14:08:12Z</time>
</trkpt>
<trkpt lat="51.23898275" lon="6.82151156">
<ele>0</ele>
<time>2011-09-30T14:08:16Z</time>
</trkpt>
<trkpt lat="51.23882005" lon="6.82155406">
<ele>0</ele>
<time>2011-09-30T14:08:20Z</time>
</trkpt>
<trkpt lat="51.23865212" lon="6.82157007">
<ele>82</ele>
<time>2011-09-30T14:08:24Z</time>
</trkpt>
<trkpt lat="51.23847464" lon="6.8215544">
<ele>81.5</ele>
<time>2011-09-30T14:08:28Z</time>
</trkpt>
<trkpt lat="51.23828131" lon="6.82155456">
<ele>83.5</ele>
<time>2011-09-30T14:08:32Z</time>
</trkpt>
<trkpt lat="51.23808303" lon="6.82156211">
<ele>84</ele>
<time>2011-09-30T14:08:36Z</time>
</trkpt>
<trkpt lat="51.23788799" lon="6.82153051">
<ele>81</ele>
<time>2011-09-30T14:08:40Z</time>
</trkpt>
<trkpt lat="51.23769835" lon="6.82150302">
<ele>81.5</ele>
<time>2011-09-30T14:08:44Z</time>
</trkpt>
<trkpt lat="51.23753113" lon="6.8214373">
<ele>83.5</ele>
<time>2011-09-30T14:08:48Z</time>
</trkpt>
<trkpt lat="51.23736165" lon="6.82136312">
<ele>88.5</ele>
<time>2011-09-30T14:08:52Z</time>
</trkpt>
<trkpt lat="51.23723776" lon="6.82125751">
<ele>91.5</ele>
<time>2011-09-30T14:08:56Z</time>
</trkpt>
<trkpt lat="51.23717133" lon="6.8213016">
<ele>92.5</ele>
<time>2011-09-30T14:09:00Z</time>
</trkpt>
<trkpt lat="51.23713206" lon="6.82142666">
<ele>94.5</ele>
<time>2011-09-30T14:09:04Z</time>
</trkpt>
<trkpt lat="51.23705881" lon="6.82142389">
<ele>96.5</ele>
<time>2011-09-30T14:09:08Z</time>
</trkpt>
<trkpt lat="51.23697088" lon="6.82136857">
<ele>102.5</ele>
<time>2011-09-30T14:09:12Z</time>
</trkpt>
<trkpt lat="51.23680521" lon="6.82127712">
<ele>109</ele>
<time>2011-09-30T14:09:16Z</time>
</trkpt>
<trkpt lat="51.23666423" lon="6.82122231">
<ele>116</ele>
<time>2011-09-30T14:09:20Z</time>
</trkpt>
<trkpt lat="51.23659768" lon="6.82135918">
<ele>113</ele>
<time>2011-09-30T14:09:24Z</time>
</trkpt>
<trkpt lat="51.23641981" lon="6.82134728">
<ele>116</ele>
<time>2011-09-30T14:09:28Z</time>
</trkpt>
<trkpt lat="51.23622875" lon="6.82134083">
<ele>115.5</ele>
<time>2011-09-30T14:09:32Z</time>
</trkpt>
<trkpt lat="51.2360008" lon="6.82118501">
<ele>117</ele>
<time>2011-09-30T14:09:36Z</time>
</trkpt>
<trkpt lat="51.23588714" lon="6.82122809">
<ele>114.5</ele>
<time>2011-09-30T14:09:40Z</time>
</trkpt>
<trkpt lat="51.23588086" lon="6.82144878">
<ele>112</ele>
<time>2011-09-30T14:09:44Z</time>
</trkpt>
<trkpt lat="51.23593748" lon="6.82172916">
<ele>114.5</ele>
<time>2011-09-30T14:09:48Z</time>
</trkpt>
<trkpt lat="51.23595872" lon="6.82183561">
<ele>121.5</ele>
<time>2011-09-30T14:09:52Z</time>
</trkpt>
<trkpt lat="51.23597863" lon="6.82183167">
<ele>122</ele>
<time>2011-09-30T14:09:56Z</time>
</trkpt>
<trkpt lat="51.2359498" lon="6.82183695">
<ele>126</ele>
<time>2011-09-30T14:10:00Z</time>
</trkpt>
<trkpt lat="51.23579599" lon="6.82186109">
<ele>128.5</ele>
<time>2011-09-30T14:10:04Z</time>
</trkpt>
<trkpt lat="51.23559436" lon="6.82186134">
<ele>129</ele>
<time>2011-09-30T14:10:08Z</time>
</trkpt>
<trkpt lat="51.2353577" lon="6.8218569">
<ele>128</ele>
<time>2011-09-30T14:10:12Z</time>
</trkpt>
<trkpt lat="51.23507422" lon="6.82189177">
<ele>125</ele>
<time>2011-09-30T14:10:16Z</time>
</trkpt>
<trkpt lat="51.23478677" lon="6.82197182">
<ele>123</ele>
<time>2011-09-30T14:10:20Z</time>
</trkpt>
<trkpt lat="51.23448401" lon="6.82201406">
<ele>125.5</ele>
<time>2011-09-30T14:10:24Z</time>
</trkpt>
<trkpt lat="51.2342256" lon="6.82202906">
<ele>124.5</ele>
<time>2011-09-30T14:10:28Z</time>
</trkpt>
<trkpt lat="51.23396291" lon="6.82203175">
<ele>122.5</ele>
<time>2011-09-30T14:10:32Z</time>
</trkpt>
<trkpt lat="51.23371858" lon="6.82202605">
<ele>126.5</ele>
<time>2011-09-30T14:10:36Z</time>
</trkpt>
<trkpt lat="51.23349792" lon="6.82200735">
<ele>129.5</ele>
<time>2011-09-30T14:10:40Z</time>
</trkpt>
<trkpt lat="51.2332919" lon="6.82195094">
<ele>127.5</ele>
<time>2011-09-30T14:10:44Z</time>
</trkpt>
<trkpt lat="51.23309404" lon="6.82188531">
<ele>126.5</ele>
<time>2011-09-30T14:10:48Z</time>
</trkpt>
<trkpt lat="51.23289455" lon="6.82181424">
<ele>125.5</ele>
<time>2011-09-30T14:10:52Z</time>
</trkpt>
<trkpt lat="51.23269804" lon="6.82175548">
<ele>123.5</ele>
<time>2011-09-30T14:10:56Z</time>
</trkpt>
<trkpt lat="51.23250031" lon="6.82169639">
<ele>121</ele>
<time>2011-09-30T14:11:00Z</time>
</trkpt>
<trkpt lat="51.23230845" lon="6.82162338">
<ele>120</ele>
<time>2011-09-30T14:11:04Z</time>
</trkpt>
<trkpt lat="51.23213436" lon="6.82156529">
<ele>116</ele>
<time>2011-09-30T14:11:08Z</time>
</trkpt>
<trkpt lat="51.23196688" lon="6.8215668">
<ele>114</ele>
<time>2011-09-30T14:11:12Z</time>
</trkpt>
<trkpt lat="51.23184744" lon="6.82175833">
<ele>111.5</ele>
<time>2011-09-30T14:11:16Z</time>
</trkpt>
<trkpt lat="51.23175885" lon="6.82200249">
<ele>107</ele>
<time>2011-09-30T14:11:20Z</time>
</trkpt>
<trkpt lat="51.23166048" lon="6.82224046">
<ele>103</ele>
<time>2011-09-30T14:11:24Z</time>
</trkpt>
<trkpt lat="51.23155273" lon="6.82248814">
<ele>102</ele>
<time>2011-09-30T14:11:28Z</time>
</trkpt>
<trkpt lat="51.23145006" lon="6.82273516">
<ele>100</ele>
<time>2011-09-30T14:11:32Z</time>
</trkpt>
<trkpt lat="51.23135065" lon="6.82297337">
<ele>99</ele>
<time>2011-09-30T14:11:36Z</time>
</trkpt>
<trkpt lat="51.2312693" lon="6.82323094">
<ele>97.5</ele>
<time>2011-09-30T14:11:40Z</time>
</trkpt>
<trkpt lat="51.23118318" lon="6.82348391">
<ele>96.5</ele>
<time>2011-09-30T14:11:44Z</time>
</trkpt>
<trkpt lat="51.23108373" lon="6.8237259">
<ele>95.5</ele>
<time>2011-09-30T14:11:48Z</time>
</trkpt>
<trkpt lat="51.23099337" lon="6.82396931">
<ele>95</ele>
<time>2011-09-30T14:11:52Z</time>
</trkpt>
<trkpt lat="51.23090766" lon="6.82419403">
<ele>94</ele>
<time>2011-09-30T14:11:56Z</time>
</trkpt>
<trkpt lat="51.23081638" lon="6.82437692">
<ele>92.5</ele>
<time>2011-09-30T14:12:00Z</time>
</trkpt>
<trkpt lat="51.23075369" lon="6.82454514">
<ele>91.5</ele>
<time>2011-09-30T14:12:04Z</time>
</trkpt>
<trkpt lat="51.23070097" lon="6.82480146">
<ele>90</ele>
<time>2011-09-30T14:12:08Z</time>
</trkpt>
<trkpt lat="51.23060026" lon="6.82504906">
<ele>88.5</ele>
<time>2011-09-30T14:12:12Z</time>
</trkpt>
<trkpt lat="51.23049117" lon="6.82531812">
<ele>88</ele>
<time>2011-09-30T14:12:16Z</time>
</trkpt>
<trkpt lat="51.2303654" lon="6.82559221">
<ele>0</ele>
<time>2011-09-30T14:12:20Z</time>
</trkpt>
<trkpt lat="51.23025098" lon="6.82587619">
<ele>0</ele>
<time>2011-09-30T14:12:24Z</time>
</trkpt>
<trkpt lat="51.23013661" lon="6.82615899">
<ele>86.5</ele>
<time>2011-09-30T14:12:28Z</time>
</trkpt>
<trkpt lat="51.23002165" lon="6.82644071">
<ele>86</ele>
<time>2011-09-30T14:12:32Z</time>
</trkpt>
<trkpt lat="51.22990347" lon="6.82671706">
<ele>86</ele>
<time>2011-09-30T14:12:36Z</time>
</trkpt>
<trkpt lat="51.22979195" lon="6.8269935">
<ele>86.5</ele>
<time>2011-09-30T14:12:40Z</time>
</trkpt>
<trkpt lat="51.22966873" lon="6.82726088">
<ele>86.5</ele>
<time>2011-09-30T14:12:44Z</time>
</trkpt>
<trkpt lat="51.2295557" lon="6.82752768">
<ele>86</ele>
<time>2011-09-30T14:12:48Z</time>
</trkpt>
<trkpt lat="51.22943827" lon="6.82779338">
<ele>85</ele>
<time>2011-09-30T14:12:52Z</time>
</trkpt>
<trkpt lat="51.22932453" lon="6.82806755">
<ele>85</ele>
<time>2011-09-30T14:12:56Z</time>
</trkpt>
<trkpt lat="51.22921104" lon="6.828345">
<ele>0</ele>
<time>2011-09-30T14:13:00Z</time>
</trkpt>
<trkpt lat="51.22909985" lon="6.82860475">
<ele>85</ele>
<time>2011-09-30T14:13:04Z</time>
</trkpt>
<trkpt lat="51.22900317" lon="6.82884933">
<ele>0</ele>
<time>2011-09-30T14:13:08Z</time>
</trkpt>
<trkpt lat="51.22891533" lon="6.82906919">
<ele>0</ele>
<time>2011-09-30T14:13:12Z</time>
</trkpt>
<trkpt lat="51.22882862" lon="6.82922074">
<ele>85.5</ele>
<time>2011-09-30T14:13:16Z</time>
</trkpt>
<trkpt lat="51.22879815" lon="6.82936667">
<ele>85.5</ele>
<time>2011-09-30T14:13:20Z</time>
</trkpt>
<trkpt lat="51.22875297" lon="6.82953766">
<ele>86</ele>
<time>2011-09-30T14:13:24Z</time>
</trkpt>
<trkpt lat="51.22867975" lon="6.82970848">
<ele>86.5</ele>
<time>2011-09-30T14:13:28Z</time>
</trkpt>
<trkpt lat="51.22866006" lon="6.82989053">
<ele>87</ele>
<time>2011-09-30T14:13:32Z</time>
</trkpt>
<trkpt lat="51.22867179" lon="6.83011525">
<ele>86</ele>
<time>2011-09-30T14:13:36Z</time>
</trkpt>
<trkpt lat="51.22866592" lon="6.83034743">
<ele>85</ele>
<time>2011-09-30T14:13:40Z</time>
</trkpt>
<trkpt lat="51.22865846" lon="6.8305382">
<ele>85</ele>
<time>2011-09-30T14:13:44Z</time>
</trkpt>
<trkpt lat="51.22861949" lon="6.83062202">
<ele>85</ele>
<time>2011-09-30T14:13:48Z</time>
</trkpt>
<trkpt lat="51.22847679" lon="6.83065463">
<ele>85.5</ele>
<time>2011-09-30T14:13:52Z</time>
</trkpt>
<trkpt lat="51.22830927" lon="6.83068095">
<ele>86</ele>
<time>2011-09-30T14:13:56Z</time>
</trkpt>
<trkpt lat="51.22813459" lon="6.83070995">
<ele>85</ele>
<time>2011-09-30T14:14:00Z</time>
</trkpt>
<trkpt lat="51.22795728" lon="6.83076192">
<ele>85</ele>
<time>2011-09-30T14:14:04Z</time>
</trkpt>
<trkpt lat="51.22781537" lon="6.83091698">
<ele>85</ele>
<time>2011-09-30T14:14:08Z</time>
</trkpt>
<trkpt lat="51.2278328" lon="6.83120959">
<ele>84.5</ele>
<time>2011-09-30T14:14:12Z</time>
</trkpt>
<trkpt lat="51.22785984" lon="6.83153104">
<ele>83.5</ele>
<time>2011-09-30T14:14:16Z</time>
</trkpt>
<trkpt lat="51.22788712" lon="6.8318628">
<ele>82.5</ele>
<time>2011-09-30T14:14:20Z</time>
</trkpt>
<trkpt lat="51.22792563" lon="6.83220721">
<ele>82.5</ele>
<time>2011-09-30T14:14:24Z</time>
</trkpt>
<trkpt lat="51.22795334" lon="6.8324725">
<ele>82</ele>
<time>2011-09-30T14:14:27Z</time>
</trkpt>
<trkpt lat="51.22799181" lon="6.83281934">
<ele>81.5</ele>
<time>2011-09-30T14:14:31Z</time>
</trkpt>
<trkpt lat="51.22802244" lon="6.83315">
<ele>82</ele>
<time>2011-09-30T14:14:35Z</time>
</trkpt>
<trkpt lat="51.22806356" lon="6.83346684">
<ele>82.5</ele>
<time>2011-09-30T14:14:39Z</time>
</trkpt>
<trkpt lat="51.22808388" lon="6.83375845">
<ele>83.5</ele>
<time>2011-09-30T14:14:43Z</time>
</trkpt>
<trkpt lat="51.22820509" lon="6.83389113">
<ele>84</ele>
<time>2011-09-30T14:14:47Z</time>
</trkpt>
<trkpt lat="51.22839749" lon="6.83391955">
<ele>84.5</ele>
<time>2011-09-30T14:14:51Z</time>
</trkpt>
<trkpt lat="51.22859447" lon="6.83395886">
<ele>88</ele>
<time>2011-09-30T14:14:55Z</time>
</trkpt>
<trkpt lat="51.2287878" lon="6.833984">
<ele>89.5</ele>
<time>2011-09-30T14:14:59Z</time>
</trkpt>
<trkpt lat="51.22898682" lon="6.83400295">
<ele>89.5</ele>
<time>2011-09-30T14:15:03Z</time>
</trkpt>
<trkpt lat="51.22918879" lon="6.83401762">
<ele>91.5</ele>
<time>2011-09-30T14:15:07Z</time>
</trkpt>
<trkpt lat="51.22939062" lon="6.83398585">
<ele>92</ele>
<time>2011-09-30T14:15:11Z</time>
</trkpt>
<trkpt lat="51.22957326" lon="6.8339524">
<ele>92.5</ele>
<time>2011-09-30T14:15:15Z</time>
</trkpt>
<trkpt lat="51.22973726" lon="6.83391619">
<ele>0</ele>
<time>2011-09-30T14:15:19Z</time>
</trkpt>
<trkpt lat="51.22985984" lon="6.8338975">
<ele>0</ele>
<time>2011-09-30T14:15:23Z</time>
</trkpt>
<trkpt lat="51.22996537" lon="6.83386188">
<ele>91.5</ele>
<time>2011-09-30T14:15:27Z</time>
</trkpt>
<trkpt lat="51.23003263" lon="6.83390446">
<ele>91</ele>
<time>2011-09-30T14:15:31Z</time>
</trkpt>
<trkpt lat="51.23005476" lon="6.83402147">
<ele>91</ele>
<time>2011-09-30T14:15:35Z</time>
</trkpt>
<trkpt lat="51.22998515" lon="6.83400588">
<ele>89</ele>
<time>2011-09-30T14:15:39Z</time>
</trkpt>
<trkpt lat="51.23003959" lon="6.83379114">
<ele>87</ele>
<time>2011-09-30T14:15:43Z</time>
</trkpt>
<trkpt lat="51.23007094" lon="6.83353909">
<ele>86.5</ele>
<time>2011-09-30T14:15:47Z</time>
</trkpt>
<trkpt lat="51.23005099" lon="6.83325034">
<ele>85.5</ele>
<time>2011-09-30T14:15:51Z</time>
</trkpt>
<trkpt lat="51.23003435" lon="6.83296653">
<ele>85.5</ele>
<time>2011-09-30T14:15:55Z</time>
</trkpt>
<trkpt lat="51.23001097" lon="6.83266578">
<ele>84.5</ele>
<time>2011-09-30T14:15:59Z</time>
</trkpt>
<trkpt lat="51.22998352" lon="6.83235741">
<ele>85</ele>
<time>2011-09-30T14:16:03Z</time>
</trkpt>
<trkpt lat="51.22997505" lon="6.83203756">
<ele>84.5</ele>
<time>2011-09-30T14:16:07Z</time>
</trkpt>
<trkpt lat="51.22995229" lon="6.83172827">
<ele>85</ele>
<time>2011-09-30T14:16:11Z</time>
</trkpt>
<trkpt lat="51.22992618" lon="6.83141529">
<ele>86.5</ele>
<time>2011-09-30T14:16:15Z</time>
</trkpt>
<trkpt lat="51.22989857" lon="6.83109149">
<ele>87</ele>
<time>2011-09-30T14:16:19Z</time>
</trkpt>
<trkpt lat="51.2298826" lon="6.83078044">
<ele>86.5</ele>
<time>2011-09-30T14:16:23Z</time>
</trkpt>
<trkpt lat="51.22985942" lon="6.83050459">
<ele>86</ele>
<time>2011-09-30T14:16:27Z</time>
</trkpt>
<trkpt lat="51.22993247" lon="6.83035447">
<ele>85</ele>
<time>2011-09-30T14:16:31Z</time>
</trkpt>
<trkpt lat="51.23010635" lon="6.8303326">
<ele>85</ele>
<time>2011-09-30T14:16:35Z</time>
</trkpt>
<trkpt lat="51.23029319" lon="6.83029211">
<ele>85.5</ele>
<time>2011-09-30T14:16:39Z</time>
</trkpt>
<trkpt lat="51.23050408" lon="6.83026168">
<ele>85</ele>
<time>2011-09-30T14:16:43Z</time>
</trkpt>
<trkpt lat="51.23071559" lon="6.83020963">
<ele>86</ele>
<time>2011-09-30T14:16:47Z</time>
</trkpt>
<trkpt lat="51.23093461" lon="6.83019019">
<ele>87</ele>
<time>2011-09-30T14:16:51Z</time>
</trkpt>
<trkpt lat="51.23115003" lon="6.83014526">
<ele>87</ele>
<time>2011-09-30T14:16:55Z</time>
</trkpt>
<trkpt lat="51.23134126" lon="6.83007318">
<ele>0</ele>
<time>2011-09-30T14:16:59Z</time>
</trkpt>
<trkpt lat="51.23137374" lon="6.82983194">
<ele>84.5</ele>
<time>2011-09-30T14:17:03Z</time>
</trkpt>
<trkpt lat="51.23135756" lon="6.82952684">
<ele>84</ele>
<time>2011-09-30T14:17:07Z</time>
</trkpt>
<trkpt lat="51.23132588" lon="6.82918981">
<ele>83.5</ele>
<time>2011-09-30T14:17:11Z</time>
</trkpt>
<trkpt lat="51.23129839" lon="6.82884498">
<ele>83.5</ele>
<time>2011-09-30T14:17:15Z</time>
</trkpt>
<trkpt lat="51.23127165" lon="6.82850232">
<ele>83</ele>
<time>2011-09-30T14:17:19Z</time>
</trkpt>
<trkpt lat="51.23125585" lon="6.82817359">
<ele>83</ele>
<time>2011-09-30T14:17:23Z</time>
</trkpt>
<trkpt lat="51.23123401" lon="6.82786287">
<ele>0</ele>
<time>2011-09-30T14:17:27Z</time>
</trkpt>
<trkpt lat="51.23121423" lon="6.82754997">
<ele>83.5</ele>
<time>2011-09-30T14:17:31Z</time>
</trkpt>
<trkpt lat="51.23120007" lon="6.82724428">
<ele>83</ele>
<time>2011-09-30T14:17:35Z</time>
</trkpt>
<trkpt lat="51.23116784" lon="6.8269282">
<ele>83</ele>
<time>2011-09-30T14:17:39Z</time>
</trkpt>
<trkpt lat="51.2311582" lon="6.82662193">
<ele>0</ele>
<time>2011-09-30T14:17:43Z</time>
</trkpt>
<trkpt lat="51.23112832" lon="6.82633074">
<ele>83.5</ele>
<time>2011-09-30T14:17:47Z</time>
</trkpt>
<trkpt lat="51.23109621" lon="6.82604576">
<ele>83</ele>
<time>2011-09-30T14:17:51Z</time>
</trkpt>
<trkpt lat="51.23109529" lon="6.82577007">
<ele>83</ele>
<time>2011-09-30T14:17:55Z</time>
</trkpt>
<trkpt lat="51.23110238" lon="6.82550286">
<ele>0</ele>
<time>2011-09-30T14:17:59Z</time>
</trkpt>
<trkpt lat="51.23116474" lon="6.82525375">
<ele>83</ele>
<time>2011-09-30T14:18:03Z</time>
</trkpt>
<trkpt lat="51.23124902" lon="6.82506138">
<ele>82</ele>
<time>2011-09-30T14:18:07Z</time>
</trkpt>
<trkpt lat="51.23135203" lon="6.82499609">
<ele>84.5</ele>
<time>2011-09-30T14:18:11Z</time>
</trkpt>
<trkpt lat="51.2314568" lon="6.82498427">
<ele>84.5</ele>
<time>2011-09-30T14:18:15Z</time>
</trkpt>
<trkpt lat="51.23137018" lon="6.82501503">
<ele>84</ele>
<time>2011-09-30T14:18:19Z</time>
</trkpt>
<trkpt lat="51.23124294" lon="6.82500095">
<ele>84.5</ele>
<time>2011-09-30T14:18:23Z</time>
</trkpt>
<trkpt lat="51.23111658" lon="6.82486122">
<ele>85.5</ele>
<time>2011-09-30T14:18:27Z</time>
</trkpt>
<trkpt lat="51.23097447" lon="6.82472024">
<ele>86.5</ele>
<time>2011-09-30T14:18:31Z</time>
</trkpt>
<trkpt lat="51.2308663" lon="6.82455654">
<ele>87.5</ele>
<time>2011-09-30T14:18:35Z</time>
</trkpt>
<trkpt lat="51.23091051" lon="6.82433166">
<ele>90.5</ele>
<time>2011-09-30T14:18:39Z</time>
</trkpt>
<trkpt lat="51.23100737" lon="6.82408984">
<ele>91</ele>
<time>2011-09-30T14:18:43Z</time>
</trkpt>
<trkpt lat="51.23109286" lon="6.82388138">
<ele>92</ele>
<time>2011-09-30T14:18:47Z</time>
</trkpt>
<trkpt lat="51.23118561" lon="6.82365071">
<ele>92</ele>
<time>2011-09-30T14:18:51Z</time>
</trkpt>
<trkpt lat="51.2312833" lon="6.8234223">
<ele>0</ele>
<time>2011-09-30T14:18:55Z</time>
</trkpt>
<trkpt lat="51.2313794" lon="6.82318962">
<ele>91.5</ele>
<time>2011-09-30T14:18:59Z</time>
</trkpt>
<trkpt lat="51.23147734" lon="6.82294554">
<ele>91</ele>
<time>2011-09-30T14:19:03Z</time>
</trkpt>
<trkpt lat="51.23157465" lon="6.82269685">
<ele>91</ele>
<time>2011-09-30T14:19:07Z</time>
</trkpt>
<trkpt lat="51.23167381" lon="6.82244028">
<ele>0</ele>
<time>2011-09-30T14:19:11Z</time>
</trkpt>
<trkpt lat="51.23177993" lon="6.82217684">
<ele>90</ele>
<time>2011-09-30T14:19:15Z</time>
</trkpt>
<trkpt lat="51.23189866" lon="6.82190476">
<ele>88.5</ele>
<time>2011-09-30T14:19:19Z</time>
</trkpt>
<trkpt lat="51.23207032" lon="6.82167359">
<ele>87.5</ele>
<time>2011-09-30T14:19:23Z</time>
</trkpt>
<trkpt lat="51.2322986" lon="6.82170569">
<ele>87.5</ele>
<time>2011-09-30T14:19:27Z</time>
</trkpt>
<trkpt lat="51.2325115" lon="6.82188456">
<ele>0</ele>
<time>2011-09-30T14:19:31Z</time>
</trkpt>
<trkpt lat="51.23269565" lon="6.82208573">
<ele>86.5</ele>
<time>2011-09-30T14:19:35Z</time>
</trkpt>
<trkpt lat="51.23284816" lon="6.82232134">
<ele>85.5</ele>
<time>2011-09-30T14:19:39Z</time>
</trkpt>
<trkpt lat="51.2329671" lon="6.82257959">
<ele>84.5</ele>
<time>2011-09-30T14:19:43Z</time>
</trkpt>
<trkpt lat="51.23306806" lon="6.82283892">
<ele>84.5</ele>
<time>2011-09-30T14:19:47Z</time>
</trkpt>
<trkpt lat="51.23312216" lon="6.823096">
<ele>0</ele>
<time>2011-09-30T14:19:51Z</time>
</trkpt>
<trkpt lat="51.23318159" lon="6.82336866">
<ele>83.5</ele>
<time>2011-09-30T14:19:55Z</time>
</trkpt>
<trkpt lat="51.23326344" lon="6.8236259">
<ele>82.5</ele>
<time>2011-09-30T14:19:59Z</time>
</trkpt>
<trkpt lat="51.23330656" lon="6.82387786">
<ele>83</ele>
<time>2011-09-30T14:20:03Z</time>
</trkpt>
<trkpt lat="51.23332379" lon="6.824104">
<ele>83</ele>
<time>2011-09-30T14:20:07Z</time>
</trkpt>
<trkpt lat="51.2332445" lon="6.824176">
<ele>82.5</ele>
<time>2011-09-30T14:20:11Z</time>
</trkpt>
<trkpt lat="51.23313285" lon="6.82417173">
<ele>83</ele>
<time>2011-09-30T14:20:15Z</time>
</trkpt>
<trkpt lat="51.23307476" lon="6.82417818">
<ele>83</ele>
<time>2011-09-30T14:20:19Z</time>
</trkpt>
<trkpt lat="51.23306978" lon="6.82416955">
<ele>83.5</ele>
<time>2011-09-30T14:20:23Z</time>
</trkpt>
<trkpt lat="51.2330831" lon="6.82416368">
<ele>84.5</ele>
<time>2011-09-30T14:20:27Z</time>
</trkpt>
<trkpt lat="51.23308126" lon="6.82415723">
<ele>84</ele>
<time>2011-09-30T14:20:31Z</time>
</trkpt>
<trkpt lat="51.23307753" lon="6.82416226">
<ele>0</ele>
<time>2011-09-30T14:20:35Z</time>
</trkpt>
<trkpt lat="51.23307715" lon="6.82416913">
<ele>0</ele>
<time>2011-09-30T14:20:39Z</time>
</trkpt>
<trkpt lat="51.23307317" lon="6.82416603">
<ele>85</ele>
<time>2011-09-30T14:20:43Z</time>
</trkpt>
<trkpt lat="51.23306881" lon="6.82415899">
<ele>0</ele>
<time>2011-09-30T14:20:47Z</time>
</trkpt>
<trkpt lat="51.23305708" lon="6.82415446">
<ele>86</ele>
<time>2011-09-30T14:20:51Z</time>
</trkpt>
<trkpt lat="51.23303277" lon="6.82415614">
<ele>88.5</ele>
<time>2011-09-30T14:20:55Z</time>
</trkpt>
<trkpt lat="51.23302271" lon="6.82415974">
<ele>90</ele>
<time>2011-09-30T14:20:59Z</time>
</trkpt>
<trkpt lat="51.23302221" lon="6.82415932">
<ele>92</ele>
<time>2011-09-30T14:21:03Z</time>
</trkpt>
<trkpt lat="51.2330212" lon="6.82415279">
<ele>93.5</ele>
<time>2011-09-30T14:21:07Z</time>
</trkpt>
<trkpt lat="51.23301596" lon="6.82414575">
<ele>95</ele>
<time>2011-09-30T14:21:11Z</time>
</trkpt>
<trkpt lat="51.2330062" lon="6.82413292">
<ele>94</ele>
<time>2011-09-30T14:21:15Z</time>
</trkpt>
<trkpt lat="51.23299346" lon="6.82411674">
<ele>93</ele>
<time>2011-09-30T14:21:19Z</time>
</trkpt>
<trkpt lat="51.23299321" lon="6.82410333">
<ele>93</ele>
<time>2011-09-30T14:21:23Z</time>
</trkpt>
<trkpt lat="51.23299501" lon="6.82409395">
<ele>0</ele>
<time>2011-09-30T14:21:27Z</time>
</trkpt>
<trkpt lat="51.23298964" lon="6.82409445">
<ele>93</ele>
<time>2011-09-30T14:21:31Z</time>
</trkpt>
<trkpt lat="51.23298105" lon="6.82408959">
<ele>92</ele>
<time>2011-09-30T14:21:35Z</time>
</trkpt>
<trkpt lat="51.23297841" lon="6.8240854">
<ele>91</ele>
<time>2011-09-30T14:21:39Z</time>
</trkpt>
<trkpt lat="51.23298156" lon="6.82408422">
<ele>91</ele>
<time>2011-09-30T14:21:43Z</time>
</trkpt>
<trkpt lat="51.23298709" lon="6.82407794">
<ele>0</ele>
<time>2011-09-30T14:21:47Z</time>
</trkpt>
<trkpt lat="51.23299266" lon="6.82407609">
<ele>92</ele>
<time>2011-09-30T14:21:51Z</time>
</trkpt>
<trkpt lat="51.23299329" lon="6.82407492">
<ele>91.5</ele>
<time>2011-09-30T14:21:55Z</time>
</trkpt>
<trkpt lat="51.23299107" lon="6.82407416">
<ele>91</ele>
<time>2011-09-30T14:21:59Z</time>
</trkpt>
<trkpt lat="51.23299522" lon="6.82407576">
<ele>0</ele>
<time>2011-09-30T14:22:03Z</time>
</trkpt>
<trkpt lat="51.23299861" lon="6.82407249">
<ele>0</ele>
<time>2011-09-30T14:22:07Z</time>
</trkpt>
<trkpt lat="51.232994" lon="6.82406763">
<ele>91</ele>
<time>2011-09-30T14:22:11Z</time>
</trkpt>
<trkpt lat="51.23298797" lon="6.82406662">
<ele>91.5</ele>
<time>2011-09-30T14:22:15Z</time>
</trkpt>
<trkpt lat="51.23298394" lon="6.82406947">
<ele>0</ele>
<time>2011-09-30T14:22:19Z</time>
</trkpt>
<trkpt lat="51.23298483" lon="6.82407266">
<ele>0</ele>
<time>2011-09-30T14:22:23Z</time>
</trkpt>
<trkpt lat="51.2329878" lon="6.82407559">
<ele>91.5</ele>
<time>2011-09-30T14:22:27Z</time>
</trkpt>
<trkpt lat="51.23298705" lon="6.82407911">
<ele>0</ele>
<time>2011-09-30T14:22:31Z</time>
</trkpt>
<trkpt lat="51.23298885" lon="6.82408489">
<ele>0</ele>
<time>2011-09-30T14:22:35Z</time>
</trkpt>
<trkpt lat="51.23299208" lon="6.82408464">
<ele>90.5</ele>
<time>2011-09-30T14:22:39Z</time>
</trkpt>
<trkpt lat="51.23299652" lon="6.82408003">
<ele>0</ele>
<time>2011-09-30T14:22:43Z</time>
</trkpt>
<trkpt lat="51.23299924" lon="6.82407534">
<ele>90.5</ele>
<time>2011-09-30T14:22:47Z</time>
</trkpt>
<trkpt lat="51.23299878" lon="6.82406972">
<ele>90.5</ele>
<time>2011-09-30T14:22:51Z</time>
</trkpt>
<trkpt lat="51.23299769" lon="6.82406729">
<ele>0</ele>
<time>2011-09-30T14:22:55Z</time>
</trkpt>
<trkpt lat="51.23299878" lon="6.82406436">
<ele>91</ele>
<time>2011-09-30T14:22:59Z</time>
</trkpt>
<trkpt lat="51.2330013" lon="6.82406427">
<ele>0</ele>
<time>2011-09-30T14:23:03Z</time>
</trkpt>
<trkpt lat="51.23300343" lon="6.82406276">
<ele>0</ele>
<time>2011-09-30T14:23:07Z</time>
</trkpt>
<trkpt lat="51.23300477" lon="6.82406109">
<ele>90</ele>
<time>2011-09-30T14:23:11Z</time>
</trkpt>
<trkpt lat="51.2330054" lon="6.82406385">
<ele>0</ele>
<time>2011-09-30T14:23:16Z</time>
</trkpt>
<trkpt lat="51.23300607" lon="6.82406905">
<ele>0</ele>
<time>2011-09-30T14:23:20Z</time>
</trkpt>
<trkpt lat="51.23300775" lon="6.82407827">
<ele>89</ele>
<time>2011-09-30T14:23:24Z</time>
</trkpt>
<trkpt lat="51.23300876" lon="6.82408338">
<ele>88.5</ele>
<time>2011-09-30T14:23:28Z</time>
</trkpt>
<trkpt lat="51.23301001" lon="6.82408489">
<ele>0</ele>
<time>2011-09-30T14:23:32Z</time>
</trkpt>
<trkpt lat="51.23301274" lon="6.82408439">
<ele>0</ele>
<time>2011-09-30T14:23:36Z</time>
</trkpt>
<trkpt lat="51.23301425" lon="6.82408674">
<ele>89</ele>
<time>2011-09-30T14:23:40Z</time>
</trkpt>
<trkpt lat="51.23301601" lon="6.82409185">
<ele>0</ele>
<time>2011-09-30T14:23:44Z</time>
</trkpt>
<trkpt lat="51.23301617" lon="6.82409579">
<ele>89</ele>
<time>2011-09-30T14:23:48Z</time>
</trkpt>
<trkpt lat="51.23301684" lon="6.82410015">
<ele>89</ele>
<time>2011-09-30T14:23:52Z</time>
</trkpt>
<trkpt lat="51.23301898" lon="6.824104">
<ele>0</ele>
<time>2011-09-30T14:23:56Z</time>
</trkpt>
<trkpt lat="51.23302171" lon="6.82410568">
<ele>89</ele>
<time>2011-09-30T14:24:00Z</time>
</trkpt>
<trkpt lat="51.23302347" lon="6.82410627">
<ele>0</ele>
<time>2011-09-30T14:24:04Z</time>
</trkpt>
<trkpt lat="51.23302577" lon="6.82410828">
<ele>0</ele>
<time>2011-09-30T14:24:08Z</time>
</trkpt>
<trkpt lat="51.23302539" lon="6.82410786">
<ele>89</ele>
<time>2011-09-30T14:24:12Z</time>
</trkpt>
<trkpt lat="51.23302665" lon="6.82410912">
<ele>88.5</ele>
<time>2011-09-30T14:24:16Z</time>
</trkpt>
<trkpt lat="51.23302875" lon="6.82411037">
<ele>0</ele>
<time>2011-09-30T14:24:20Z</time>
</trkpt>
<trkpt lat="51.2330287" lon="6.82411155">
<ele>0</ele>
<time>2011-09-30T14:24:24Z</time>
</trkpt>
<trkpt lat="51.23302963" lon="6.82411356">
<ele>88.5</ele>
<time>2011-09-30T14:24:28Z</time>
</trkpt>
<trkpt lat="51.23303189" lon="6.8241175">
<ele>0</ele>
<time>2011-09-30T14:24:32Z</time>
</trkpt>
<trkpt lat="51.23303365" lon="6.82411725">
<ele>88.5</ele>
<time>2011-09-30T14:24:36Z</time>
</trkpt>
<trkpt lat="51.23303499" lon="6.8241175">
<ele>89</ele>
<time>2011-09-30T14:24:40Z</time>
</trkpt>
<trkpt lat="51.23303834" lon="6.82411775">
<ele>89</ele>
<time>2011-09-30T14:24:44Z</time>
</trkpt>
<trkpt lat="51.23304115" lon="6.82411968">
<ele>0</ele>
<time>2011-09-30T14:24:48Z</time>
</trkpt>
<trkpt lat="51.23304182" lon="6.82412412">
<ele>89.5</ele>
<time>2011-09-30T14:24:52Z</time>
</trkpt>
<trkpt lat="51.23304241" lon="6.82412747">
<ele>89.5</ele>
<time>2011-09-30T14:24:56Z</time>
</trkpt>
<trkpt lat="51.23304383" lon="6.82413133">
<ele>0</ele>
<time>2011-09-30T14:25:00Z</time>
</trkpt>
<trkpt lat="51.23304585" lon="6.82413384">
<ele>89.5</ele>
<time>2011-09-30T14:25:04Z</time>
</trkpt>
<trkpt lat="51.23304706" lon="6.82413653">
<ele>90</ele>
<time>2011-09-30T14:25:08Z</time>
</trkpt>
<trkpt lat="51.23304832" lon="6.82413988">
<ele>0</ele>
<time>2011-09-30T14:25:12Z</time>
</trkpt>
<trkpt lat="51.23304874" lon="6.82414105">
<ele>0</ele>
<time>2011-09-30T14:25:16Z</time>
</trkpt>
<trkpt lat="51.23304991" lon="6.8241429">
<ele>90</ele>
<time>2011-09-30T14:25:20Z</time>
</trkpt>
<trkpt lat="51.23304995" lon="6.82414281">
<ele>0</ele>
<time>2011-09-30T14:25:24Z</time>
</trkpt>
<trkpt lat="51.23305113" lon="6.82414223">
<ele>90</ele>
<time>2011-09-30T14:25:28Z</time>
</trkpt>
<trkpt lat="51.2332248" lon="6.82425161">
<ele>90.5</ele>
<time>2011-09-30T14:25:32Z</time>
</trkpt>
<trkpt lat="51.23329563" lon="6.82442872">
<ele>88</ele>
<time>2011-09-30T14:25:36Z</time>
</trkpt>
<trkpt lat="51.23335158" lon="6.82457792">
<ele>88</ele>
<time>2011-09-30T14:25:40Z</time>
</trkpt>
<trkpt lat="51.23340761" lon="6.82477145">
<ele>86</ele>
<time>2011-09-30T14:25:44Z</time>
</trkpt>
<trkpt lat="51.23345685" lon="6.82502207">
<ele>84.5</ele>
<time>2011-09-30T14:25:48Z</time>
</trkpt>
<trkpt lat="51.23348866" lon="6.82530262">
<ele>84</ele>
<time>2011-09-30T14:25:52Z</time>
</trkpt>
<trkpt lat="51.23352382" lon="6.82559188">
<ele>84.5</ele>
<time>2011-09-30T14:25:56Z</time>
</trkpt>
<trkpt lat="51.23354742" lon="6.82586035">
<ele>0</ele>
<time>2011-09-30T14:26:00Z</time>
</trkpt>
<trkpt lat="51.23356129" lon="6.82607937">
<ele>0</ele>
<time>2011-09-30T14:26:04Z</time>
</trkpt>
<trkpt lat="51.23361108" lon="6.82630844">
<ele>84</ele>
<time>2011-09-30T14:26:08Z</time>
</trkpt>
<trkpt lat="51.23362034" lon="6.82653015">
<ele>82.5</ele>
<time>2011-09-30T14:26:12Z</time>
</trkpt>
<trkpt lat="51.23364192" lon="6.82676643">
<ele>82.5</ele>
<time>2011-09-30T14:26:16Z</time>
</trkpt>
<trkpt lat="51.23366267" lon="6.82699786">
<ele>83.5</ele>
<time>2011-09-30T14:26:20Z</time>
</trkpt>
<trkpt lat="51.23368467" lon="6.82718745">
<ele>82.5</ele>
<time>2011-09-30T14:26:24Z</time>
</trkpt>
<trkpt lat="51.23369263" lon="6.82728577">
<ele>83</ele>
<time>2011-09-30T14:26:28Z</time>
</trkpt>
<trkpt lat="51.23371757" lon="6.82732156">
<ele>83.5</ele>
<time>2011-09-30T14:26:32Z</time>
</trkpt>
<trkpt lat="51.23371334" lon="6.82733187">
<ele>83</ele>
<time>2011-09-30T14:26:36Z</time>
</trkpt>
<trkpt lat="51.23371275" lon="6.8273359">
<ele>84</ele>
<time>2011-09-30T14:26:40Z</time>
</trkpt>
<trkpt lat="51.23373802" lon="6.82733179">
<ele>83.5</ele>
<time>2011-09-30T14:26:44Z</time>
</trkpt>
<trkpt lat="51.23378081" lon="6.82731813">
<ele>86</ele>
<time>2011-09-30T14:26:48Z</time>
</trkpt>
<trkpt lat="51.23383257" lon="6.82727655">
<ele>90</ele>
<time>2011-09-30T14:26:52Z</time>
</trkpt>
<trkpt lat="51.23388337" lon="6.82726063">
<ele>90.5</ele>
<time>2011-09-30T14:26:56Z</time>
</trkpt>
<trkpt lat="51.23384636" lon="6.82729214">
<ele>85.5</ele>
<time>2011-09-30T14:27:00Z</time>
</trkpt>
<trkpt lat="51.23374594" lon="6.8273053">
<ele>84</ele>
<time>2011-09-30T14:27:04Z</time>
</trkpt>
<trkpt lat="51.23371334" lon="6.82725015">
<ele>86.5</ele>
<time>2011-09-30T14:27:08Z</time>
</trkpt>
<trkpt lat="51.23371895" lon="6.82726189">
<ele>86.5</ele>
<time>2011-09-30T14:27:12Z</time>
</trkpt>
<trkpt lat="51.23372025" lon="6.82727379">
<ele>87</ele>
<time>2011-09-30T14:27:16Z</time>
</trkpt>
<trkpt lat="51.23372767" lon="6.82729005">
<ele>88</ele>
<time>2011-09-30T14:27:20Z</time>
</trkpt>
<trkpt lat="51.23373023" lon="6.82729977">
<ele>87.5</ele>
<time>2011-09-30T14:27:24Z</time>
</trkpt>
<trkpt lat="51.23373505" lon="6.82730396">
<ele>87</ele>
<time>2011-09-30T14:27:28Z</time>
</trkpt>
<trkpt lat="51.23373769" lon="6.82730237">
<ele>88</ele>
<time>2011-09-30T14:27:32Z</time>
</trkpt>
<trkpt lat="51.23374096" lon="6.82730949">
<ele>88.5</ele>
<time>2011-09-30T14:27:36Z</time>
</trkpt>
<trkpt lat="51.23374318" lon="6.82731905">
<ele>90</ele>
<time>2011-09-30T14:27:40Z</time>
</trkpt>
<trkpt lat="51.23375068" lon="6.82733263">
<ele>90.5</ele>
<time>2011-09-30T14:27:45Z</time>
</trkpt>
<trkpt lat="51.2337656" lon="6.82733925">
<ele>91.5</ele>
<time>2011-09-30T14:27:49Z</time>
</trkpt>
<trkpt lat="51.23377008" lon="6.82734537">
<ele>91.5</ele>
<time>2011-09-30T14:27:53Z</time>
</trkpt>
<trkpt lat="51.23377025" lon="6.82735065">
<ele>0</ele>
<time>2011-09-30T14:27:57Z</time>
</trkpt>
<trkpt lat="51.23377172" lon="6.8273597">
<ele>90</ele>
<time>2011-09-30T14:28:01Z</time>
</trkpt>
<trkpt lat="51.23376916" lon="6.82736146">
<ele>90</ele>
<time>2011-09-30T14:28:05Z</time>
</trkpt>
<trkpt lat="51.23376623" lon="6.82736163">
<ele>89.5</ele>
<time>2011-09-30T14:28:09Z</time>
</trkpt>
<trkpt lat="51.23376543" lon="6.82736071">
<ele>90</ele>
<time>2011-09-30T14:28:13Z</time>
</trkpt>
<trkpt lat="51.23376254" lon="6.82736188">
<ele>0</ele>
<time>2011-09-30T14:28:17Z</time>
</trkpt>
<trkpt lat="51.23376539" lon="6.82736356">
<ele>0</ele>
<time>2011-09-30T14:28:21Z</time>
</trkpt>
<trkpt lat="51.23377004" lon="6.82736624">
<ele>91</ele>
<time>2011-09-30T14:28:25Z</time>
</trkpt>
<trkpt lat="51.2337739" lon="6.82736867">
<ele>91.5</ele>
<time>2011-09-30T14:28:29Z</time>
</trkpt>
<trkpt lat="51.23377901" lon="6.82736892">
<ele>92</ele>
<time>2011-09-30T14:28:33Z</time>
</trkpt>
<trkpt lat="51.23377943" lon="6.82737152">
<ele>92.5</ele>
<time>2011-09-30T14:28:37Z</time>
</trkpt>
<trkpt lat="51.23378241" lon="6.82737395">
<ele>93.5</ele>
<time>2011-09-30T14:28:41Z</time>
</trkpt>
<trkpt lat="51.23378655" lon="6.82737697">
<ele>94</ele>
<time>2011-09-30T14:28:45Z</time>
</trkpt>
<trkpt lat="51.23378928" lon="6.82738275">
<ele>94.5</ele>
<time>2011-09-30T14:28:49Z</time>
</trkpt>
<trkpt lat="51.23378924" lon="6.82738728">
<ele>95</ele>
<time>2011-09-30T14:28:53Z</time>
</trkpt>
<trkpt lat="51.23378836" lon="6.82739164">
<ele>0</ele>
<time>2011-09-30T14:28:57Z</time>
</trkpt>
<trkpt lat="51.23378831" lon="6.82739549">
<ele>0</ele>
<time>2011-09-30T14:29:01Z</time>
</trkpt>
<trkpt lat="51.23378848" lon="6.82739818">
<ele>94.5</ele>
<time>2011-09-30T14:29:05Z</time>
</trkpt>
<trkpt lat="51.23378773" lon="6.82739616">
<ele>94.5</ele>
<time>2011-09-30T14:29:09Z</time>
</trkpt>
<trkpt lat="51.23379146" lon="6.82739256">
<ele>0</ele>
<time>2011-09-30T14:29:13Z</time>
</trkpt>
<trkpt lat="51.23379397" lon="6.82738946">
<ele>95</ele>
<time>2011-09-30T14:29:17Z</time>
</trkpt>
<trkpt lat="51.23379657" lon="6.8273882">
<ele>95</ele>
<time>2011-09-30T14:29:21Z</time>
</trkpt>
<trkpt lat="51.23379691" lon="6.82738443">
<ele>0</ele>
<time>2011-09-30T14:29:25Z</time>
</trkpt>
<trkpt lat="51.23379632" lon="6.82737831">
<ele>95</ele>
<time>2011-09-30T14:29:29Z</time>
</trkpt>
<trkpt lat="51.23379556" lon="6.8273732">
<ele>0</ele>
<time>2011-09-30T14:29:33Z</time>
</trkpt>
<trkpt lat="51.23379728" lon="6.82737211">
<ele>0</ele>
<time>2011-09-30T14:29:37Z</time>
</trkpt>
<trkpt lat="51.23379963" lon="6.82737244">
<ele>94.5</ele>
<time>2011-09-30T14:29:41Z</time>
</trkpt>
<trkpt lat="51.23380558" lon="6.82737303">
<ele>0</ele>
<time>2011-09-30T14:29:45Z</time>
</trkpt>
<trkpt lat="51.23380772" lon="6.82737278">
<ele>0</ele>
<time>2011-09-30T14:29:49Z</time>
</trkpt>
<trkpt lat="51.23380797" lon="6.82737202">
<ele>94</ele>
<time>2011-09-30T14:29:53Z</time>
</trkpt>
<trkpt lat="51.23380944" lon="6.82737295">
<ele>0</ele>
<time>2011-09-30T14:29:57Z</time>
</trkpt>
<trkpt lat="51.23381396" lon="6.82737219">
<ele>94.5</ele>
<time>2011-09-30T14:30:01Z</time>
</trkpt>
<trkpt lat="51.23381711" lon="6.82736909">
<ele>94.5</ele>
<time>2011-09-30T14:30:05Z</time>
</trkpt>
<trkpt lat="51.23382293" lon="6.82736473">
<ele>94.5</ele>
<time>2011-09-30T14:30:09Z</time>
</trkpt>
<trkpt lat="51.23382792" lon="6.82736222">
<ele>0</ele>
<time>2011-09-30T14:30:13Z</time>
</trkpt>
<trkpt lat="51.23383106" lon="6.82736138">
<ele>94</ele>
<time>2011-09-30T14:30:17Z</time>
</trkpt>
<trkpt lat="51.23383265" lon="6.82736138">
<ele>93.5</ele>
<time>2011-09-30T14:30:21Z</time>
</trkpt>
<trkpt lat="51.23383446" lon="6.82736373">
<ele>0</ele>
<time>2011-09-30T14:30:25Z</time>
</trkpt>
<trkpt lat="51.2338337" lon="6.82736523">
<ele>0</ele>
<time>2011-09-30T14:30:29Z</time>
</trkpt>
<trkpt lat="51.23383211" lon="6.82736574">
<ele>93</ele>
<time>2011-09-30T14:30:33Z</time>
</trkpt>
<trkpt lat="51.23382796" lon="6.82736658">
<ele>92.5</ele>
<time>2011-09-30T14:30:37Z</time>
</trkpt>
<trkpt lat="51.23382394" lon="6.82736875">
<ele>0</ele>
<time>2011-09-30T14:30:41Z</time>
</trkpt>
<trkpt lat="51.23381895" lon="6.82736993">
<ele>0</ele>
<time>2011-09-30T14:30:45Z</time>
</trkpt>
<trkpt lat="51.23381753" lon="6.82737186">
<ele>92</ele>
<time>2011-09-30T14:30:48Z</time>
</trkpt>
<trkpt lat="51.23381635" lon="6.82737621">
<ele>92</ele>
<time>2011-09-30T14:30:52Z</time>
</trkpt>
<trkpt lat="51.23381803" lon="6.82737881">
<ele>92</ele>
<time>2011-09-30T14:30:56Z</time>
</trkpt>
<trkpt lat="51.23382075" lon="6.82738108">
<ele>0</ele>
<time>2011-09-30T14:31:00Z</time>
</trkpt>
<trkpt lat="51.23382281" lon="6.82738443">
<ele>92.5</ele>
<time>2011-09-30T14:31:04Z</time>
</trkpt>
<trkpt lat="51.23382184" lon="6.82738611">
<ele>0</ele>
<time>2011-09-30T14:31:08Z</time>
</trkpt>
<trkpt lat="51.23381685" lon="6.82738493">
<ele>0</ele>
<time>2011-09-30T14:31:12Z</time>
</trkpt>
<trkpt lat="51.23381099" lon="6.8273846">
<ele>92</ele>
<time>2011-09-30T14:31:16Z</time>
</trkpt>
<trkpt lat="51.23380365" lon="6.82738393">
<ele>0</ele>
<time>2011-09-30T14:31:20Z</time>
</trkpt>
<trkpt lat="51.23380089" lon="6.82738309">
<ele>0</ele>
<time>2011-09-30T14:31:24Z</time>
</trkpt>
<trkpt lat="51.23380642" lon="6.827383">
<ele>93.5</ele>
<time>2011-09-30T14:31:28Z</time>
</trkpt>
<trkpt lat="51.233814" lon="6.82738158">
<ele>94</ele>
<time>2011-09-30T14:31:32Z</time>
</trkpt>
<trkpt lat="51.23382255" lon="6.82738108">
<ele>95</ele>
<time>2011-09-30T14:31:36Z</time>
</trkpt>
<trkpt lat="51.23382964" lon="6.82738384">
<ele>96</ele>
<time>2011-09-30T14:31:40Z</time>
</trkpt>
<trkpt lat="51.23383316" lon="6.82738376">
<ele>96.5</ele>
<time>2011-09-30T14:31:44Z</time>
</trkpt>
<trkpt lat="51.23383676" lon="6.82738954">
<ele>96.5</ele>
<time>2011-09-30T14:31:48Z</time>
</trkpt>
<trkpt lat="51.23383626" lon="6.82739432">
<ele>0</ele>
<time>2011-09-30T14:31:52Z</time>
</trkpt>
<trkpt lat="51.233835" lon="6.82739474">
<ele>0</ele>
<time>2011-09-30T14:31:56Z</time>
</trkpt>
<trkpt lat="51.23383433" lon="6.82739667">
<ele>96.5</ele>
<time>2011-09-30T14:32:00Z</time>
</trkpt>
<trkpt lat="51.23383391" lon="6.82739667">
<ele>0</ele>
<time>2011-09-30T14:32:04Z</time>
</trkpt>
<trkpt lat="51.23383261" lon="6.82739373">
<ele>0</ele>
<time>2011-09-30T14:32:08Z</time>
</trkpt>
<trkpt lat="51.23383035" lon="6.82738946">
<ele>97</ele>
<time>2011-09-30T14:32:12Z</time>
</trkpt>
<trkpt lat="51.23382872" lon="6.82739155">
<ele>0</ele>
<time>2011-09-30T14:32:17Z</time>
</trkpt>
<trkpt lat="51.2338254" lon="6.82739625">
<ele>96.5</ele>
<time>2011-09-30T14:32:21Z</time>
</trkpt>
<trkpt lat="51.23382176" lon="6.82739734">
<ele>96.5</ele>
<time>2011-09-30T14:32:25Z</time>
</trkpt>
<trkpt lat="51.23382046" lon="6.82739809">
<ele>0</ele>
<time>2011-09-30T14:32:29Z</time>
</trkpt>
<trkpt lat="51.23382058" lon="6.82739901">
<ele>96.5</ele>
<time>2011-09-30T14:32:33Z</time>
</trkpt>
<trkpt lat="51.23381623" lon="6.82739935">
<ele>0</ele>
<time>2011-09-30T14:32:37Z</time>
</trkpt>
<trkpt lat="51.23381476" lon="6.82739893">
<ele>0</ele>
<time>2011-09-30T14:32:41Z</time>
</trkpt>
<trkpt lat="51.23393877" lon="6.8273882">
<ele>96.5</ele>
<time>2011-09-30T14:32:45Z</time>
</trkpt>
<trkpt lat="51.23399422" lon="6.82736691">
<ele>94.5</ele>
<time>2011-09-30T14:32:49Z</time>
</trkpt>
<trkpt lat="51.23399899" lon="6.82736934">
<ele>95</ele>
<time>2011-09-30T14:32:53Z</time>
</trkpt>
<trkpt lat="51.23399799" lon="6.8273825">
<ele>97</ele>
<time>2011-09-30T14:32:57Z</time>
</trkpt>
<trkpt lat="51.23398835" lon="6.82739206">
<ele>97.5</ele>
<time>2011-09-30T14:33:01Z</time>
</trkpt>
<trkpt lat="51.23396329" lon="6.82738669">
<ele>94.5</ele>
<time>2011-09-30T14:33:05Z</time>
</trkpt>
<trkpt lat="51.23396509" lon="6.82737538">
<ele>93.5</ele>
<time>2011-09-30T14:33:09Z</time>
</trkpt>
<trkpt lat="51.23397008" lon="6.82738728">
<ele>95.5</ele>
<time>2011-09-30T14:33:13Z</time>
</trkpt>
<trkpt lat="51.2339469" lon="6.82736482">
<ele>93</ele>
<time>2011-09-30T14:33:17Z</time>
</trkpt>
<trkpt lat="51.23393412" lon="6.82733556">
<ele>90</ele>
<time>2011-09-30T14:33:21Z</time>
</trkpt>
<trkpt lat="51.23393718" lon="6.82732408">
<ele>88.5</ele>
<time>2011-09-30T14:33:25Z</time>
</trkpt>
<trkpt lat="51.23393931" lon="6.82732643">
<ele>88.5</ele>
<time>2011-09-30T14:33:29Z</time>
</trkpt>
<trkpt lat="51.23394015" lon="6.82732785">
<ele>88.5</ele>
<time>2011-09-30T14:33:33Z</time>
</trkpt>
<trkpt lat="51.23394422" lon="6.8273276">
<ele>0</ele>
<time>2011-09-30T14:33:37Z</time>
</trkpt>
<trkpt lat="51.2339477" lon="6.82732592">
<ele>89.5</ele>
<time>2011-09-30T14:33:41Z</time>
</trkpt>
<trkpt lat="51.23394912" lon="6.82732525">
<ele>91</ele>
<time>2011-09-30T14:33:45Z</time>
</trkpt>
<trkpt lat="51.2339492" lon="6.82732039">
<ele>91</ele>
<time>2011-09-30T14:33:50Z</time>
</trkpt>
<trkpt lat="51.23394522" lon="6.82730111">
<ele>90</ele>
<time>2011-09-30T14:33:54Z</time>
</trkpt>
<trkpt lat="51.23393357" lon="6.8272815">
<ele>88.5</ele>
<time>2011-09-30T14:33:58Z</time>
</trkpt>
<trkpt lat="51.23392519" lon="6.82726197">
<ele>86.5</ele>
<time>2011-09-30T14:34:02Z</time>
</trkpt>
<trkpt lat="51.23391513" lon="6.82725082">
<ele>84.5</ele>
<time>2011-09-30T14:34:06Z</time>
</trkpt>
<trkpt lat="51.23390964" lon="6.82724202">
<ele>82.5</ele>
<time>2011-09-30T14:34:10Z</time>
</trkpt>
<trkpt lat="51.23390491" lon="6.82723498">
<ele>81.5</ele>
<time>2011-09-30T14:34:14Z</time>
</trkpt>
<trkpt lat="51.23390382" lon="6.82723112">
<ele>81.5</ele>
<time>2011-09-30T14:34:18Z</time>
</trkpt>
<trkpt lat="51.23390411" lon="6.82722509">
<ele>0</ele>
<time>2011-09-30T14:34:22Z</time>
</trkpt>
<trkpt lat="51.2339075" lon="6.82721537">
<ele>80</ele>
<time>2011-09-30T14:34:26Z</time>
</trkpt>
<trkpt lat="51.23391035" lon="6.82720397">
<ele>79</ele>
<time>2011-09-30T14:34:30Z</time>
</trkpt>
<trkpt lat="51.23390922" lon="6.82719818">
<ele>0</ele>
<time>2011-09-30T14:34:34Z</time>
</trkpt>
<trkpt lat="51.23390947" lon="6.82719508">
<ele>0</ele>
<time>2011-09-30T14:34:38Z</time>
</trkpt>
<trkpt lat="51.2339078" lon="6.82719584">
<ele>79</ele>
<time>2011-09-30T14:34:42Z</time>
</trkpt>
<trkpt lat="51.23390713" lon="6.82719667">
<ele>79</ele>
<time>2011-09-30T14:34:46Z</time>
</trkpt>
<trkpt lat="51.23390398" lon="6.82720413">
<ele>0</ele>
<time>2011-09-30T14:34:50Z</time>
</trkpt>
<trkpt lat="51.233906" lon="6.82721168">
<ele>81</ele>
<time>2011-09-30T14:34:54Z</time>
</trkpt>
<trkpt lat="51.23390809" lon="6.82721604">
<ele>82</ele>
<time>2011-09-30T14:34:58Z</time>
</trkpt>
<trkpt lat="51.23390654" lon="6.8272188">
<ele>83.5</ele>
<time>2011-09-30T14:35:02Z</time>
</trkpt>
<trkpt lat="51.23391077" lon="6.82722249">
<ele>84</ele>
<time>2011-09-30T14:35:06Z</time>
</trkpt>
<trkpt lat="51.23404991" lon="6.82720237">
<ele>85.5</ele>
<time>2011-09-30T14:35:10Z</time>
</trkpt>
<trkpt lat="51.23409069" lon="6.82718896">
<ele>0</ele>
<time>2011-09-30T14:35:14Z</time>
</trkpt>
<trkpt lat="51.234108" lon="6.82720874">
<ele>0</ele>
<time>2011-09-30T14:35:18Z</time>
</trkpt>
<trkpt lat="51.23411881" lon="6.82724353">
<ele>86.5</ele>
<time>2011-09-30T14:35:22Z</time>
</trkpt>
<trkpt lat="51.23411936" lon="6.8272421">
<ele>87.5</ele>
<time>2011-09-30T14:35:26Z</time>
</trkpt>
<trkpt lat="51.23412271" lon="6.82723967">
<ele>89.5</ele>
<time>2011-09-30T14:35:30Z</time>
</trkpt>
<trkpt lat="51.23413143" lon="6.82724722">
<ele>91</ele>
<time>2011-09-30T14:35:34Z</time>
</trkpt>
<trkpt lat="51.23413382" lon="6.82724336">
<ele>92.5</ele>
<time>2011-09-30T14:35:38Z</time>
</trkpt>
<trkpt lat="51.23412958" lon="6.82723515">
<ele>93</ele>
<time>2011-09-30T14:35:42Z</time>
</trkpt>
<trkpt lat="51.23412707" lon="6.82723339">
<ele>94</ele>
<time>2011-09-30T14:35:46Z</time>
</trkpt>
<trkpt lat="51.23412258" lon="6.82722978">
<ele>95.5</ele>
<time>2011-09-30T14:35:50Z</time>
</trkpt>
<trkpt lat="51.23412225" lon="6.82722978">
<ele>97</ele>
<time>2011-09-30T14:35:54Z</time>
</trkpt>
<trkpt lat="51.23412418" lon="6.82722802">
<ele>99.5</ele>
<time>2011-09-30T14:35:58Z</time>
</trkpt>
<trkpt lat="51.23412665" lon="6.82721402">
<ele>101</ele>
<time>2011-09-30T14:36:02Z</time>
</trkpt>
<trkpt lat="51.23412397" lon="6.82720137">
<ele>102.5</ele>
<time>2011-09-30T14:36:06Z</time>
</trkpt>
<trkpt lat="51.23412154" lon="6.82718921">
<ele>102.5</ele>
<time>2011-09-30T14:36:10Z</time>
</trkpt>
<trkpt lat="51.23411785" lon="6.82718209">
<ele>0</ele>
<time>2011-09-30T14:36:14Z</time>
</trkpt>
<trkpt lat="51.23411492" lon="6.82717614">
<ele>103</ele>
<time>2011-09-30T14:36:18Z</time>
</trkpt>
<trkpt lat="51.23411328" lon="6.82717429">
<ele>102.5</ele>
<time>2011-09-30T14:36:22Z</time>
</trkpt>
<trkpt lat="51.23411404" lon="6.82718628">
<ele>101.5</ele>
<time>2011-09-30T14:36:26Z</time>
</trkpt>
<trkpt lat="51.23411776" lon="6.82720103">
<ele>101</ele>
<time>2011-09-30T14:36:30Z</time>
</trkpt>
<trkpt lat="51.23412376" lon="6.82722182">
<ele>101.5</ele>
<time>2011-09-30T14:36:34Z</time>
</trkpt>
<trkpt lat="51.23413134" lon="6.82723372">
<ele>0</ele>
<time>2011-09-30T14:36:38Z</time>
</trkpt>
<trkpt lat="51.23413155" lon="6.82723431">
<ele>0</ele>
<time>2011-09-30T14:36:42Z</time>
</trkpt>
<trkpt lat="51.23412179" lon="6.82722903">
<ele>102</ele>
<time>2011-09-30T14:36:46Z</time>
</trkpt>
<trkpt lat="51.23410942" lon="6.82722115">
<ele>103</ele>
<time>2011-09-30T14:36:51Z</time>
</trkpt>
<trkpt lat="51.23410871" lon="6.82722148">
<ele>102.5</ele>
<time>2011-09-30T14:36:55Z</time>
</trkpt>
<trkpt lat="51.23410561" lon="6.82722283">
<ele>103.5</ele>
<time>2011-09-30T14:36:59Z</time>
</trkpt>
<trkpt lat="51.23410494" lon="6.82722417">
<ele>102.5</ele>
<time>2011-09-30T14:37:03Z</time>
</trkpt>
<trkpt lat="51.23410285" lon="6.82722786">
<ele>102</ele>
<time>2011-09-30T14:37:07Z</time>
</trkpt>
<trkpt lat="51.23409836" lon="6.82724034">
<ele>0</ele>
<time>2011-09-30T14:37:11Z</time>
</trkpt>
<trkpt lat="51.23409807" lon="6.827253">
<ele>0</ele>
<time>2011-09-30T14:37:15Z</time>
</trkpt>
<trkpt lat="51.23409497" lon="6.82726884">
<ele>100.5</ele>
<time>2011-09-30T14:37:19Z</time>
</trkpt>
<trkpt lat="51.23409409" lon="6.82727588">
<ele>99.5</ele>
<time>2011-09-30T14:37:23Z</time>
</trkpt>
<trkpt lat="51.23409396" lon="6.82727572">
<ele>98.5</ele>
<time>2011-09-30T14:37:27Z</time>
</trkpt>
<trkpt lat="51.23409627" lon="6.82728125">
<ele>98</ele>
<time>2011-09-30T14:37:31Z</time>
</trkpt>
<trkpt lat="51.23409547" lon="6.82728209">
<ele>97.5</ele>
<time>2011-09-30T14:37:35Z</time>
</trkpt>
<trkpt lat="51.23409589" lon="6.82727924">
<ele>0</ele>
<time>2011-09-30T14:37:39Z</time>
</trkpt>
<trkpt lat="51.23409631" lon="6.8272784">
<ele>0</ele>
<time>2011-09-30T14:37:43Z</time>
</trkpt>
<trkpt lat="51.23409832" lon="6.82727781">
<ele>96.5</ele>
<time>2011-09-30T14:37:47Z</time>
</trkpt>
<trkpt lat="51.23410033" lon="6.82727865">
<ele>0</ele>
<time>2011-09-30T14:37:51Z</time>
</trkpt>
<trkpt lat="51.23410398" lon="6.82727873">
<ele>0</ele>
<time>2011-09-30T14:37:55Z</time>
</trkpt>
<trkpt lat="51.23410825" lon="6.82728016">
<ele>95.5</ele>
<time>2011-09-30T14:37:59Z</time>
</trkpt>
<trkpt lat="51.23411194" lon="6.82728577">
<ele>95</ele>
<time>2011-09-30T14:38:03Z</time>
</trkpt>
<trkpt lat="51.23411676" lon="6.82728929">
<ele>0</ele>
<time>2011-09-30T14:38:07Z</time>
</trkpt>
<trkpt lat="51.23412334" lon="6.82729298">
<ele>0</ele>
<time>2011-09-30T14:38:11Z</time>
</trkpt>
<trkpt lat="51.23412912" lon="6.82729416">
<ele>94.5</ele>
<time>2011-09-30T14:38:15Z</time>
</trkpt>
<trkpt lat="51.23413444" lon="6.82729499">
<ele>0</ele>
<time>2011-09-30T14:38:20Z</time>
</trkpt>
<trkpt lat="51.23413788" lon="6.82729525">
<ele>94.5</ele>
<time>2011-09-30T14:38:24Z</time>
</trkpt>
<trkpt lat="51.23413859" lon="6.82729558">
<ele>94</ele>
<time>2011-09-30T14:38:28Z</time>
</trkpt>
<trkpt lat="51.23413729" lon="6.8272934">
<ele>94</ele>
<time>2011-09-30T14:38:32Z</time>
</trkpt>
<trkpt lat="51.23413306" lon="6.82728929">
<ele>0</ele>
<time>2011-09-30T14:38:36Z</time>
</trkpt>
<trkpt lat="51.23413444" lon="6.827282">
<ele>93.5</ele>
<time>2011-09-30T14:38:40Z</time>
</trkpt>
<trkpt lat="51.23413855" lon="6.82727966">
<ele>93</ele>
<time>2011-09-30T14:38:44Z</time>
</trkpt>
<trkpt lat="51.2341432" lon="6.82728326">
<ele>92.5</ele>
<time>2011-09-30T14:38:48Z</time>
</trkpt>
<trkpt lat="51.23414882" lon="6.82728359">
<ele>92</ele>
<time>2011-09-30T14:38:52Z</time>
</trkpt>
<trkpt lat="51.23415213" lon="6.82728712">
<ele>91.5</ele>
<time>2011-09-30T14:38:56Z</time>
</trkpt>
<trkpt lat="51.2341546" lon="6.82729483">
<ele>91</ele>
<time>2011-09-30T14:39:00Z</time>
</trkpt>
<trkpt lat="51.23415682" lon="6.82729851">
<ele>91.5</ele>
<time>2011-09-30T14:39:04Z</time>
</trkpt>
<trkpt lat="51.23415997" lon="6.82729994">
<ele>91.5</ele>
<time>2011-09-30T14:39:08Z</time>
</trkpt>
<trkpt lat="51.23416621" lon="6.82729885">
<ele>0</ele>
<time>2011-09-30T14:39:12Z</time>
</trkpt>
<trkpt lat="51.23417049" lon="6.82729768">
<ele>92</ele>
<time>2011-09-30T14:39:16Z</time>
</trkpt>
<trkpt lat="51.23417443" lon="6.82729667">
<ele>92</ele>
<time>2011-09-30T14:39:20Z</time>
</trkpt>
<trkpt lat="51.23417824" lon="6.8272955">
<ele>0</ele>
<time>2011-09-30T14:39:24Z</time>
</trkpt>
<trkpt lat="51.23418138" lon="6.82729374">
<ele>92.5</ele>
<time>2011-09-30T14:39:28Z</time>
</trkpt>
<trkpt lat="51.23418126" lon="6.82729458">
<ele>92</ele>
<time>2011-09-30T14:39:32Z</time>
</trkpt>
<trkpt lat="51.23418214" lon="6.82729214">
<ele>92.5</ele>
<time>2011-09-30T14:39:36Z</time>
</trkpt>
<trkpt lat="51.23418226" lon="6.8272882">
<ele>92.5</ele>
<time>2011-09-30T14:39:40Z</time>
</trkpt>
<trkpt lat="51.23407129" lon="6.82731503">
<ele>0</ele>
<time>2011-09-30T14:39:44Z</time>
</trkpt>
<trkpt lat="51.23398948" lon="6.82732685">
<ele>84</ele>
<time>2011-09-30T14:39:48Z</time>
</trkpt>
<trkpt lat="51.2339347" lon="6.82732232">
<ele>84</ele>
<time>2011-09-30T14:39:53Z</time>
</trkpt>
<trkpt lat="51.23393148" lon="6.82732634">
<ele>85.5</ele>
<time>2011-09-30T14:39:57Z</time>
</trkpt>
<trkpt lat="51.23393177" lon="6.82732651">
<ele>86</ele>
<time>2011-09-30T14:40:01Z</time>
</trkpt>
<trkpt lat="51.23392942" lon="6.82732441">
<ele>86.5</ele>
<time>2011-09-30T14:40:05Z</time>
</trkpt>
<trkpt lat="51.23392582" lon="6.82732517">
<ele>0</ele>
<time>2011-09-30T14:40:09Z</time>
</trkpt>
<trkpt lat="51.23392502" lon="6.82732509">
<ele>0</ele>
<time>2011-09-30T14:40:13Z</time>
</trkpt>
<trkpt lat="51.23391279" lon="6.82733179">
<ele>87</ele>
<time>2011-09-30T14:40:17Z</time>
</trkpt>
<trkpt lat="51.23391056" lon="6.82733053">
<ele>87.5</ele>
<time>2011-09-30T14:40:21Z</time>
</trkpt>
<trkpt lat="51.23388441" lon="6.82732961">
<ele>87</ele>
<time>2011-09-30T14:40:26Z</time>
</trkpt>
<trkpt lat="51.23387544" lon="6.82733213">
<ele>0</ele>
<time>2011-09-30T14:40:30Z</time>
</trkpt>
<trkpt lat="51.23386878" lon="6.82733489">
<ele>0</ele>
<time>2011-09-30T14:40:32Z</time>
</trkpt>
<trkpt lat="51.2338591" lon="6.82734">
<ele>87</ele>
<time>2011-09-30T14:40:35Z</time>
</trkpt>
<trkpt lat="51.23378433" lon="6.82741972">
<ele>87.5</ele>
<time>2011-09-30T14:40:40Z</time>
</trkpt>
<trkpt lat="51.23382398" lon="6.8274089">
<ele>0</ele>
<time>2011-09-30T14:40:44Z</time>
</trkpt>
<trkpt lat="51.23384493" lon="6.82744059">
<ele>88.5</ele>
<time>2011-09-30T14:40:48Z</time>
</trkpt>
<trkpt lat="51.23389971" lon="6.82731637">
<ele>90</ele>
<time>2011-09-30T14:40:52Z</time>
</trkpt>
<trkpt lat="51.23381304" lon="6.82730229">
<ele>88.5</ele>
<time>2011-09-30T14:40:56Z</time>
</trkpt>
<trkpt lat="51.23370877" lon="6.8273069">
<ele>86</ele>
<time>2011-09-30T14:41:00Z</time>
</trkpt>
<trkpt lat="51.23364825" lon="6.82731587">
<ele>84</ele>
<time>2011-09-30T14:41:04Z</time>
</trkpt>
<trkpt lat="51.23361929" lon="6.82730966">
<ele>85.5</ele>
<time>2011-09-30T14:41:08Z</time>
</trkpt>
<trkpt lat="51.23360299" lon="6.82726306">
<ele>84.5</ele>
<time>2011-09-30T14:41:12Z</time>
</trkpt>
<trkpt lat="51.23361322" lon="6.8270743">
<ele>84</ele>
<time>2011-09-30T14:41:16Z</time>
</trkpt>
<trkpt lat="51.23359742" lon="6.82683407">
<ele>0</ele>
<time>2011-09-30T14:41:20Z</time>
</trkpt>
<trkpt lat="51.23356469" lon="6.82650383">
<ele>84</ele>
<time>2011-09-30T14:41:25Z</time>
</trkpt>
<trkpt lat="51.23354272" lon="6.82623326">
<ele>84</ele>
<time>2011-09-30T14:41:29Z</time>
</trkpt>
<trkpt lat="51.23352127" lon="6.82595213">
<ele>0</ele>
<time>2011-09-30T14:41:33Z</time>
</trkpt>
<trkpt lat="51.23350304" lon="6.8256658">
<ele>84</ele>
<time>2011-09-30T14:41:37Z</time>
</trkpt>
<trkpt lat="51.23348631" lon="6.82537696">
<ele>0</ele>
<time>2011-09-30T14:41:41Z</time>
</trkpt>
<trkpt lat="51.23347265" lon="6.82515409">
<ele>0</ele>
<time>2011-09-30T14:41:45Z</time>
</trkpt>
<trkpt lat="51.23348124" lon="6.82514654">
<ele>80.5</ele>
<time>2011-09-30T14:41:49Z</time>
</trkpt>
<trkpt lat="51.23348698" lon="6.82515015">
<ele>80.5</ele>
<time>2011-09-30T14:41:53Z</time>
</trkpt>
<trkpt lat="51.23348267" lon="6.82514546">
<ele>0</ele>
<time>2011-09-30T14:41:57Z</time>
</trkpt>
<trkpt lat="51.23348334" lon="6.8251478">
<ele>81</ele>
<time>2011-09-30T14:42:01Z</time>
</trkpt>
<trkpt lat="51.23348703" lon="6.8251478">
<ele>81</ele>
<time>2011-09-30T14:42:05Z</time>
</trkpt>
<trkpt lat="51.23348686" lon="6.82514789">
<ele>81.5</ele>
<time>2011-09-30T14:42:09Z</time>
</trkpt>
<trkpt lat="51.23348992" lon="6.82514738">
<ele>0</ele>
<time>2011-09-30T14:42:13Z</time>
</trkpt>
<trkpt lat="51.2334913" lon="6.82515241">
<ele>0</ele>
<time>2011-09-30T14:42:17Z</time>
</trkpt>
<trkpt lat="51.23349889" lon="6.82515384">
<ele>81.5</ele>
<time>2011-09-30T14:42:21Z</time>
</trkpt>
<trkpt lat="51.23350237" lon="6.82515618">
<ele>82</ele>
<time>2011-09-30T14:42:25Z</time>
</trkpt>
<trkpt lat="51.23349973" lon="6.82515727">
<ele>82.5</ele>
<time>2011-09-30T14:42:29Z</time>
</trkpt>
<trkpt lat="51.23349398" lon="6.82514302">
<ele>0</ele>
<time>2011-09-30T14:42:33Z</time>
</trkpt>
<trkpt lat="51.23348958" lon="6.82514001">
<ele>0</ele>
<time>2011-09-30T14:42:37Z</time>
</trkpt>
<trkpt lat="51.23349009" lon="6.82513657">
<ele>80</ele>
<time>2011-09-30T14:42:41Z</time>
</trkpt>
<trkpt lat="51.23348925" lon="6.82513984">
<ele>79.5</ele>
<time>2011-09-30T14:42:45Z</time>
</trkpt>
<trkpt lat="51.23348975" lon="6.82513791">
<ele>0</ele>
<time>2011-09-30T14:42:49Z</time>
</trkpt>
<trkpt lat="51.23350094" lon="6.82500238">
<ele>0</ele>
<time>2011-09-30T14:42:54Z</time>
</trkpt>
<trkpt lat="51.2334584" lon="6.82495158">
<ele>81</ele>
<time>2011-09-30T14:42:58Z</time>
</trkpt>
<trkpt lat="51.23343016" lon="6.82491093">
<ele>80.5</ele>
<time>2011-09-30T14:43:02Z</time>
</trkpt>
<trkpt lat="51.2334227" lon="6.82489073">
<ele>80.5</ele>
<time>2011-09-30T14:43:06Z</time>
</trkpt>
<trkpt lat="51.23342542" lon="6.82488612">
<ele>79</ele>
<time>2011-09-30T14:43:10Z</time>
</trkpt>
<trkpt lat="51.2334294" lon="6.82486801">
<ele>78.5</ele>
<time>2011-09-30T14:43:14Z</time>
</trkpt>
<trkpt lat="51.23342911" lon="6.82482091">
<ele>80</ele>
<time>2011-09-30T14:43:18Z</time>
</trkpt>
<trkpt lat="51.23343556" lon="6.82483264">
<ele>81.5</ele>
<time>2011-09-30T14:43:22Z</time>
</trkpt>
<trkpt lat="51.23342907" lon="6.82483507">
<ele>81</ele>
<time>2011-09-30T14:43:26Z</time>
</trkpt>
<trkpt lat="51.23341708" lon="6.82482728">
<ele>81.5</ele>
<time>2011-09-30T14:43:30Z</time>
</trkpt>
<trkpt lat="51.23342228" lon="6.8248334">
<ele>80.5</ele>
<time>2011-09-30T14:43:34Z</time>
</trkpt>
<trkpt lat="51.23342404" lon="6.82483289">
<ele>81</ele>
<time>2011-09-30T14:43:38Z</time>
</trkpt>
<trkpt lat="51.23341482" lon="6.82483038">
<ele>0</ele>
<time>2011-09-30T14:43:42Z</time>
</trkpt>
<trkpt lat="51.23341582" lon="6.824823">
<ele>0</ele>
<time>2011-09-30T14:43:46Z</time>
</trkpt>
<trkpt lat="51.23341557" lon="6.82481554">
<ele>81</ele>
<time>2011-09-30T14:43:50Z</time>
</trkpt>
<trkpt lat="51.23341255" lon="6.82480657">
<ele>83</ele>
<time>2011-09-30T14:43:54Z</time>
</trkpt>
<trkpt lat="51.23341067" lon="6.82480247">
<ele>84.5</ele>
<time>2011-09-30T14:43:58Z</time>
</trkpt>
<trkpt lat="51.23340937" lon="6.82480423">
<ele>85.5</ele>
<time>2011-09-30T14:44:02Z</time>
</trkpt>
<trkpt lat="51.23340874" lon="6.8248044">
<ele>85.5</ele>
<time>2011-09-30T14:44:06Z</time>
</trkpt>
<trkpt lat="51.23340962" lon="6.82480456">
<ele>0</ele>
<time>2011-09-30T14:44:10Z</time>
</trkpt>
<trkpt lat="51.23340908" lon="6.82480473">
<ele>85.5</ele>
<time>2011-09-30T14:44:14Z</time>
</trkpt>
<trkpt lat="51.23341025" lon="6.82480398">
<ele>85</ele>
<time>2011-09-30T14:44:18Z</time>
</trkpt>
<trkpt lat="51.23340413" lon="6.8247992">
<ele>85</ele>
<time>2011-09-30T14:44:22Z</time>
</trkpt>
<trkpt lat="51.23339998" lon="6.82479828">
<ele>85.5</ele>
<time>2011-09-30T14:44:27Z</time>
</trkpt>
<trkpt lat="51.23339897" lon="6.82479979">
<ele>85</ele>
<time>2011-09-30T14:44:31Z</time>
</trkpt>
<trkpt lat="51.23339885" lon="6.82479735">
<ele>0</ele>
<time>2011-09-30T14:44:35Z</time>
</trkpt>
<trkpt lat="51.23340145" lon="6.82479878">
<ele>0</ele>
<time>2011-09-30T14:44:39Z</time>
</trkpt>
<trkpt lat="51.23340514" lon="6.82480297">
<ele>83</ele>
<time>2011-09-30T14:44:43Z</time>
</trkpt>
<trkpt lat="51.23340606" lon="6.82480649">
<ele>82.5</ele>
<time>2011-09-30T14:44:47Z</time>
</trkpt>
<trkpt lat="51.23340874" lon="6.82480741">
<ele>0</ele>
<time>2011-09-30T14:44:51Z</time>
</trkpt>
<trkpt lat="51.23341012" lon="6.82480959">
<ele>0</ele>
<time>2011-09-30T14:44:55Z</time>
</trkpt>
<trkpt lat="51.23340866" lon="6.82481102">
<ele>83</ele>
<time>2011-09-30T14:44:59Z</time>
</trkpt>
<trkpt lat="51.23340778" lon="6.82481202">
<ele>82.5</ele>
<time>2011-09-30T14:45:03Z</time>
</trkpt>
<trkpt lat="51.23340664" lon="6.82481462">
<ele>82</ele>
<time>2011-09-30T14:45:07Z</time>
</trkpt>
<trkpt lat="51.23340329" lon="6.82481932">
<ele>82</ele>
<time>2011-09-30T14:45:11Z</time>
</trkpt>
<trkpt lat="51.23340187" lon="6.82482166">
<ele>0</ele>
<time>2011-09-30T14:45:15Z</time>
</trkpt>
<trkpt lat="51.23340057" lon="6.8248225">
<ele>82.5</ele>
<time>2011-09-30T14:45:19Z</time>
</trkpt>
<trkpt lat="51.23340241" lon="6.82482091">
<ele>0</ele>
<time>2011-09-30T14:45:23Z</time>
</trkpt>
<trkpt lat="51.23340476" lon="6.82481756">
<ele>0</ele>
<time>2011-09-30T14:45:27Z</time>
</trkpt>
<trkpt lat="51.23340639" lon="6.82481621">
<ele>83</ele>
<time>2011-09-30T14:45:31Z</time>
</trkpt>
<trkpt lat="51.23340614" lon="6.82481915">
<ele>83</ele>
<time>2011-09-30T14:45:35Z</time>
</trkpt>
<trkpt lat="51.23342286" lon="6.8246894">
<ele>0</ele>
<time>2011-09-30T14:45:39Z</time>
</trkpt>
<trkpt lat="51.23341075" lon="6.82448337">
<ele>85</ele>
<time>2011-09-30T14:45:43Z</time>
</trkpt>
<trkpt lat="51.23339357" lon="6.82425697">
<ele>86</ele>
<time>2011-09-30T14:45:47Z</time>
</trkpt>
<trkpt lat="51.23337668" lon="6.82404231">
<ele>87</ele>
<time>2011-09-30T14:45:51Z</time>
</trkpt>
<trkpt lat="51.2333548" lon="6.8237813">
<ele>86.5</ele>
<time>2011-09-30T14:45:56Z</time>
</trkpt>
<trkpt lat="51.23330589" lon="6.82361458">
<ele>86</ele>
<time>2011-09-30T14:46:00Z</time>
</trkpt>
<trkpt lat="51.23329156" lon="6.82355775">
<ele>86.5</ele>
<time>2011-09-30T14:46:04Z</time>
</trkpt>
<trkpt lat="51.23335443" lon="6.82355507">
<ele>86</ele>
<time>2011-09-30T14:46:08Z</time>
</trkpt>
<trkpt lat="51.23333934" lon="6.82333312">
<ele>87</ele>
<time>2011-09-30T14:46:12Z</time>
</trkpt>
<trkpt lat="51.23332475" lon="6.82311712">
<ele>86.5</ele>
<time>2011-09-30T14:46:16Z</time>
</trkpt>
<trkpt lat="51.23328569" lon="6.82293364">
<ele>93.5</ele>
<time>2011-09-30T14:46:20Z</time>
</trkpt>
<trkpt lat="51.23327614" lon="6.82272493">
<ele>94</ele>
<time>2011-09-30T14:46:24Z</time>
</trkpt>
<trkpt lat="51.23324005" lon="6.82260557">
<ele>103</ele>
<time>2011-09-30T14:46:28Z</time>
</trkpt>
<trkpt lat="51.23322434" lon="6.82244028">
<ele>104</ele>
<time>2011-09-30T14:46:32Z</time>
</trkpt>
<trkpt lat="51.23321985" lon="6.8222604">
<ele>102.5</ele>
<time>2011-09-30T14:46:36Z</time>
</trkpt>
<trkpt lat="51.23321214" lon="6.82212051">
<ele>102</ele>
<time>2011-09-30T14:46:40Z</time>
</trkpt>
<trkpt lat="51.23321516" lon="6.82208321">
<ele>100.5</ele>
<time>2011-09-30T14:46:44Z</time>
</trkpt>
<trkpt lat="51.23315867" lon="6.82198682">
<ele>98.5</ele>
<time>2011-09-30T14:46:48Z</time>
</trkpt>
<trkpt lat="51.23300343" lon="6.82191423">
<ele>96.5</ele>
<time>2011-09-30T14:46:52Z</time>
</trkpt>
<trkpt lat="51.23281145" lon="6.82182739">
<ele>94.5</ele>
<time>2011-09-30T14:46:56Z</time>
</trkpt>
<trkpt lat="51.23260232" lon="6.82172815">
<ele>93.5</ele>
<time>2011-09-30T14:47:00Z</time>
</trkpt>
<trkpt lat="51.23239139" lon="6.82162279">
<ele>91</ele>
<time>2011-09-30T14:47:04Z</time>
</trkpt>
<trkpt lat="51.23219223" lon="6.82155867">
<ele>90</ele>
<time>2011-09-30T14:47:08Z</time>
</trkpt>
<trkpt lat="51.23201387" lon="6.82157661">
<ele>88</ele>
<time>2011-09-30T14:47:12Z</time>
</trkpt>
<trkpt lat="51.2318943" lon="6.82177182">
<ele>86.5</ele>
<time>2011-09-30T14:47:16Z</time>
</trkpt>
<trkpt lat="51.2318018" lon="6.82200484">
<ele>86</ele>
<time>2011-09-30T14:47:20Z</time>
</trkpt>
<trkpt lat="51.23170231" lon="6.82223677">
<ele>86</ele>
<time>2011-09-30T14:47:25Z</time>
</trkpt>
<trkpt lat="51.2315739" lon="6.82254765">
<ele>85</ele>
<time>2011-09-30T14:47:29Z</time>
</trkpt>
<trkpt lat="51.23146757" lon="6.82280296">
<ele>85</ele>
<time>2011-09-30T14:47:33Z</time>
</trkpt>
<trkpt lat="51.23135832" lon="6.82305585">
<ele>0</ele>
<time>2011-09-30T14:47:37Z</time>
</trkpt>
<trkpt lat="51.23125233" lon="6.82331225">
<ele>83.5</ele>
<time>2011-09-30T14:47:41Z</time>
</trkpt>
<trkpt lat="51.23114605" lon="6.82356538">
<ele>82.5</ele>
<time>2011-09-30T14:47:45Z</time>
</trkpt>
<trkpt lat="51.23104584" lon="6.82381885">
<ele>81.5</ele>
<time>2011-09-30T14:47:49Z</time>
</trkpt>
<trkpt lat="51.23094207" lon="6.82406478">
<ele>81</ele>
<time>2011-09-30T14:47:53Z</time>
</trkpt>
<trkpt lat="51.23083482" lon="6.82428857">
<ele>81</ele>
<time>2011-09-30T14:47:57Z</time>
</trkpt>
<trkpt lat="51.23077871" lon="6.82441229">
<ele>80.5</ele>
<time>2011-09-30T14:48:01Z</time>
</trkpt>
<trkpt lat="51.23074145" lon="6.82455411">
<ele>80</ele>
<time>2011-09-30T14:48:05Z</time>
</trkpt>
<trkpt lat="51.23067838" lon="6.82478864">
<ele>78.5</ele>
<time>2011-09-30T14:48:09Z</time>
</trkpt>
<trkpt lat="51.23056815" lon="6.82505342">
<ele>78</ele>
<time>2011-09-30T14:48:13Z</time>
</trkpt>
<trkpt lat="51.23045441" lon="6.82533195">
<ele>78.5</ele>
<time>2011-09-30T14:48:17Z</time>
</trkpt>
<trkpt lat="51.23033765" lon="6.82560847">
<ele>78.5</ele>
<time>2011-09-30T14:48:21Z</time>
</trkpt>
<trkpt lat="51.2302224" lon="6.82588113">
<ele>0</ele>
<time>2011-09-30T14:48:25Z</time>
</trkpt>
<trkpt lat="51.23011256" lon="6.82615447">
<ele>78</ele>
<time>2011-09-30T14:48:29Z</time>
</trkpt>
<trkpt lat="51.2300028" lon="6.82643015">
<ele>0</ele>
<time>2011-09-30T14:48:33Z</time>
</trkpt>
<trkpt lat="51.22989324" lon="6.82669661">
<ele>0</ele>
<time>2011-09-30T14:48:37Z</time>
</trkpt>
<trkpt lat="51.22978843" lon="6.82696567">
<ele>79.5</ele>
<time>2011-09-30T14:48:41Z</time>
</trkpt>
<trkpt lat="51.22968416" lon="6.82723607">
<ele>0</ele>
<time>2011-09-30T14:48:45Z</time>
</trkpt>
<trkpt lat="51.22957368" lon="6.8275089">
<ele>0</ele>
<time>2011-09-30T14:48:49Z</time>
</trkpt>
<trkpt lat="51.22945772" lon="6.8277757">
<ele>80</ele>
<time>2011-09-30T14:48:53Z</time>
</trkpt>
<trkpt lat="51.22932084" lon="6.82811692">
<ele>0</ele>
<time>2011-09-30T14:48:58Z</time>
</trkpt>
<trkpt lat="51.22921092" lon="6.82837768">
<ele>0</ele>
<time>2011-09-30T14:49:02Z</time>
</trkpt>
<trkpt lat="51.2291087" lon="6.82861841">
<ele>79.5</ele>
<time>2011-09-30T14:49:06Z</time>
</trkpt>
<trkpt lat="51.22901687" lon="6.82885101">
<ele>0</ele>
<time>2011-09-30T14:49:10Z</time>
</trkpt>
<trkpt lat="51.22892832" lon="6.82905645">
<ele>0</ele>
<time>2011-09-30T14:49:14Z</time>
</trkpt>
<trkpt lat="51.2288541" lon="6.82918578">
<ele>80</ele>
<time>2011-09-30T14:49:18Z</time>
</trkpt>
<trkpt lat="51.22881562" lon="6.8292955">
<ele>79.5</ele>
<time>2011-09-30T14:49:22Z</time>
</trkpt>
<trkpt lat="51.22879689" lon="6.8294328">
<ele>78</ele>
<time>2011-09-30T14:49:26Z</time>
</trkpt>
<trkpt lat="51.22873331" lon="6.82960169">
<ele>77</ele>
<time>2011-09-30T14:49:30Z</time>
</trkpt>
<trkpt lat="51.22867581" lon="6.82979029">
<ele>76.5</ele>
<time>2011-09-30T14:49:34Z</time>
</trkpt>
<trkpt lat="51.2286904" lon="6.83001081">
<ele>77</ele>
<time>2011-09-30T14:49:38Z</time>
</trkpt>
<trkpt lat="51.22868822" lon="6.83022858">
<ele>77</ele>
<time>2011-09-30T14:49:42Z</time>
</trkpt>
<trkpt lat="51.2286697" lon="6.83043544">
<ele>77</ele>
<time>2011-09-30T14:49:46Z</time>
</trkpt>
<trkpt lat="51.22865335" lon="6.83057374">
<ele>0</ele>
<time>2011-09-30T14:49:50Z</time>
</trkpt>
<trkpt lat="51.22853873" lon="6.83061423">
<ele>77.5</ele>
<time>2011-09-30T14:49:54Z</time>
</trkpt>
<trkpt lat="51.22839171" lon="6.83064449">
<ele>77</ele>
<time>2011-09-30T14:49:58Z</time>
</trkpt>
<trkpt lat="51.22822868" lon="6.83066879">
<ele>77</ele>
<time>2011-09-30T14:50:02Z</time>
</trkpt>
<trkpt lat="51.22805291" lon="6.83070157">
<ele>76.5</ele>
<time>2011-09-30T14:50:06Z</time>
</trkpt>
<trkpt lat="51.22789282" lon="6.83074406">
<ele>75</ele>
<time>2011-09-30T14:50:10Z</time>
</trkpt>
<trkpt lat="51.22784429" lon="6.83096132">
<ele>71.5</ele>
<time>2011-09-30T14:50:14Z</time>
</trkpt>
<trkpt lat="51.22787463" lon="6.83125041">
<ele>70</ele>
<time>2011-09-30T14:50:18Z</time>
</trkpt>
<trkpt lat="51.22791214" lon="6.83155979">
<ele>70.5</ele>
<time>2011-09-30T14:50:22Z</time>
</trkpt>
<trkpt lat="51.22795539" lon="6.83195734">
<ele>0</ele>
<time>2011-09-30T14:50:27Z</time>
</trkpt>
<trkpt lat="51.22797961" lon="6.83227376">
<ele>0</ele>
<time>2011-09-30T14:50:31Z</time>
</trkpt>
<trkpt lat="51.22800635" lon="6.83258054">
<ele>69</ele>
<time>2011-09-30T14:50:35Z</time>
</trkpt>
<trkpt lat="51.22803623" lon="6.83289645">
<ele>69</ele>
<time>2011-09-30T14:50:39Z</time>
</trkpt>
<trkpt lat="51.22805761" lon="6.83322913">
<ele>0</ele>
<time>2011-09-30T14:50:43Z</time>
</trkpt>
<trkpt lat="51.22808564" lon="6.83353507">
<ele>70</ele>
<time>2011-09-30T14:50:47Z</time>
</trkpt>
<trkpt lat="51.22809973" lon="6.8337799">
<ele>71</ele>
<time>2011-09-30T14:50:51Z</time>
</trkpt>
<trkpt lat="51.22804327" lon="6.83379021">
<ele>69.5</ele>
<time>2011-09-30T14:50:55Z</time>
</trkpt>
<trkpt lat="51.22802408" lon="6.83376197">
<ele>70.5</ele>
<time>2011-09-30T14:50:59Z</time>
</trkpt>
<trkpt lat="51.22795904" lon="6.83378401">
<ele>71</ele>
<time>2011-09-30T14:51:03Z</time>
</trkpt>
<trkpt lat="51.22781579" lon="6.83382701">
<ele>72</ele>
<time>2011-09-30T14:51:07Z</time>
</trkpt>
<trkpt lat="51.22765624" lon="6.83386104">
<ele>70.5</ele>
<time>2011-09-30T14:51:11Z</time>
</trkpt>
<trkpt lat="51.2275013" lon="6.83389465">
<ele>71</ele>
<time>2011-09-30T14:51:15Z</time>
</trkpt>
<trkpt lat="51.22735717" lon="6.83391645">
<ele>71.5</ele>
<time>2011-09-30T14:51:19Z</time>
</trkpt>
<trkpt lat="51.22725131" lon="6.83396137">
<ele>72</ele>
<time>2011-09-30T14:51:23Z</time>
</trkpt>
<trkpt lat="51.22714281" lon="6.83395073">
<ele>72</ele>
<time>2011-09-30T14:51:27Z</time>
</trkpt>
<trkpt lat="51.22709821" lon="6.8340721">
<ele>70.5</ele>
<time>2011-09-30T14:51:31Z</time>
</trkpt>
<trkpt lat="51.2269939" lon="6.83415256">
<ele>71</ele>
<time>2011-09-30T14:51:35Z</time>
</trkpt>
<trkpt lat="51.22702835" lon="6.83437192">
<ele>72.5</ele>
<time>2011-09-30T14:51:39Z</time>
</trkpt>
<trkpt lat="51.2270975" lon="6.83459664">
<ele>73.5</ele>
<time>2011-09-30T14:51:43Z</time>
</trkpt>
<trkpt lat="51.2271524" lon="6.83481859">
<ele>73</ele>
<time>2011-09-30T14:51:47Z</time>
</trkpt>
<trkpt lat="51.2271822" lon="6.83509167">
<ele>73</ele>
<time>2011-09-30T14:51:51Z</time>
</trkpt>
<trkpt lat="51.22720399" lon="6.83541932">
<ele>0</ele>
<time>2011-09-30T14:51:55Z</time>
</trkpt>
<trkpt lat="51.22725931" lon="6.83585099">
<ele>72</ele>
<time>2011-09-30T14:52:00Z</time>
</trkpt>
<trkpt lat="51.22730407" lon="6.83618652">
<ele>71.5</ele>
<time>2011-09-30T14:52:04Z</time>
</trkpt>
<trkpt lat="51.22734837" lon="6.83648231">
<ele>0</ele>
<time>2011-09-30T14:52:08Z</time>
</trkpt>
<trkpt lat="51.22739091" lon="6.83668046">
<ele>0</ele>
<time>2011-09-30T14:52:12Z</time>
</trkpt>
<trkpt lat="51.22738056" lon="6.83675012">
<ele>73.5</ele>
<time>2011-09-30T14:52:16Z</time>
</trkpt>
<trkpt lat="51.22737716" lon="6.83676378">
<ele>74.5</ele>
<time>2011-09-30T14:52:20Z</time>
</trkpt>
<trkpt lat="51.22736983" lon="6.83676269">
<ele>75.5</ele>
<time>2011-09-30T14:52:24Z</time>
</trkpt>
<trkpt lat="51.22735734" lon="6.83675841">
<ele>75.5</ele>
<time>2011-09-30T14:52:28Z</time>
</trkpt>
<trkpt lat="51.22734988" lon="6.8367502">
<ele>0</ele>
<time>2011-09-30T14:52:32Z</time>
</trkpt>
<trkpt lat="51.22734644" lon="6.8367321">
<ele>76</ele>
<time>2011-09-30T14:52:36Z</time>
</trkpt>
<trkpt lat="51.22734502" lon="6.83673243">
<ele>76</ele>
<time>2011-09-30T14:52:40Z</time>
</trkpt>
<trkpt lat="51.22734586" lon="6.83673151">
<ele>77</ele>
<time>2011-09-30T14:52:44Z</time>
</trkpt>
<trkpt lat="51.22734158" lon="6.83673528">
<ele>78.5</ele>
<time>2011-09-30T14:52:48Z</time>
</trkpt>
<trkpt lat="51.22733701" lon="6.83673335">
<ele>78.5</ele>
<time>2011-09-30T14:52:52Z</time>
</trkpt>
<trkpt lat="51.22733245" lon="6.83672908">
<ele>81</ele>
<time>2011-09-30T14:52:56Z</time>
</trkpt>
<trkpt lat="51.22732687" lon="6.83672137">
<ele>82</ele>
<time>2011-09-30T14:53:00Z</time>
</trkpt>
<trkpt lat="51.2272664" lon="6.83674777">
<ele>81.5</ele>
<time>2011-09-30T14:53:04Z</time>
</trkpt>
<trkpt lat="51.22715567" lon="6.83675112">
<ele>80</ele>
<time>2011-09-30T14:53:08Z</time>
</trkpt>
<trkpt lat="51.22698523" lon="6.83671768">
<ele>79</ele>
<time>2011-09-30T14:53:12Z</time>
</trkpt>
<trkpt lat="51.22683175" lon="6.83680736">
<ele>79.5</ele>
<time>2011-09-30T14:53:16Z</time>
</trkpt>
<trkpt lat="51.22668289" lon="6.83688733">
<ele>77.5</ele>
<time>2011-09-30T14:53:20Z</time>
</trkpt>
<trkpt lat="51.22651291" lon="6.83699504">
<ele>76.5</ele>
<time>2011-09-30T14:53:24Z</time>
</trkpt>
<trkpt lat="51.22629711" lon="6.83713719">
<ele>76</ele>
<time>2011-09-30T14:53:29Z</time>
</trkpt>
<trkpt lat="51.22611904" lon="6.83725856">
<ele>75.5</ele>
<time>2011-09-30T14:53:33Z</time>
</trkpt>
<trkpt lat="51.22593879" lon="6.83738396">
<ele>76</ele>
<time>2011-09-30T14:53:37Z</time>
</trkpt>
<trkpt lat="51.22575703" lon="6.83752561">
<ele>76.5</ele>
<time>2011-09-30T14:53:41Z</time>
</trkpt>
<trkpt lat="51.22557744" lon="6.83767715">
<ele>77.5</ele>
<time>2011-09-30T14:53:45Z</time>
</trkpt>
<trkpt lat="51.22540352" lon="6.83783926">
<ele>78</ele>
<time>2011-09-30T14:53:49Z</time>
</trkpt>
<trkpt lat="51.22522666" lon="6.83796491">
<ele>78</ele>
<time>2011-09-30T14:53:53Z</time>
</trkpt>
<trkpt lat="51.22506736" lon="6.83814101">
<ele>78.5</ele>
<time>2011-09-30T14:53:57Z</time>
</trkpt>
<trkpt lat="51.22488313" lon="6.83826422">
<ele>77.5</ele>
<time>2011-09-30T14:54:01Z</time>
</trkpt>
<trkpt lat="51.22466491" lon="6.83837201">
<ele>78.5</ele>
<time>2011-09-30T14:54:05Z</time>
</trkpt>
<trkpt lat="51.22445326" lon="6.83845701">
<ele>78.5</ele>
<time>2011-09-30T14:54:09Z</time>
</trkpt>
<trkpt lat="51.22425273" lon="6.83856756">
<ele>79</ele>
<time>2011-09-30T14:54:13Z</time>
</trkpt>
<trkpt lat="51.22405684" lon="6.83866245">
<ele>79</ele>
<time>2011-09-30T14:54:17Z</time>
</trkpt>
<trkpt lat="51.22385957" lon="6.83876714">
<ele>0</ele>
<time>2011-09-30T14:54:21Z</time>
</trkpt>
<trkpt lat="51.22366796" lon="6.83887384">
<ele>79.5</ele>
<time>2011-09-30T14:54:25Z</time>
</trkpt>
<trkpt lat="51.22348335" lon="6.83898842">
<ele>79.5</ele>
<time>2011-09-30T14:54:29Z</time>
</trkpt>
<trkpt lat="51.22329744" lon="6.83909889">
<ele>0</ele>
<time>2011-09-30T14:54:33Z</time>
</trkpt>
<trkpt lat="51.22310202" lon="6.83920895">
<ele>80</ele>
<time>2011-09-30T14:54:37Z</time>
</trkpt>
<trkpt lat="51.22290739" lon="6.8393211">
<ele>80</ele>
<time>2011-09-30T14:54:41Z</time>
</trkpt>
<trkpt lat="51.22273372" lon="6.8394547">
<ele>0</ele>
<time>2011-09-30T14:54:45Z</time>
</trkpt>
<trkpt lat="51.22255874" lon="6.83960977">
<ele>79</ele>
<time>2011-09-30T14:54:49Z</time>
</trkpt>
<trkpt lat="51.22239789" lon="6.8397811">
<ele>79.5</ele>
<time>2011-09-30T14:54:53Z</time>
</trkpt>
<trkpt lat="51.22227447" lon="6.83998771">
<ele>80</ele>
<time>2011-09-30T14:54:57Z</time>
</trkpt>
<trkpt lat="51.22207666" lon="6.84018468">
<ele>79.5</ele>
<time>2011-09-30T14:55:02Z</time>
</trkpt>
<trkpt lat="51.22191925" lon="6.84039298">
<ele>0</ele>
<time>2011-09-30T14:55:06Z</time>
</trkpt>
<trkpt lat="51.22177411" lon="6.84060663">
<ele>0</ele>
<time>2011-09-30T14:55:10Z</time>
</trkpt>
<trkpt lat="51.2216343" lon="6.8408119">
<ele>79</ele>
<time>2011-09-30T14:55:14Z</time>
</trkpt>
<trkpt lat="51.22150577" lon="6.84103964">
<ele>0</ele>
<time>2011-09-30T14:55:18Z</time>
</trkpt>
<trkpt lat="51.22138171" lon="6.84126738">
<ele>77</ele>
<time>2011-09-30T14:55:22Z</time>
</trkpt>
<trkpt lat="51.22127086" lon="6.84151531">
<ele>77</ele>
<time>2011-09-30T14:55:26Z</time>
</trkpt>
<trkpt lat="51.22117342" lon="6.84175109">
<ele>0</ele>
<time>2011-09-30T14:55:30Z</time>
</trkpt>
<trkpt lat="51.22110851" lon="6.84193089">
<ele>77.5</ele>
<time>2011-09-30T14:55:34Z</time>
</trkpt>
<trkpt lat="51.22108294" lon="6.84199283">
<ele>77.5</ele>
<time>2011-09-30T14:55:38Z</time>
</trkpt>
<trkpt lat="51.22103408" lon="6.84208495">
<ele>76.5</ele>
<time>2011-09-30T14:55:42Z</time>
</trkpt>
<trkpt lat="51.22090227" lon="6.8422028">
<ele>77</ele>
<time>2011-09-30T14:55:46Z</time>
</trkpt>
<trkpt lat="51.22083257" lon="6.84245618">
<ele>77</ele>
<time>2011-09-30T14:55:50Z</time>
</trkpt>
<trkpt lat="51.22076984" lon="6.84275525">
<ele>0</ele>
<time>2011-09-30T14:55:54Z</time>
</trkpt>
<trkpt lat="51.22071816" lon="6.84306831">
<ele>75</ele>
<time>2011-09-30T14:55:58Z</time>
</trkpt>
<trkpt lat="51.22067428" lon="6.84339621">
<ele>75.5</ele>
<time>2011-09-30T14:56:02Z</time>
</trkpt>
<trkpt lat="51.22063723" lon="6.84372981">
<ele>76</ele>
<time>2011-09-30T14:56:06Z</time>
</trkpt>
<trkpt lat="51.2206198" lon="6.84407104">
<ele>76.5</ele>
<time>2011-09-30T14:56:10Z</time>
</trkpt>
<trkpt lat="51.22059558" lon="6.84440858">
<ele>0</ele>
<time>2011-09-30T14:56:14Z</time>
</trkpt>
<trkpt lat="51.2205825" lon="6.84474159">
<ele>0</ele>
<time>2011-09-30T14:56:18Z</time>
</trkpt>
<trkpt lat="51.22056737" lon="6.84507058">
<ele>76</ele>
<time>2011-09-30T14:56:22Z</time>
</trkpt>
<trkpt lat="51.2205644" lon="6.84539865">
<ele>75</ele>
<time>2011-09-30T14:56:26Z</time>
</trkpt>
<trkpt lat="51.22053866" lon="6.84579494">
<ele>72.5</ele>
<time>2011-09-30T14:56:31Z</time>
</trkpt>
<trkpt lat="51.22054369" lon="6.84605202">
<ele>69</ele>
<time>2011-09-30T14:56:35Z</time>
</trkpt>
<trkpt lat="51.22053711" lon="6.84617205">
<ele>66</ele>
<time>2011-09-30T14:56:39Z</time>
</trkpt>
<trkpt lat="51.22053074" lon="6.84617892">
<ele>66</ele>
<time>2011-09-30T14:56:43Z</time>
</trkpt>
<trkpt lat="51.22053036" lon="6.84617833">
<ele>0</ele>
<time>2011-09-30T14:56:47Z</time>
</trkpt>
<trkpt lat="51.22052165" lon="6.84618738">
<ele>65</ele>
<time>2011-09-30T14:56:51Z</time>
</trkpt>
<trkpt lat="51.22052261" lon="6.84620541">
<ele>65</ele>
<time>2011-09-30T14:56:55Z</time>
</trkpt>
<trkpt lat="51.22052446" lon="6.84628671">
<ele>0</ele>
<time>2011-09-30T14:56:59Z</time>
</trkpt>
<trkpt lat="51.22052521" lon="6.84652082">
<ele>63</ele>
<time>2011-09-30T14:57:03Z</time>
</trkpt>
<trkpt lat="51.22051737" lon="6.84683564">
<ele>64</ele>
<time>2011-09-30T14:57:07Z</time>
</trkpt>
<trkpt lat="51.22051871" lon="6.84716262">
<ele>65</ele>
<time>2011-09-30T14:57:11Z</time>
</trkpt>
<trkpt lat="51.22051955" lon="6.84749354">
<ele>64</ele>
<time>2011-09-30T14:57:15Z</time>
</trkpt>
<trkpt lat="51.22052244" lon="6.84784046">
<ele>62.5</ele>
<time>2011-09-30T14:57:19Z</time>
</trkpt>
<trkpt lat="51.2205382" lon="6.84815872">
<ele>61</ele>
<time>2011-09-30T14:57:23Z</time>
</trkpt>
<trkpt lat="51.2205488" lon="6.84848051">
<ele>60.5</ele>
<time>2011-09-30T14:57:27Z</time>
</trkpt>
<trkpt lat="51.22054193" lon="6.84872308">
<ele>58.5</ele>
<time>2011-09-30T14:57:31Z</time>
</trkpt>
<trkpt lat="51.22052073" lon="6.84880983">
<ele>59</ele>
<time>2011-09-30T14:57:35Z</time>
</trkpt>
<trkpt lat="51.22049503" lon="6.84885249">
<ele>61</ele>
<time>2011-09-30T14:57:39Z</time>
</trkpt>
<trkpt lat="51.22048795" lon="6.84892609">
<ele>63</ele>
<time>2011-09-30T14:57:43Z</time>
</trkpt>
<trkpt lat="51.22039215" lon="6.84902265">
<ele>65</ele>
<time>2011-09-30T14:57:47Z</time>
</trkpt>
<trkpt lat="51.22026298" lon="6.84902332">
<ele>65</ele>
<time>2011-09-30T14:57:51Z</time>
</trkpt>
<trkpt lat="51.22005649" lon="6.84898778">
<ele>0</ele>
<time>2011-09-30T14:57:55Z</time>
</trkpt>
<trkpt lat="51.21980919" lon="6.8490633">
<ele>67.5</ele>
<time>2011-09-30T14:57:59Z</time>
</trkpt>
<trkpt lat="51.21959243" lon="6.84911619">
<ele>70.5</ele>
<time>2011-09-30T14:58:04Z</time>
</trkpt>
<trkpt lat="51.21950098" lon="6.84930319">
<ele>72</ele>
<time>2011-09-30T14:58:08Z</time>
</trkpt>
<trkpt lat="51.21947357" lon="6.84957317">
<ele>73.5</ele>
<time>2011-09-30T14:58:12Z</time>
</trkpt>
<trkpt lat="51.21945358" lon="6.84987467">
<ele>74.5</ele>
<time>2011-09-30T14:58:16Z</time>
</trkpt>
<trkpt lat="51.21943217" lon="6.85019469">
<ele>75</ele>
<time>2011-09-30T14:58:20Z</time>
</trkpt>
<trkpt lat="51.21940803" lon="6.8505184">
<ele>75.5</ele>
<time>2011-09-30T14:58:24Z</time>
</trkpt>
<trkpt lat="51.21938121" lon="6.85084554">
<ele>76</ele>
<time>2011-09-30T14:58:28Z</time>
</trkpt>
<trkpt lat="51.21934785" lon="6.85116498">
<ele>0</ele>
<time>2011-09-30T14:58:32Z</time>
</trkpt>
<trkpt lat="51.21931549" lon="6.85148148">
<ele>0</ele>
<time>2011-09-30T14:58:36Z</time>
</trkpt>
<trkpt lat="51.2192888" lon="6.8518196">
<ele>77</ele>
<time>2011-09-30T14:58:40Z</time>
</trkpt>
<trkpt lat="51.21926252" lon="6.85216787">
<ele>77.5</ele>
<time>2011-09-30T14:58:44Z</time>
</trkpt>
<trkpt lat="51.21924119" lon="6.85249787">
<ele>77</ele>
<time>2011-09-30T14:58:48Z</time>
</trkpt>
<trkpt lat="51.21925849" lon="6.85280976">
<ele>77</ele>
<time>2011-09-30T14:58:52Z</time>
</trkpt>
<trkpt lat="51.21927744" lon="6.8531074">
<ele>0</ele>
<time>2011-09-30T14:58:56Z</time>
</trkpt>
<trkpt lat="51.21928192" lon="6.85341326">
<ele>77.5</ele>
<time>2011-09-30T14:59:00Z</time>
</trkpt>
<trkpt lat="51.21927182" lon="6.8537233">
<ele>78</ele>
<time>2011-09-30T14:59:04Z</time>
</trkpt>
<trkpt lat="51.21925594" lon="6.85404567">
<ele>78</ele>
<time>2011-09-30T14:59:08Z</time>
</trkpt>
<trkpt lat="51.21923846" lon="6.85437391">
<ele>79</ele>
<time>2011-09-30T14:59:12Z</time>
</trkpt>
<trkpt lat="51.21919936" lon="6.85469946">
<ele>79</ele>
<time>2011-09-30T14:59:16Z</time>
</trkpt>
<trkpt lat="51.21916085" lon="6.85502174">
<ele>0</ele>
<time>2011-09-30T14:59:20Z</time>
</trkpt>
<trkpt lat="51.21904895" lon="6.85528787">
<ele>79.5</ele>
<time>2011-09-30T14:59:24Z</time>
</trkpt>
<trkpt lat="51.21884996" lon="6.85525987">
<ele>80.5</ele>
<time>2011-09-30T14:59:28Z</time>
</trkpt>
<trkpt lat="51.21860462" lon="6.85519022">
<ele>82</ele>
<time>2011-09-30T14:59:33Z</time>
</trkpt>
<trkpt lat="51.21840941" lon="6.85511227">
<ele>82.5</ele>
<time>2011-09-30T14:59:37Z</time>
</trkpt>
<trkpt lat="51.21822366" lon="6.8550515">
<ele>82.5</ele>
<time>2011-09-30T14:59:41Z</time>
</trkpt>
<trkpt lat="51.21803495" lon="6.85498964">
<ele>0</ele>
<time>2011-09-30T14:59:45Z</time>
</trkpt>
<trkpt lat="51.21786014" lon="6.85494781">
<ele>82.5</ele>
<time>2011-09-30T14:59:49Z</time>
</trkpt>
<trkpt lat="51.21775864" lon="6.8551442">
<ele>82.5</ele>
<time>2011-09-30T14:59:53Z</time>
</trkpt>
<trkpt lat="51.21772352" lon="6.85539633">
<ele>0</ele>
<time>2011-09-30T14:59:57Z</time>
</trkpt>
<trkpt lat="51.21764049" lon="6.85549063">
<ele>81.5</ele>
<time>2011-09-30T15:00:01Z</time>
</trkpt>
<trkpt lat="51.21749268" lon="6.85542315">
<ele>82</ele>
<time>2011-09-30T15:00:05Z</time>
</trkpt>
<trkpt lat="51.21732018" lon="6.85537001">
<ele>82</ele>
<time>2011-09-30T15:00:09Z</time>
</trkpt>
<trkpt lat="51.21714081" lon="6.85531436">
<ele>81.5</ele>
<time>2011-09-30T15:00:13Z</time>
</trkpt>
<trkpt lat="51.21695582" lon="6.85526348">
<ele>82</ele>
<time>2011-09-30T15:00:17Z</time>
</trkpt>
<trkpt lat="51.21676752" lon="6.85525359">
<ele>82.5</ele>
<time>2011-09-30T15:00:21Z</time>
</trkpt>
<trkpt lat="51.21656782" lon="6.85527219">
<ele>82.5</ele>
<time>2011-09-30T15:00:25Z</time>
</trkpt>
<trkpt lat="51.2163703" lon="6.85529516">
<ele>0</ele>
<time>2011-09-30T15:00:29Z</time>
</trkpt>
<trkpt lat="51.21616972" lon="6.85533238">
<ele>0</ele>
<time>2011-09-30T15:00:33Z</time>
</trkpt>
<trkpt lat="51.21597111" lon="6.85534939">
<ele>82.5</ele>
<time>2011-09-30T15:00:37Z</time>
</trkpt>
<trkpt lat="51.215772" lon="6.85536993">
<ele>0</ele>
<time>2011-09-30T15:00:41Z</time>
</trkpt>
<trkpt lat="51.21557729" lon="6.85538032">
<ele>0</ele>
<time>2011-09-30T15:00:45Z</time>
</trkpt>
<trkpt lat="51.21538455" lon="6.85539382">
<ele>81.5</ele>
<time>2011-09-30T15:00:49Z</time>
</trkpt>
<trkpt lat="51.2151877" lon="6.85542324">
<ele>82.5</ele>
<time>2011-09-30T15:00:53Z</time>
</trkpt>
<trkpt lat="51.21499734" lon="6.85546104">
<ele>82.5</ele>
<time>2011-09-30T15:00:57Z</time>
</trkpt>
<trkpt lat="51.21479886" lon="6.85548375">
<ele>0</ele>
<time>2011-09-30T15:01:01Z</time>
</trkpt>
<trkpt lat="51.21460143" lon="6.85550773">
<ele>83</ele>
<time>2011-09-30T15:01:05Z</time>
</trkpt>
<trkpt lat="51.21439347" lon="6.85552751">
<ele>83</ele>
<time>2011-09-30T15:01:09Z</time>
</trkpt>
<trkpt lat="51.21420136" lon="6.85554855">
<ele>0</ele>
<time>2011-09-30T15:01:13Z</time>
</trkpt>
<trkpt lat="51.21402291" lon="6.85557319">
<ele>82.5</ele>
<time>2011-09-30T15:01:17Z</time>
</trkpt>
<trkpt lat="51.21384026" lon="6.85560437">
<ele>0</ele>
<time>2011-09-30T15:01:21Z</time>
</trkpt>
<trkpt lat="51.21365301" lon="6.85564904">
<ele>0</ele>
<time>2011-09-30T15:01:25Z</time>
</trkpt>
<trkpt lat="51.21346107" lon="6.85568324">
<ele>82.5</ele>
<time>2011-09-30T15:01:29Z</time>
</trkpt>
<trkpt lat="51.21327683" lon="6.85569003">
<ele>0</ele>
<time>2011-09-30T15:01:33Z</time>
</trkpt>
<trkpt lat="51.21312428" lon="6.85568643">
<ele>0</ele>
<time>2011-09-30T15:01:37Z</time>
</trkpt>
<trkpt lat="51.21300547" lon="6.85569238">
<ele>82</ele>
<time>2011-09-30T15:01:41Z</time>
</trkpt>
<trkpt lat="51.21294072" lon="6.85567369">
<ele>82.5</ele>
<time>2011-09-30T15:01:45Z</time>
</trkpt>
<trkpt lat="51.21285497" lon="6.85569255">
<ele>82.5</ele>
<time>2011-09-30T15:01:49Z</time>
</trkpt>
<trkpt lat="51.21283486" lon="6.85591844">
<ele>81</ele>
<time>2011-09-30T15:01:53Z</time>
</trkpt>
<trkpt lat="51.21281063" lon="6.85619286">
<ele>79.5</ele>
<time>2011-09-30T15:01:57Z</time>
</trkpt>
<trkpt lat="51.21277371" lon="6.85649486">
<ele>79</ele>
<time>2011-09-30T15:02:01Z</time>
</trkpt>
<trkpt lat="51.2127411" lon="6.85680441">
<ele>0</ele>
<time>2011-09-30T15:02:05Z</time>
</trkpt>
<trkpt lat="51.21270703" lon="6.85711135">
<ele>0</ele>
<time>2011-09-30T15:02:09Z</time>
</trkpt>
<trkpt lat="51.21266516" lon="6.85740455">
<ele>79</ele>
<time>2011-09-30T15:02:13Z</time>
</trkpt>
<trkpt lat="51.21261672" lon="6.85769054">
<ele>79</ele>
<time>2011-09-30T15:02:17Z</time>
</trkpt>
<trkpt lat="51.21255511" lon="6.85794929">
<ele>0</ele>
<time>2011-09-30T15:02:21Z</time>
</trkpt>
<trkpt lat="51.21248676" lon="6.85818817">
<ele>79</ele>
<time>2011-09-30T15:02:25Z</time>
</trkpt>
<trkpt lat="51.21242138" lon="6.85839571">
<ele>80</ele>
<time>2011-09-30T15:02:29Z</time>
</trkpt>
<trkpt lat="51.21235105" lon="6.85865823">
<ele>0</ele>
<time>2011-09-30T15:02:33Z</time>
</trkpt>
<trkpt lat="51.21226275" lon="6.85901916">
<ele>0</ele>
<time>2011-09-30T15:02:38Z</time>
</trkpt>
<trkpt lat="51.21218756" lon="6.8592935">
<ele>80.5</ele>
<time>2011-09-30T15:02:42Z</time>
</trkpt>
<trkpt lat="51.2121146" lon="6.85956113">
<ele>81</ele>
<time>2011-09-30T15:02:46Z</time>
</trkpt>
<trkpt lat="51.21203757" lon="6.85982935">
<ele>81</ele>
<time>2011-09-30T15:02:50Z</time>
</trkpt>
<trkpt lat="51.21196712" lon="6.86010025">
<ele>0</ele>
<time>2011-09-30T15:02:54Z</time>
</trkpt>
<trkpt lat="51.21188225" lon="6.8603725">
<ele>82</ele>
<time>2011-09-30T15:02:58Z</time>
</trkpt>
<trkpt lat="51.21179688" lon="6.86063678">
<ele>82.5</ele>
<time>2011-09-30T15:03:02Z</time>
</trkpt>
<trkpt lat="51.21171005" lon="6.86090257">
<ele>82</ele>
<time>2011-09-30T15:03:06Z</time>
</trkpt>
<trkpt lat="51.21162107" lon="6.86116626">
<ele>83</ele>
<time>2011-09-30T15:03:10Z</time>
</trkpt>
<trkpt lat="51.21153449" lon="6.86141755">
<ele>83.5</ele>
<time>2011-09-30T15:03:14Z</time>
</trkpt>
<trkpt lat="51.21144929" lon="6.8616432">
<ele>0</ele>
<time>2011-09-30T15:03:18Z</time>
</trkpt>
<trkpt lat="51.21137544" lon="6.86186129">
<ele>0</ele>
<time>2011-09-30T15:03:22Z</time>
</trkpt>
<trkpt lat="51.21131413" lon="6.86193413">
<ele>83</ele>
<time>2011-09-30T15:03:26Z</time>
</trkpt>
<trkpt lat="51.21128504" lon="6.86194947">
<ele>82</ele>
<time>2011-09-30T15:03:30Z</time>
</trkpt>
<trkpt lat="51.21129368" lon="6.86194452">
<ele>83</ele>
<time>2011-09-30T15:03:34Z</time>
</trkpt>
<trkpt lat="51.21129791" lon="6.86194293">
<ele>83.5</ele>
<time>2011-09-30T15:03:38Z</time>
</trkpt>
<trkpt lat="51.2112972" lon="6.86194059">
<ele>84</ele>
<time>2011-09-30T15:03:42Z</time>
</trkpt>
<trkpt lat="51.21129078" lon="6.86193891">
<ele>84.5</ele>
<time>2011-09-30T15:03:46Z</time>
</trkpt>
<trkpt lat="51.21127926" lon="6.86194771">
<ele>85.5</ele>
<time>2011-09-30T15:03:50Z</time>
</trkpt>
<trkpt lat="51.21122209" lon="6.86205458">
<ele>86</ele>
<time>2011-09-30T15:03:54Z</time>
</trkpt>
<trkpt lat="51.21111242" lon="6.8620524">
<ele>86.5</ele>
<time>2011-09-30T15:03:58Z</time>
</trkpt>
<trkpt lat="51.21101213" lon="6.86205709">
<ele>86</ele>
<time>2011-09-30T15:04:02Z</time>
</trkpt>
<trkpt lat="51.21090182" lon="6.86231249">
<ele>86.5</ele>
<time>2011-09-30T15:04:07Z</time>
</trkpt>
<trkpt lat="51.21082517" lon="6.86258608">
<ele>86.5</ele>
<time>2011-09-30T15:04:11Z</time>
</trkpt>
<trkpt lat="51.21073632" lon="6.86286712">
<ele>0</ele>
<time>2011-09-30T15:04:15Z</time>
</trkpt>
<trkpt lat="51.21063779" lon="6.86315135">
<ele>86.5</ele>
<time>2011-09-30T15:04:19Z</time>
</trkpt>
<trkpt lat="51.21053675" lon="6.86344028">
<ele>86.5</ele>
<time>2011-09-30T15:04:23Z</time>
</trkpt>
<trkpt lat="51.21044731" lon="6.86371705">
<ele>0</ele>
<time>2011-09-30T15:04:27Z</time>
</trkpt>
<trkpt lat="51.2103728" lon="6.86397563">
<ele>0</ele>
<time>2011-09-30T15:04:31Z</time>
</trkpt>
<trkpt lat="51.21028709" lon="6.86418434">
<ele>87</ele>
<time>2011-09-30T15:04:35Z</time>
</trkpt>
<trkpt lat="51.21024317" lon="6.86423136">
<ele>85.5</ele>
<time>2011-09-30T15:04:39Z</time>
</trkpt>
<trkpt lat="51.21023844" lon="6.86422122">
<ele>84.5</ele>
<time>2011-09-30T15:04:43Z</time>
</trkpt>
<trkpt lat="51.21024514" lon="6.86421066">
<ele>81</ele>
<time>2011-09-30T15:04:47Z</time>
</trkpt>
<trkpt lat="51.21025461" lon="6.8642094">
<ele>78.5</ele>
<time>2011-09-30T15:04:51Z</time>
</trkpt>
<trkpt lat="51.21026454" lon="6.86421711">
<ele>77</ele>
<time>2011-09-30T15:04:55Z</time>
</trkpt>
<trkpt lat="51.21026555" lon="6.86421795">
<ele>75.5</ele>
<time>2011-09-30T15:04:59Z</time>
</trkpt>
<trkpt lat="51.21027536" lon="6.86422021">
<ele>77</ele>
<time>2011-09-30T15:05:03Z</time>
</trkpt>
<trkpt lat="51.21027247" lon="6.8642151">
<ele>77</ele>
<time>2011-09-30T15:05:07Z</time>
</trkpt>
<trkpt lat="51.2102645" lon="6.86421158">
<ele>77</ele>
<time>2011-09-30T15:05:11Z</time>
</trkpt>
<trkpt lat="51.21025805" lon="6.86420454">
<ele>0</ele>
<time>2011-09-30T15:05:15Z</time>
</trkpt>
<trkpt lat="51.21025222" lon="6.86420294">
<ele>77.5</ele>
<time>2011-09-30T15:05:19Z</time>
</trkpt>
<trkpt lat="51.21025373" lon="6.86422708">
<ele>81</ele>
<time>2011-09-30T15:05:23Z</time>
</trkpt>
<trkpt lat="51.21023936" lon="6.86438425">
<ele>79.5</ele>
<time>2011-09-30T15:05:27Z</time>
</trkpt>
<trkpt lat="51.21022716" lon="6.86464593">
<ele>79.5</ele>
<time>2011-09-30T15:05:31Z</time>
</trkpt>
<trkpt lat="51.21018596" lon="6.86493142">
<ele>79</ele>
<time>2011-09-30T15:05:35Z</time>
</trkpt>
<trkpt lat="51.21019795" lon="6.8653029">
<ele>79.5</ele>
<time>2011-09-30T15:05:40Z</time>
</trkpt>
<trkpt lat="51.21013714" lon="6.86554447">
<ele>79.5</ele>
<time>2011-09-30T15:05:44Z</time>
</trkpt>
<trkpt lat="51.2100547" lon="6.86579433">
<ele>80</ele>
<time>2011-09-30T15:05:48Z</time>
</trkpt>
<trkpt lat="51.20996615" lon="6.8660483">
<ele>80.5</ele>
<time>2011-09-30T15:05:52Z</time>
</trkpt>
<trkpt lat="51.20987789" lon="6.86629876">
<ele>81</ele>
<time>2011-09-30T15:05:56Z</time>
</trkpt>
<trkpt lat="51.20983514" lon="6.86656555">
<ele>0</ele>
<time>2011-09-30T15:06:00Z</time>
</trkpt>
<trkpt lat="51.20978426" lon="6.86684467">
<ele>0</ele>
<time>2011-09-30T15:06:04Z</time>
</trkpt>
<trkpt lat="51.20968146" lon="6.86710862">
<ele>80.5</ele>
<time>2011-09-30T15:06:08Z</time>
</trkpt>
<trkpt lat="51.20956658" lon="6.8673698">
<ele>0</ele>
<time>2011-09-30T15:06:12Z</time>
</trkpt>
<trkpt lat="51.20947346" lon="6.86761924">
<ele>80.5</ele>
<time>2011-09-30T15:06:16Z</time>
</trkpt>
<trkpt lat="51.20943264" lon="6.86778436">
<ele>80.5</ele>
<time>2011-09-30T15:06:20Z</time>
</trkpt>
<trkpt lat="51.20940934" lon="6.86791244">
<ele>0</ele>
<time>2011-09-30T15:06:24Z</time>
</trkpt>
<trkpt lat="51.2095357" lon="6.86799919">
<ele>81.5</ele>
<time>2011-09-30T15:06:28Z</time>
</trkpt>
<trkpt lat="51.20970644" lon="6.86809466">
<ele>81</ele>
<time>2011-09-30T15:06:32Z</time>
</trkpt>
<trkpt lat="51.20989205" lon="6.8681696">
<ele>82</ele>
<time>2011-09-30T15:06:36Z</time>
</trkpt>
<trkpt lat="51.21007247" lon="6.86819131">
<ele>0</ele>
<time>2011-09-30T15:06:40Z</time>
</trkpt>
<trkpt lat="51.2101547" lon="6.86839314">
<ele>0</ele>
<time>2011-09-30T15:06:44Z</time>
</trkpt>
<trkpt lat="51.21013999" lon="6.8685954">
<ele>79</ele>
<time>2011-09-30T15:06:48Z</time>
</trkpt>
<trkpt lat="51.21015851" lon="6.86861996">
<ele>80.5</ele>
<time>2011-09-30T15:06:52Z</time>
</trkpt>
<trkpt lat="51.21025356" lon="6.86856388">
<ele>82</ele>
<time>2011-09-30T15:06:56Z</time>
</trkpt>
<trkpt lat="51.21038591" lon="6.86866404">
<ele>83</ele>
<time>2011-09-30T15:07:00Z</time>
</trkpt>
<trkpt lat="51.21049794" lon="6.86878902">
<ele>84</ele>
<time>2011-09-30T15:07:04Z</time>
</trkpt>
<trkpt lat="51.21051462" lon="6.86882489">
<ele>82.5</ele>
<time>2011-09-30T15:07:09Z</time>
</trkpt>
<trkpt lat="51.21052887" lon="6.86883814">
<ele>83</ele>
<time>2011-09-30T15:07:13Z</time>
</trkpt>
<trkpt lat="51.21051307" lon="6.86883059">
<ele>84</ele>
<time>2011-09-30T15:07:17Z</time>
</trkpt>
<trkpt lat="51.21046638" lon="6.86875893">
<ele>83</ele>
<time>2011-09-30T15:07:21Z</time>
</trkpt>
<trkpt lat="51.21038453" lon="6.86862817">
<ele>81.5</ele>
<time>2011-09-30T15:07:25Z</time>
</trkpt>
<trkpt lat="51.21023383" lon="6.86859934">
<ele>80</ele>
<time>2011-09-30T15:07:29Z</time>
</trkpt>
<trkpt lat="51.21007268" lon="6.86871719">
<ele>79</ele>
<time>2011-09-30T15:07:33Z</time>
</trkpt>
<trkpt lat="51.2099545" lon="6.86885012">
<ele>77.5</ele>
<time>2011-09-30T15:07:37Z</time>
</trkpt>
<trkpt lat="51.20981293" lon="6.8690248">
<ele>77</ele>
<time>2011-09-30T15:07:41Z</time>
</trkpt>
<trkpt lat="51.2096864" lon="6.86920862">
<ele>75.5</ele>
<time>2011-09-30T15:07:45Z</time>
</trkpt>
<trkpt lat="51.20954953" lon="6.8694128">
<ele>74.5</ele>
<time>2011-09-30T15:07:49Z</time>
</trkpt>
<trkpt lat="51.20940796" lon="6.86962117">
<ele>72.5</ele>
<time>2011-09-30T15:07:53Z</time>
</trkpt>
<trkpt lat="51.20922087" lon="6.86981128">
<ele>71.5</ele>
<time>2011-09-30T15:07:57Z</time>
</trkpt>
<trkpt lat="51.20905261" lon="6.8699987">
<ele>70</ele>
<time>2011-09-30T15:08:01Z</time>
</trkpt>
<trkpt lat="51.20888539" lon="6.87018159">
<ele>70</ele>
<time>2011-09-30T15:08:05Z</time>
</trkpt>
<trkpt lat="51.20871041" lon="6.87029433">
<ele>0</ele>
<time>2011-09-30T15:08:09Z</time>
</trkpt>
<trkpt lat="51.20854408" lon="6.87043422">
<ele>70</ele>
<time>2011-09-30T15:08:13Z</time>
</trkpt>
<trkpt lat="51.20836391" lon="6.87059549">
<ele>69</ele>
<time>2011-09-30T15:08:17Z</time>
</trkpt>
<trkpt lat="51.20816136" lon="6.87073412">
<ele>68.5</ele>
<time>2011-09-30T15:08:21Z</time>
</trkpt>
<trkpt lat="51.20796388" lon="6.87082314">
<ele>68.5</ele>
<time>2011-09-30T15:08:25Z</time>
</trkpt>
<trkpt lat="51.20789142" lon="6.87087712">
<ele>68</ele>
<time>2011-09-30T15:08:29Z</time>
</trkpt>
<trkpt lat="51.20788937" lon="6.87090134">
<ele>69</ele>
<time>2011-09-30T15:08:33Z</time>
</trkpt>
<trkpt lat="51.20790931" lon="6.87090914">
<ele>70</ele>
<time>2011-09-30T15:08:37Z</time>
</trkpt>
<trkpt lat="51.20794636" lon="6.87090788">
<ele>72.5</ele>
<time>2011-09-30T15:08:42Z</time>
</trkpt>
<trkpt lat="51.20796916" lon="6.87091383">
<ele>74.5</ele>
<time>2011-09-30T15:08:46Z</time>
</trkpt>
<trkpt lat="51.20795986" lon="6.87091618">
<ele>77</ele>
<time>2011-09-30T15:08:50Z</time>
</trkpt>
<trkpt lat="51.20796036" lon="6.8709228">
<ele>78.5</ele>
<time>2011-09-30T15:08:54Z</time>
</trkpt>
<trkpt lat="51.20796178" lon="6.87093521">
<ele>80.5</ele>
<time>2011-09-30T15:08:58Z</time>
</trkpt>
<trkpt lat="51.20796602" lon="6.87093009">
<ele>85</ele>
<time>2011-09-30T15:09:02Z</time>
</trkpt>
<trkpt lat="51.207977" lon="6.87092783">
<ele>87.5</ele>
<time>2011-09-30T15:09:06Z</time>
</trkpt>
<trkpt lat="51.20799657" lon="6.87094929">
<ele>94.5</ele>
<time>2011-09-30T15:09:10Z</time>
</trkpt>
<trkpt lat="51.20800294" lon="6.87094459">
<ele>100</ele>
<time>2011-09-30T15:09:14Z</time>
</trkpt>
<trkpt lat="51.20800835" lon="6.87093101">
<ele>100.5</ele>
<time>2011-09-30T15:09:18Z</time>
</trkpt>
<trkpt lat="51.20804246" lon="6.87093688">
<ele>104</ele>
<time>2011-09-30T15:09:22Z</time>
</trkpt>
<trkpt lat="51.20804782" lon="6.87093093">
<ele>105.5</ele>
<time>2011-09-30T15:09:26Z</time>
</trkpt>
<trkpt lat="51.20805315" lon="6.87093697">
<ele>107.5</ele>
<time>2011-09-30T15:09:30Z</time>
</trkpt>
<trkpt lat="51.20805155" lon="6.87093537">
<ele>108.5</ele>
<time>2011-09-30T15:09:34Z</time>
</trkpt>
<trkpt lat="51.20805482" lon="6.87092699">
<ele>109.5</ele>
<time>2011-09-30T15:09:38Z</time>
</trkpt>
<trkpt lat="51.20805373" lon="6.8709254">
<ele>109</ele>
<time>2011-09-30T15:09:42Z</time>
</trkpt>
<trkpt lat="51.20806103" lon="6.87093789">
<ele>109</ele>
<time>2011-09-30T15:09:46Z</time>
</trkpt>
<trkpt lat="51.20806212" lon="6.87093998">
<ele>108.5</ele>
<time>2011-09-30T15:09:50Z</time>
</trkpt>
<trkpt lat="51.20805499" lon="6.87093504">
<ele>110</ele>
<time>2011-09-30T15:09:54Z</time>
</trkpt>
<trkpt lat="51.20804979" lon="6.87093504">
<ele>109</ele>
<time>2011-09-30T15:09:58Z</time>
</trkpt>
<trkpt lat="51.2080384" lon="6.87094451">
<ele>108.5</ele>
<time>2011-09-30T15:10:02Z</time>
</trkpt>
<trkpt lat="51.20802557" lon="6.87093831">
<ele>108.5</ele>
<time>2011-09-30T15:10:06Z</time>
</trkpt>
<trkpt lat="51.20802251" lon="6.87093244">
<ele>108.5</ele>
<time>2011-09-30T15:10:11Z</time>
</trkpt>
<trkpt lat="51.20802599" lon="6.87092657">
<ele>0</ele>
<time>2011-09-30T15:10:15Z</time>
</trkpt>
<trkpt lat="51.20802142" lon="6.87091408">
<ele>108.5</ele>
<time>2011-09-30T15:10:19Z</time>
</trkpt>
<trkpt lat="51.20802113" lon="6.87090822">
<ele>0</ele>
<time>2011-09-30T15:10:23Z</time>
</trkpt>
<trkpt lat="51.20801706" lon="6.87090553">
<ele>0</ele>
<time>2011-09-30T15:10:27Z</time>
</trkpt>
<trkpt lat="51.20802809" lon="6.87089145">
<ele>109.5</ele>
<time>2011-09-30T15:10:31Z</time>
</trkpt>
<trkpt lat="51.20803693" lon="6.87088307">
<ele>109</ele>
<time>2011-09-30T15:10:35Z</time>
</trkpt>
<trkpt lat="51.20802888" lon="6.87088072">
<ele>108</ele>
<time>2011-09-30T15:10:39Z</time>
</trkpt>
<trkpt lat="51.20802783" lon="6.87088014">
<ele>108</ele>
<time>2011-09-30T15:10:43Z</time>
</trkpt>
<trkpt lat="51.2080257" lon="6.87088047">
<ele>0</ele>
<time>2011-09-30T15:10:47Z</time>
</trkpt>
<trkpt lat="51.20803278" lon="6.87087544">
<ele>0</ele>
<time>2011-09-30T15:10:51Z</time>
</trkpt>
<trkpt lat="51.20804141" lon="6.87087134">
<ele>108</ele>
<time>2011-09-30T15:10:55Z</time>
</trkpt>
<trkpt lat="51.20804376" lon="6.87086916">
<ele>0</ele>
<time>2011-09-30T15:10:59Z</time>
</trkpt>
<trkpt lat="51.20804799" lon="6.87087092">
<ele>0</ele>
<time>2011-09-30T15:11:03Z</time>
</trkpt>
<trkpt lat="51.20805026" lon="6.87087402">
<ele>109</ele>
<time>2011-09-30T15:11:07Z</time>
</trkpt>
<trkpt lat="51.2080521" lon="6.87087301">
<ele>109</ele>
<time>2011-09-30T15:11:11Z</time>
</trkpt>
<trkpt lat="51.20805101" lon="6.87087595">
<ele>0</ele>
<time>2011-09-30T15:11:15Z</time>
</trkpt>
<trkpt lat="51.20804975" lon="6.8708772">
<ele>109</ele>
<time>2011-09-30T15:11:19Z</time>
</trkpt>
<trkpt lat="51.20804803" lon="6.87088089">
<ele>109</ele>
<time>2011-09-30T15:11:23Z</time>
</trkpt>
<trkpt lat="51.2080446" lon="6.87088617">
<ele>0</ele>
<time>2011-09-30T15:11:27Z</time>
</trkpt>
<trkpt lat="51.20803764" lon="6.87088265">
<ele>109.5</ele>
<time>2011-09-30T15:11:31Z</time>
</trkpt>
<trkpt lat="51.20804334" lon="6.87088332">
<ele>0</ele>
<time>2011-09-30T15:11:35Z</time>
</trkpt>
<trkpt lat="51.20803894" lon="6.87088609">
<ele>0</ele>
<time>2011-09-30T15:11:39Z</time>
</trkpt>
<trkpt lat="51.20803718" lon="6.87088785">
<ele>111</ele>
<time>2011-09-30T15:11:43Z</time>
</trkpt>
<trkpt lat="51.20803534" lon="6.87088148">
<ele>111.5</ele>
<time>2011-09-30T15:11:47Z</time>
</trkpt>
<trkpt lat="51.20803332" lon="6.87087134">
<ele>0</ele>
<time>2011-09-30T15:11:51Z</time>
</trkpt>
<trkpt lat="51.20803475" lon="6.87086253">
<ele>0</ele>
<time>2011-09-30T15:11:55Z</time>
</trkpt>
<trkpt lat="51.20802901" lon="6.87086689">
<ele>110.5</ele>
<time>2011-09-30T15:11:59Z</time>
</trkpt>
<trkpt lat="51.20802306" lon="6.87087662">
<ele>0</ele>
<time>2011-09-30T15:12:03Z</time>
</trkpt>
<trkpt lat="51.20801794" lon="6.87088466">
<ele>111.5</ele>
<time>2011-09-30T15:12:07Z</time>
</trkpt>
<trkpt lat="51.20801417" lon="6.87088592">
<ele>111.5</ele>
<time>2011-09-30T15:12:11Z</time>
</trkpt>
<trkpt lat="51.20801375" lon="6.87088642">
<ele>0</ele>
<time>2011-09-30T15:12:15Z</time>
</trkpt>
<trkpt lat="51.20801765" lon="6.87089053">
<ele>112</ele>
<time>2011-09-30T15:12:19Z</time>
</trkpt>
<trkpt lat="51.20801794" lon="6.87089522">
<ele>112.5</ele>
<time>2011-09-30T15:12:23Z</time>
</trkpt>
<trkpt lat="51.20801405" lon="6.87089941">
<ele>112.5</ele>
<time>2011-09-30T15:12:27Z</time>
</trkpt>
<trkpt lat="51.20800948" lon="6.87090327">
<ele>0</ele>
<time>2011-09-30T15:12:31Z</time>
</trkpt>
<trkpt lat="51.20800395" lon="6.87090578">
<ele>112</ele>
<time>2011-09-30T15:12:35Z</time>
</trkpt>
<trkpt lat="51.20800328" lon="6.87090453">
<ele>112</ele>
<time>2011-09-30T15:12:39Z</time>
</trkpt>
<trkpt lat="51.20800043" lon="6.87090897">
<ele>0</ele>
<time>2011-09-30T15:12:43Z</time>
</trkpt>
<trkpt lat="51.20789506" lon="6.87095163">
<ele>112</ele>
<time>2011-09-30T15:12:47Z</time>
</trkpt>
<trkpt lat="51.20777671" lon="6.87098089">
<ele>109</ele>
<time>2011-09-30T15:12:51Z</time>
</trkpt>
<trkpt lat="51.20764269" lon="6.8710399">
<ele>109</ele>
<time>2011-09-30T15:12:55Z</time>
</trkpt>
<trkpt lat="51.2075012" lon="6.87111969">
<ele>107.5</ele>
<time>2011-09-30T15:12:59Z</time>
</trkpt>
<trkpt lat="51.20737006" lon="6.87110511">
<ele>101.5</ele>
<time>2011-09-30T15:13:03Z</time>
</trkpt>
<trkpt lat="51.20721031" lon="6.87113025">
<ele>99</ele>
<time>2011-09-30T15:13:07Z</time>
</trkpt>
<trkpt lat="51.20703416" lon="6.87125657">
<ele>99</ele>
<time>2011-09-30T15:13:11Z</time>
</trkpt>
<trkpt lat="51.20682201" lon="6.87138037">
<ele>0</ele>
<time>2011-09-30T15:13:16Z</time>
</trkpt>
<trkpt lat="51.20670911" lon="6.87141222">
<ele>96</ele>
<time>2011-09-30T15:13:20Z</time>
</trkpt>
<trkpt lat="51.20665077" lon="6.87143862">
<ele>95</ele>
<time>2011-09-30T15:13:24Z</time>
</trkpt>
<trkpt lat="51.20654332" lon="6.8714957">
<ele>93.5</ele>
<time>2011-09-30T15:13:28Z</time>
</trkpt>
<trkpt lat="51.20638938" lon="6.87154382">
<ele>91.5</ele>
<time>2011-09-30T15:13:32Z</time>
</trkpt>
<trkpt lat="51.2062163" lon="6.87160542">
<ele>90</ele>
<time>2011-09-30T15:13:36Z</time>
</trkpt>
<trkpt lat="51.20602917" lon="6.87166812">
<ele>89.5</ele>
<time>2011-09-30T15:13:40Z</time>
</trkpt>
<trkpt lat="51.20584405" lon="6.87172621">
<ele>87.5</ele>
<time>2011-09-30T15:13:44Z</time>
</trkpt>
<trkpt lat="51.2056441" lon="6.87177834">
<ele>87</ele>
<time>2011-09-30T15:13:48Z</time>
</trkpt>
<trkpt lat="51.20544411" lon="6.87182947">
<ele>86.5</ele>
<time>2011-09-30T15:13:52Z</time>
</trkpt>
<trkpt lat="51.20523473" lon="6.87190524">
<ele>86.5</ele>
<time>2011-09-30T15:13:56Z</time>
</trkpt>
<trkpt lat="51.20503151" lon="6.87200365">
<ele>86.5</ele>
<time>2011-09-30T15:14:00Z</time>
</trkpt>
<trkpt lat="51.20486119" lon="6.87213734">
<ele>86.5</ele>
<time>2011-09-30T15:14:04Z</time>
</trkpt>
<trkpt lat="51.2047208" lon="6.87233716">
<ele>87</ele>
<time>2011-09-30T15:14:08Z</time>
</trkpt>
<trkpt lat="51.2045778" lon="6.87253967">
<ele>87</ele>
<time>2011-09-30T15:14:12Z</time>
</trkpt>
<trkpt lat="51.2044382" lon="6.8727286">
<ele>85.5</ele>
<time>2011-09-30T15:14:16Z</time>
</trkpt>
<trkpt lat="51.20429923" lon="6.8729477">
<ele>85.5</ele>
<time>2011-09-30T15:14:20Z</time>
</trkpt>
<trkpt lat="51.20414106" lon="6.87313462">
<ele>85</ele>
<time>2011-09-30T15:14:24Z</time>
</trkpt>
<trkpt lat="51.20395922" lon="6.87324744">
<ele>85</ele>
<time>2011-09-30T15:14:28Z</time>
</trkpt>
<trkpt lat="51.20379095" lon="6.87331382">
<ele>83</ele>
<time>2011-09-30T15:14:32Z</time>
</trkpt>
<trkpt lat="51.20370294" lon="6.87324945">
<ele>83</ele>
<time>2011-09-30T15:14:36Z</time>
</trkpt>
<trkpt lat="51.20366422" lon="6.87315892">
<ele>82.5</ele>
<time>2011-09-30T15:14:40Z</time>
</trkpt>
<trkpt lat="51.20362893" lon="6.87305331">
<ele>82.5</ele>
<time>2011-09-30T15:14:45Z</time>
</trkpt>
<trkpt lat="51.20358987" lon="6.87297352">
<ele>81</ele>
<time>2011-09-30T15:14:49Z</time>
</trkpt>
<trkpt lat="51.20352956" lon="6.872813">
<ele>78.5</ele>
<time>2011-09-30T15:14:53Z</time>
</trkpt>
<trkpt lat="51.20345509" lon="6.87260413">
<ele>77.5</ele>
<time>2011-09-30T15:14:57Z</time>
</trkpt>
<trkpt lat="51.20336976" lon="6.8723722">
<ele>0</ele>
<time>2011-09-30T15:15:01Z</time>
</trkpt>
<trkpt lat="51.20328234" lon="6.87213818">
<ele>0</ele>
<time>2011-09-30T15:15:05Z</time>
</trkpt>
<trkpt lat="51.20321084" lon="6.87188881">
<ele>76.5</ele>
<time>2011-09-30T15:15:09Z</time>
</trkpt>
<trkpt lat="51.20318242" lon="6.87160576">
<ele>78.5</ele>
<time>2011-09-30T15:15:13Z</time>
</trkpt>
<trkpt lat="51.20315313" lon="6.87133712">
<ele>77.5</ele>
<time>2011-09-30T15:15:17Z</time>
</trkpt>
<trkpt lat="51.20307392" lon="6.87109153">
<ele>77.5</ele>
<time>2011-09-30T15:15:21Z</time>
</trkpt>
<trkpt lat="51.20299551" lon="6.8708855">
<ele>74</ele>
<time>2011-09-30T15:15:25Z</time>
</trkpt>
<trkpt lat="51.20287217" lon="6.87071216">
<ele>72.5</ele>
<time>2011-09-30T15:15:29Z</time>
</trkpt>
<trkpt lat="51.20274761" lon="6.87052961">
<ele>72</ele>
<time>2011-09-30T15:15:33Z</time>
</trkpt>
<trkpt lat="51.20266979" lon="6.87030447">
<ele>69.5</ele>
<time>2011-09-30T15:15:37Z</time>
</trkpt>
<trkpt lat="51.20257335" lon="6.87004698">
<ele>68</ele>
<time>2011-09-30T15:15:41Z</time>
</trkpt>
<trkpt lat="51.20247063" lon="6.86977196">
<ele>66.5</ele>
<time>2011-09-30T15:15:45Z</time>
</trkpt>
<trkpt lat="51.20236921" lon="6.86948597">
<ele>65.5</ele>
<time>2011-09-30T15:15:49Z</time>
</trkpt>
<trkpt lat="51.20225853" lon="6.86920082">
<ele>66.5</ele>
<time>2011-09-30T15:15:53Z</time>
</trkpt>
<trkpt lat="51.20215543" lon="6.86891223">
<ele>66</ele>
<time>2011-09-30T15:15:57Z</time>
</trkpt>
<trkpt lat="51.20205782" lon="6.86864728">
<ele>66</ele>
<time>2011-09-30T15:16:01Z</time>
</trkpt>
<trkpt lat="51.20197509" lon="6.86841619">
<ele>67.5</ele>
<time>2011-09-30T15:16:05Z</time>
</trkpt>
<trkpt lat="51.20188289" lon="6.86830756">
<ele>70</ele>
<time>2011-09-30T15:16:09Z</time>
</trkpt>
<trkpt lat="51.20178872" lon="6.86844251">
<ele>71.5</ele>
<time>2011-09-30T15:16:13Z</time>
</trkpt>
<trkpt lat="51.20167163" lon="6.86869145">
<ele>71.5</ele>
<time>2011-09-30T15:16:18Z</time>
</trkpt>
<trkpt lat="51.20156467" lon="6.86890117">
<ele>72.5</ele>
<time>2011-09-30T15:16:22Z</time>
</trkpt>
<trkpt lat="51.20146929" lon="6.86909236">
<ele>74.5</ele>
<time>2011-09-30T15:16:26Z</time>
</trkpt>
<trkpt lat="51.20136866" lon="6.86929981">
<ele>75</ele>
<time>2011-09-30T15:16:30Z</time>
</trkpt>
<trkpt lat="51.20125371" lon="6.86954607">
<ele>74</ele>
<time>2011-09-30T15:16:34Z</time>
</trkpt>
<trkpt lat="51.20113753" lon="6.86979158">
<ele>75</ele>
<time>2011-09-30T15:16:38Z</time>
</trkpt>
<trkpt lat="51.20101834" lon="6.86999652">
<ele>76.5</ele>
<time>2011-09-30T15:16:42Z</time>
</trkpt>
<trkpt lat="51.20090188" lon="6.87019106">
<ele>79</ele>
<time>2011-09-30T15:16:46Z</time>
</trkpt>
<trkpt lat="51.20076307" lon="6.87036163">
<ele>82</ele>
<time>2011-09-30T15:16:50Z</time>
</trkpt>
<trkpt lat="51.20066936" lon="6.87054863">
<ele>84</ele>
<time>2011-09-30T15:16:54Z</time>
</trkpt>
<trkpt lat="51.20056605" lon="6.87080177">
<ele>86</ele>
<time>2011-09-30T15:16:58Z</time>
</trkpt>
<trkpt lat="51.20044221" lon="6.87105406">
<ele>86.5</ele>
<time>2011-09-30T15:17:02Z</time>
</trkpt>
<trkpt lat="51.20033383" lon="6.87129772">
<ele>86.5</ele>
<time>2011-09-30T15:17:06Z</time>
</trkpt>
<trkpt lat="51.20023489" lon="6.87156435">
<ele>86</ele>
<time>2011-09-30T15:17:10Z</time>
</trkpt>
<trkpt lat="51.20013841" lon="6.87182754">
<ele>87</ele>
<time>2011-09-30T15:17:14Z</time>
</trkpt>
<trkpt lat="51.20004105" lon="6.87207188">
<ele>86.5</ele>
<time>2011-09-30T15:17:18Z</time>
</trkpt>
<trkpt lat="51.1999652" lon="6.87222753">
<ele>86</ele>
<time>2011-09-30T15:17:22Z</time>
</trkpt>
<trkpt lat="51.19994286" lon="6.87225527">
<ele>87</ele>
<time>2011-09-30T15:17:26Z</time>
</trkpt>
<trkpt lat="51.19985963" lon="6.87238435">
<ele>0</ele>
<time>2011-09-30T15:17:30Z</time>
</trkpt>
<trkpt lat="51.19976986" lon="6.87259264">
<ele>0</ele>
<time>2011-09-30T15:17:34Z</time>
</trkpt>
<trkpt lat="51.19963629" lon="6.87280253">
<ele>86</ele>
<time>2011-09-30T15:17:38Z</time>
</trkpt>
<trkpt lat="51.19946924" lon="6.87296363">
<ele>85</ele>
<time>2011-09-30T15:17:42Z</time>
</trkpt>
<trkpt lat="51.19928941" lon="6.87311291">
<ele>0</ele>
<time>2011-09-30T15:17:47Z</time>
</trkpt>
<trkpt lat="51.19907785" lon="6.87327912">
<ele>0</ele>
<time>2011-09-30T15:17:51Z</time>
</trkpt>
<trkpt lat="51.19890158" lon="6.87343352">
<ele>83</ele>
<time>2011-09-30T15:17:55Z</time>
</trkpt>
<trkpt lat="51.19873142" lon="6.87357123">
<ele>83</ele>
<time>2011-09-30T15:17:59Z</time>
</trkpt>
<trkpt lat="51.19857129" lon="6.87371666">
<ele>82</ele>
<time>2011-09-30T15:18:03Z</time>
</trkpt>
<trkpt lat="51.19838336" lon="6.87387499">
<ele>82</ele>
<time>2011-09-30T15:18:07Z</time>
</trkpt>
<trkpt lat="51.19831895" lon="6.87411153">
<ele>83</ele>
<time>2011-09-30T15:18:11Z</time>
</trkpt>
<trkpt lat="51.19833785" lon="6.87435427">
<ele>84.5</ele>
<time>2011-09-30T15:18:15Z</time>
</trkpt>
<trkpt lat="51.19833525" lon="6.8745924">
<ele>85.5</ele>
<time>2011-09-30T15:18:19Z</time>
</trkpt>
<trkpt lat="51.19833504" lon="6.87483229">
<ele>0</ele>
<time>2011-09-30T15:18:23Z</time>
</trkpt>
<trkpt lat="51.19831891" lon="6.87504728">
<ele>0</ele>
<time>2011-09-30T15:18:27Z</time>
</trkpt>
<trkpt lat="51.19831623" lon="6.87525691">
<ele>87</ele>
<time>2011-09-30T15:18:31Z</time>
</trkpt>
<trkpt lat="51.19833027" lon="6.87545666">
<ele>89</ele>
<time>2011-09-30T15:18:35Z</time>
</trkpt>
<trkpt lat="51.19834187" lon="6.87563033">
<ele>91.5</ele>
<time>2011-09-30T15:18:39Z</time>
</trkpt>
<trkpt lat="51.19835147" lon="6.87577969">
<ele>93</ele>
<time>2011-09-30T15:18:43Z</time>
</trkpt>
<trkpt lat="51.19830881" lon="6.87590844">
<ele>94.5</ele>
<time>2011-09-30T15:18:47Z</time>
</trkpt>
<trkpt lat="51.19828366" lon="6.87594029">
<ele>94.5</ele>
<time>2011-09-30T15:18:51Z</time>
</trkpt>
<trkpt lat="51.19827813" lon="6.87594331">
<ele>94</ele>
<time>2011-09-30T15:18:55Z</time>
</trkpt>
<trkpt lat="51.19827993" lon="6.87594566">
<ele>92.5</ele>
<time>2011-09-30T15:18:59Z</time>
</trkpt>
<trkpt lat="51.19828467" lon="6.87596988">
<ele>95</ele>
<time>2011-09-30T15:19:03Z</time>
</trkpt>
<trkpt lat="51.19826774" lon="6.87598178">
<ele>94</ele>
<time>2011-09-30T15:19:07Z</time>
</trkpt>
<trkpt lat="51.19826698" lon="6.87599142">
<ele>94</ele>
<time>2011-09-30T15:19:11Z</time>
</trkpt>
<trkpt lat="51.19827788" lon="6.87598891">
<ele>0</ele>
<time>2011-09-30T15:19:15Z</time>
</trkpt>
<trkpt lat="51.19827851" lon="6.87600584">
<ele>96.5</ele>
<time>2011-09-30T15:19:20Z</time>
</trkpt>
<trkpt lat="51.19827595" lon="6.87603417">
<ele>99.5</ele>
<time>2011-09-30T15:19:24Z</time>
</trkpt>
<trkpt lat="51.1982651" lon="6.87606744">
<ele>98</ele>
<time>2011-09-30T15:19:28Z</time>
</trkpt>
<trkpt lat="51.19825826" lon="6.87608354">
<ele>97.5</ele>
<time>2011-09-30T15:19:32Z</time>
</trkpt>
<trkpt lat="51.19821304" lon="6.87622771">
<ele>99</ele>
<time>2011-09-30T15:19:36Z</time>
</trkpt>
<trkpt lat="51.19823324" lon="6.87647858">
<ele>100</ele>
<time>2011-09-30T15:19:40Z</time>
</trkpt>
<trkpt lat="51.19828521" lon="6.8767613">
<ele>99.5</ele>
<time>2011-09-30T15:19:44Z</time>
</trkpt>
<trkpt lat="51.19833458" lon="6.87705081">
<ele>99</ele>
<time>2011-09-30T15:19:48Z</time>
</trkpt>
<trkpt lat="51.19839753" lon="6.87734736">
<ele>94.5</ele>
<time>2011-09-30T15:19:52Z</time>
</trkpt>
<trkpt lat="51.19845964" lon="6.87765808">
<ele>93.5</ele>
<time>2011-09-30T15:19:56Z</time>
</trkpt>
<trkpt lat="51.19851936" lon="6.87797508">
<ele>91</ele>
<time>2011-09-30T15:20:00Z</time>
</trkpt>
<trkpt lat="51.19856823" lon="6.8782744">
<ele>88.5</ele>
<time>2011-09-30T15:20:04Z</time>
</trkpt>
<trkpt lat="51.19860117" lon="6.87852041">
<ele>87</ele>
<time>2011-09-30T15:20:08Z</time>
</trkpt>
<trkpt lat="51.19863159" lon="6.87871101">
<ele>87.5</ele>
<time>2011-09-30T15:20:12Z</time>
</trkpt>
<trkpt lat="51.19865071" lon="6.87886524">
<ele>88.5</ele>
<time>2011-09-30T15:20:16Z</time>
</trkpt>
<trkpt lat="51.1986725" lon="6.87900505">
<ele>89.5</ele>
<time>2011-09-30T15:20:20Z</time>
</trkpt>
<trkpt lat="51.19871068" lon="6.87921946">
<ele>89.5</ele>
<time>2011-09-30T15:20:24Z</time>
</trkpt>
<trkpt lat="51.19876235" lon="6.87947444">
<ele>0</ele>
<time>2011-09-30T15:20:28Z</time>
</trkpt>
<trkpt lat="51.19880967" lon="6.87973872">
<ele>89</ele>
<time>2011-09-30T15:20:32Z</time>
</trkpt>
<trkpt lat="51.19885682" lon="6.88000275">
<ele>0</ele>
<time>2011-09-30T15:20:36Z</time>
</trkpt>
<trkpt lat="51.1988877" lon="6.88026217">
<ele>0</ele>
<time>2011-09-30T15:20:40Z</time>
</trkpt>
<trkpt lat="51.19893712" lon="6.88051958">
<ele>89</ele>
<time>2011-09-30T15:20:44Z</time>
</trkpt>
<trkpt lat="51.19898032" lon="6.88078159">
<ele>89</ele>
<time>2011-09-30T15:20:48Z</time>
</trkpt>
<trkpt lat="51.19902827" lon="6.8810349">
<ele>0</ele>
<time>2011-09-30T15:20:52Z</time>
</trkpt>
<trkpt lat="51.19906817" lon="6.88130437">
<ele>0</ele>
<time>2011-09-30T15:20:56Z</time>
</trkpt>
<trkpt lat="51.19912139" lon="6.88156321">
<ele>88.5</ele>
<time>2011-09-30T15:21:00Z</time>
</trkpt>
<trkpt lat="51.19917353" lon="6.88181684">
<ele>89.5</ele>
<time>2011-09-30T15:21:04Z</time>
</trkpt>
<trkpt lat="51.19922097" lon="6.8820833">
<ele>91</ele>
<time>2011-09-30T15:21:08Z</time>
</trkpt>
<trkpt lat="51.19924226" lon="6.88234918">
<ele>92.5</ele>
<time>2011-09-30T15:21:12Z</time>
</trkpt>
<trkpt lat="51.19929196" lon="6.88260633">
<ele>93.5</ele>
<time>2011-09-30T15:21:16Z</time>
</trkpt>
<trkpt lat="51.19934674" lon="6.88286039">
<ele>95</ele>
<time>2011-09-30T15:21:20Z</time>
</trkpt>
<trkpt lat="51.19937708" lon="6.88311688">
<ele>95.5</ele>
<time>2011-09-30T15:21:24Z</time>
</trkpt>
<trkpt lat="51.199413" lon="6.88334109">
<ele>98</ele>
<time>2011-09-30T15:21:28Z</time>
</trkpt>
<trkpt lat="51.19945604" lon="6.8835804">
<ele>98</ele>
<time>2011-09-30T15:21:32Z</time>
</trkpt>
<trkpt lat="51.19950792" lon="6.88383537">
<ele>0</ele>
<time>2011-09-30T15:21:36Z</time>
</trkpt>
<trkpt lat="51.19957636" lon="6.88408088">
<ele>96.5</ele>
<time>2011-09-30T15:21:40Z</time>
</trkpt>
<trkpt lat="51.19961995" lon="6.8843382">
<ele>95.5</ele>
<time>2011-09-30T15:21:44Z</time>
</trkpt>
<trkpt lat="51.19966337" lon="6.88459">
<ele>92.5</ele>
<time>2011-09-30T15:21:48Z</time>
</trkpt>
<trkpt lat="51.19969203" lon="6.88482989">
<ele>91</ele>
<time>2011-09-30T15:21:52Z</time>
</trkpt>
<trkpt lat="51.19973742" lon="6.88506709">
<ele>90</ele>
<time>2011-09-30T15:21:56Z</time>
</trkpt>
<trkpt lat="51.1997795" lon="6.88529743">
<ele>89.5</ele>
<time>2011-09-30T15:22:00Z</time>
</trkpt>
<trkpt lat="51.19978683" lon="6.88552885">
<ele>88.5</ele>
<time>2011-09-30T15:22:04Z</time>
</trkpt>
<trkpt lat="51.199716" lon="6.88574561">
<ele>89</ele>
<time>2011-09-30T15:22:08Z</time>
</trkpt>
<trkpt lat="51.19962711" lon="6.88595608">
<ele>89</ele>
<time>2011-09-30T15:22:12Z</time>
</trkpt>
<trkpt lat="51.19951773" lon="6.88612908">
<ele>88.5</ele>
<time>2011-09-30T15:22:16Z</time>
</trkpt>
<trkpt lat="51.19953776" lon="6.88632731">
<ele>91</ele>
<time>2011-09-30T15:22:21Z</time>
</trkpt>
<trkpt lat="51.19968281" lon="6.88651297">
<ele>89</ele>
<time>2011-09-30T15:22:25Z</time>
</trkpt>
<trkpt lat="51.19979622" lon="6.88666033">
<ele>87</ele>
<time>2011-09-30T15:22:29Z</time>
</trkpt>
<trkpt lat="51.19981474" lon="6.8869055">
<ele>87</ele>
<time>2011-09-30T15:22:33Z</time>
</trkpt>
<trkpt lat="51.19978733" lon="6.88714799">
<ele>0</ele>
<time>2011-09-30T15:22:37Z</time>
</trkpt>
<trkpt lat="51.19976705" lon="6.88736642">
<ele>89.5</ele>
<time>2011-09-30T15:22:41Z</time>
</trkpt>
<trkpt lat="51.19974324" lon="6.88760589">
<ele>89.5</ele>
<time>2011-09-30T15:22:45Z</time>
</trkpt>
<trkpt lat="51.19969953" lon="6.88785626">
<ele>90.5</ele>
<time>2011-09-30T15:22:49Z</time>
</trkpt>
<trkpt lat="51.19965197" lon="6.88813127">
<ele>90.5</ele>
<time>2011-09-30T15:22:53Z</time>
</trkpt>
<trkpt lat="51.19960612" lon="6.88841575">
<ele>91</ele>
<time>2011-09-30T15:22:57Z</time>
</trkpt>
<trkpt lat="51.19954702" lon="6.88865807">
<ele>91</ele>
<time>2011-09-30T15:23:01Z</time>
</trkpt>
<trkpt lat="51.19948382" lon="6.8889055">
<ele>92.5</ele>
<time>2011-09-30T15:23:05Z</time>
</trkpt>
<trkpt lat="51.19941157" lon="6.88912511">
<ele>92.5</ele>
<time>2011-09-30T15:23:09Z</time>
</trkpt>
<trkpt lat="51.19931891" lon="6.88932552">
<ele>94.5</ele>
<time>2011-09-30T15:23:13Z</time>
</trkpt>
<trkpt lat="51.19920383" lon="6.88954487">
<ele>94.5</ele>
<time>2011-09-30T15:23:17Z</time>
</trkpt>
<trkpt lat="51.19912227" lon="6.88980354">
<ele>95.5</ele>
<time>2011-09-30T15:23:21Z</time>
</trkpt>
<trkpt lat="51.19902554" lon="6.89001141">
<ele>97.5</ele>
<time>2011-09-30T15:23:25Z</time>
</trkpt>
<trkpt lat="51.19898598" lon="6.89025197">
<ele>97</ele>
<time>2011-09-30T15:23:29Z</time>
</trkpt>
<trkpt lat="51.19894411" lon="6.89055456">
<ele>96.5</ele>
<time>2011-09-30T15:23:33Z</time>
</trkpt>
<trkpt lat="51.19889529" lon="6.89085346">
<ele>96.5</ele>
<time>2011-09-30T15:23:37Z</time>
</trkpt>
<trkpt lat="51.19884877" lon="6.89111061">
<ele>98</ele>
<time>2011-09-30T15:23:41Z</time>
</trkpt>
<trkpt lat="51.19877107" lon="6.89132175">
<ele>98.5</ele>
<time>2011-09-30T15:23:45Z</time>
</trkpt>
<trkpt lat="51.19862187" lon="6.89145645">
<ele>98</ele>
<time>2011-09-30T15:23:49Z</time>
</trkpt>
<trkpt lat="51.1984044" lon="6.89155452">
<ele>97</ele>
<time>2011-09-30T15:23:54Z</time>
</trkpt>
<trkpt lat="51.19820906" lon="6.89165292">
<ele>99.5</ele>
<time>2011-09-30T15:23:58Z</time>
</trkpt>
<trkpt lat="51.19803744" lon="6.8917416">
<ele>103</ele>
<time>2011-09-30T15:24:02Z</time>
</trkpt>
<trkpt lat="51.197918" lon="6.89190187">
<ele>103</ele>
<time>2011-09-30T15:24:06Z</time>
</trkpt>
<trkpt lat="51.19787102" lon="6.89214377">
<ele>100.5</ele>
<time>2011-09-30T15:24:10Z</time>
</trkpt>
<trkpt lat="51.19784407" lon="6.89241484">
<ele>100</ele>
<time>2011-09-30T15:24:14Z</time>
</trkpt>
<trkpt lat="51.19780082" lon="6.89269178">
<ele>97.5</ele>
<time>2011-09-30T15:24:18Z</time>
</trkpt>
<trkpt lat="51.19774751" lon="6.89297165">
<ele>94</ele>
<time>2011-09-30T15:24:22Z</time>
</trkpt>
<trkpt lat="51.19771244" lon="6.89326267">
<ele>91.5</ele>
<time>2011-09-30T15:24:26Z</time>
</trkpt>
<trkpt lat="51.19767057" lon="6.89353894">
<ele>91</ele>
<time>2011-09-30T15:24:30Z</time>
</trkpt>
<trkpt lat="51.19763155" lon="6.89383063">
<ele>90.5</ele>
<time>2011-09-30T15:24:34Z</time>
</trkpt>
<trkpt lat="51.19759459" lon="6.89411863">
<ele>90</ele>
<time>2011-09-30T15:24:38Z</time>
</trkpt>
<trkpt lat="51.19754283" lon="6.89440797">
<ele>89.5</ele>
<time>2011-09-30T15:24:42Z</time>
</trkpt>
<trkpt lat="51.1974917" lon="6.89469807">
<ele>88.5</ele>
<time>2011-09-30T15:24:46Z</time>
</trkpt>
<trkpt lat="51.19745184" lon="6.89499261">
<ele>87.5</ele>
<time>2011-09-30T15:24:50Z</time>
</trkpt>
<trkpt lat="51.19741106" lon="6.89525069">
<ele>84.5</ele>
<time>2011-09-30T15:24:54Z</time>
</trkpt>
<trkpt lat="51.19735918" lon="6.89553115">
<ele>84.5</ele>
<time>2011-09-30T15:24:58Z</time>
</trkpt>
<trkpt lat="51.19732062" lon="6.89579492">
<ele>0</ele>
<time>2011-09-30T15:25:02Z</time>
</trkpt>
<trkpt lat="51.19727968" lon="6.8960722">
<ele>83</ele>
<time>2011-09-30T15:25:06Z</time>
</trkpt>
<trkpt lat="51.19723018" lon="6.89635375">
<ele>84</ele>
<time>2011-09-30T15:25:10Z</time>
</trkpt>
<trkpt lat="51.19718303" lon="6.89662348">
<ele>83.5</ele>
<time>2011-09-30T15:25:14Z</time>
</trkpt>
<trkpt lat="51.19713995" lon="6.89687963">
<ele>83.5</ele>
<time>2011-09-30T15:25:18Z</time>
</trkpt>
<trkpt lat="51.1970967" lon="6.89713829">
<ele>82.5</ele>
<time>2011-09-30T15:25:22Z</time>
</trkpt>
<trkpt lat="51.1970498" lon="6.89748505">
<ele>81.5</ele>
<time>2011-09-30T15:25:27Z</time>
</trkpt>
<trkpt lat="51.19703053" lon="6.89774011">
<ele>80.5</ele>
<time>2011-09-30T15:25:31Z</time>
</trkpt>
<trkpt lat="51.1970027" lon="6.89798453">
<ele>81</ele>
<time>2011-09-30T15:25:35Z</time>
</trkpt>
<trkpt lat="51.1969307" lon="6.89827496">
<ele>82</ele>
<time>2011-09-30T15:25:39Z</time>
</trkpt>
<trkpt lat="51.19686238" lon="6.89858484">
<ele>82.5</ele>
<time>2011-09-30T15:25:43Z</time>
</trkpt>
<trkpt lat="51.19681226" lon="6.89888575">
<ele>82.5</ele>
<time>2011-09-30T15:25:47Z</time>
</trkpt>
<trkpt lat="51.19673946" lon="6.89916571">
<ele>82</ele>
<time>2011-09-30T15:25:51Z</time>
</trkpt>
<trkpt lat="51.19662317" lon="6.89943376">
<ele>82</ele>
<time>2011-09-30T15:25:55Z</time>
</trkpt>
<trkpt lat="51.1965163" lon="6.89969603">
<ele>82</ele>
<time>2011-09-30T15:25:59Z</time>
</trkpt>
<trkpt lat="51.19643579" lon="6.89995302">
<ele>82.5</ele>
<time>2011-09-30T15:26:03Z</time>
</trkpt>
<trkpt lat="51.19637095" lon="6.90021562">
<ele>82</ele>
<time>2011-09-30T15:26:07Z</time>
</trkpt>
<trkpt lat="51.19631844" lon="6.90048854">
<ele>82.5</ele>
<time>2011-09-30T15:26:11Z</time>
</trkpt>
<trkpt lat="51.19631098" lon="6.90076992">
<ele>82.5</ele>
<time>2011-09-30T15:26:15Z</time>
</trkpt>
<trkpt lat="51.19631547" lon="6.90105599">
<ele>82</ele>
<time>2011-09-30T15:26:19Z</time>
</trkpt>
<trkpt lat="51.19632146" lon="6.90135481">
<ele>0</ele>
<time>2011-09-30T15:26:23Z</time>
</trkpt>
<trkpt lat="51.19633495" lon="6.90165664">
<ele>0</ele>
<time>2011-09-30T15:26:27Z</time>
</trkpt>
<trkpt lat="51.19633261" lon="6.90196568">
<ele>82.5</ele>
<time>2011-09-30T15:26:31Z</time>
</trkpt>
<trkpt lat="51.19630842" lon="6.9022712">
<ele>83.5</ele>
<time>2011-09-30T15:26:35Z</time>
</trkpt>
<trkpt lat="51.19624577" lon="6.90255451">
<ele>84.5</ele>
<time>2011-09-30T15:26:39Z</time>
</trkpt>
<trkpt lat="51.19616681" lon="6.90281108">
<ele>84.5</ele>
<time>2011-09-30T15:26:43Z</time>
</trkpt>
<trkpt lat="51.19609972" lon="6.903071">
<ele>84</ele>
<time>2011-09-30T15:26:47Z</time>
</trkpt>
<trkpt lat="51.19604142" lon="6.90334979">
<ele>84.5</ele>
<time>2011-09-30T15:26:51Z</time>
</trkpt>
<trkpt lat="51.19598124" lon="6.90367894">
<ele>84.5</ele>
<time>2011-09-30T15:26:56Z</time>
</trkpt>
<trkpt lat="51.19592629" lon="6.90393903">
<ele>84.5</ele>
<time>2011-09-30T15:27:00Z</time>
</trkpt>
<trkpt lat="51.19587278" lon="6.90420583">
<ele>85.5</ele>
<time>2011-09-30T15:27:04Z</time>
</trkpt>
<trkpt lat="51.19581678" lon="6.90446257">
<ele>86</ele>
<time>2011-09-30T15:27:08Z</time>
</trkpt>
<trkpt lat="51.19577768" lon="6.9047105">
<ele>86</ele>
<time>2011-09-30T15:27:12Z</time>
</trkpt>
<trkpt lat="51.19581712" lon="6.90496188">
<ele>86</ele>
<time>2011-09-30T15:27:16Z</time>
</trkpt>
<trkpt lat="51.1959133" lon="6.90516497">
<ele>0</ele>
<time>2011-09-30T15:27:20Z</time>
</trkpt>
<trkpt lat="51.19600135" lon="6.90538256">
<ele>85</ele>
<time>2011-09-30T15:27:24Z</time>
</trkpt>
<trkpt lat="51.19603614" lon="6.90562396">
<ele>87</ele>
<time>2011-09-30T15:27:28Z</time>
</trkpt>
<trkpt lat="51.19596615" lon="6.90588322">
<ele>89.5</ele>
<time>2011-09-30T15:27:32Z</time>
</trkpt>
<trkpt lat="51.19588392" lon="6.90612428">
<ele>92.5</ele>
<time>2011-09-30T15:27:36Z</time>
</trkpt>
<trkpt lat="51.19580476" lon="6.90637641">
<ele>95</ele>
<time>2011-09-30T15:27:40Z</time>
</trkpt>
<trkpt lat="51.19572639" lon="6.90663189">
<ele>98</ele>
<time>2011-09-30T15:27:44Z</time>
</trkpt>
<trkpt lat="51.1956437" lon="6.90689692">
<ele>100.5</ele>
<time>2011-09-30T15:27:48Z</time>
</trkpt>
<trkpt lat="51.19555141" lon="6.90716992">
<ele>101.5</ele>
<time>2011-09-30T15:27:52Z</time>
</trkpt>
<trkpt lat="51.19545121" lon="6.90742725">
<ele>101</ele>
<time>2011-09-30T15:27:56Z</time>
</trkpt>
<trkpt lat="51.1953658" lon="6.90770351">
<ele>99</ele>
<time>2011-09-30T15:28:00Z</time>
</trkpt>
<trkpt lat="51.19528185" lon="6.90797215">
<ele>98.5</ele>
<time>2011-09-30T15:28:04Z</time>
</trkpt>
<trkpt lat="51.19519422" lon="6.90821481">
<ele>96.5</ele>
<time>2011-09-30T15:28:08Z</time>
</trkpt>
<trkpt lat="51.19509141" lon="6.90849451">
<ele>96</ele>
<time>2011-09-30T15:28:12Z</time>
</trkpt>
<trkpt lat="51.19498932" lon="6.90877405">
<ele>96</ele>
<time>2011-09-30T15:28:16Z</time>
</trkpt>
<trkpt lat="51.19487713" lon="6.90902987">
<ele>97</ele>
<time>2011-09-30T15:28:20Z</time>
</trkpt>
<trkpt lat="51.19477349" lon="6.90927671">
<ele>96</ele>
<time>2011-09-30T15:28:24Z</time>
</trkpt>
<trkpt lat="51.19464118" lon="6.90957385">
<ele>95.5</ele>
<time>2011-09-30T15:28:29Z</time>
</trkpt>
<trkpt lat="51.19450485" lon="6.90974107">
<ele>96</ele>
<time>2011-09-30T15:28:33Z</time>
</trkpt>
<trkpt lat="51.19434475" lon="6.90983604">
<ele>94.5</ele>
<time>2011-09-30T15:28:37Z</time>
</trkpt>
<trkpt lat="51.19417883" lon="6.90986864">
<ele>93</ele>
<time>2011-09-30T15:28:41Z</time>
</trkpt>
<trkpt lat="51.19413793" lon="6.90988356">
<ele>93.5</ele>
<time>2011-09-30T15:28:45Z</time>
</trkpt>
<trkpt lat="51.19413806" lon="6.90989144">
<ele>94.5</ele>
<time>2011-09-30T15:28:49Z</time>
</trkpt>
<trkpt lat="51.19412854" lon="6.90990167">
<ele>94.5</ele>
<time>2011-09-30T15:28:53Z</time>
</trkpt>
<trkpt lat="51.19405738" lon="6.90991533">
<ele>94.5</ele>
<time>2011-09-30T15:28:57Z</time>
</trkpt>
<trkpt lat="51.19390605" lon="6.909902">
<ele>95.5</ele>
<time>2011-09-30T15:29:01Z</time>
</trkpt>
<trkpt lat="51.19375584" lon="6.90984383">
<ele>94</ele>
<time>2011-09-30T15:29:05Z</time>
</trkpt>
<trkpt lat="51.19362852" lon="6.90977024">
<ele>92</ele>
<time>2011-09-30T15:29:09Z</time>
</trkpt>
<trkpt lat="51.19358854" lon="6.90968282">
<ele>87.5</ele>
<time>2011-09-30T15:29:13Z</time>
</trkpt>
<trkpt lat="51.19358711" lon="6.90966471">
<ele>86</ele>
<time>2011-09-30T15:29:17Z</time>
</trkpt>
<trkpt lat="51.19357836" lon="6.90967276">
<ele>84.5</ele>
<time>2011-09-30T15:29:21Z</time>
</trkpt>
<trkpt lat="51.19357823" lon="6.90967569">
<ele>83.5</ele>
<time>2011-09-30T15:29:25Z</time>
</trkpt>
<trkpt lat="51.19357944" lon="6.90967619">
<ele>83</ele>
<time>2011-09-30T15:29:29Z</time>
</trkpt>
<trkpt lat="51.19358728" lon="6.90969229">
<ele>81</ele>
<time>2011-09-30T15:29:33Z</time>
</trkpt>
<trkpt lat="51.19359541" lon="6.90969815">
<ele>79.5</ele>
<time>2011-09-30T15:29:37Z</time>
</trkpt>
<trkpt lat="51.19359596" lon="6.90970117">
<ele>79</ele>
<time>2011-09-30T15:29:41Z</time>
</trkpt>
<trkpt lat="51.19358929" lon="6.90970553">
<ele>78</ele>
<time>2011-09-30T15:29:45Z</time>
</trkpt>
<trkpt lat="51.19358489" lon="6.90970612">
<ele>78</ele>
<time>2011-09-30T15:29:49Z</time>
</trkpt>
<trkpt lat="51.19357991" lon="6.90969539">
<ele>0</ele>
<time>2011-09-30T15:29:53Z</time>
</trkpt>
<trkpt lat="51.19357278" lon="6.90968156">
<ele>83</ele>
<time>2011-09-30T15:29:57Z</time>
</trkpt>
<trkpt lat="51.1935654" lon="6.90968382">
<ele>86</ele>
<time>2011-09-30T15:30:02Z</time>
</trkpt>
<trkpt lat="51.19357211" lon="6.90967888">
<ele>87.5</ele>
<time>2011-09-30T15:30:06Z</time>
</trkpt>
<trkpt lat="51.19357056" lon="6.90968508">
<ele>87</ele>
<time>2011-09-30T15:30:10Z</time>
</trkpt>
<trkpt lat="51.19356503" lon="6.90969614">
<ele>0</ele>
<time>2011-09-30T15:30:14Z</time>
</trkpt>
<trkpt lat="51.19356666" lon="6.90970972">
<ele>0</ele>
<time>2011-09-30T15:30:18Z</time>
</trkpt>
<trkpt lat="51.19357123" lon="6.90971794">
<ele>84</ele>
<time>2011-09-30T15:30:22Z</time>
</trkpt>
<trkpt lat="51.19358234" lon="6.90971936">
<ele>84</ele>
<time>2011-09-30T15:30:26Z</time>
</trkpt>
<trkpt lat="51.19359684" lon="6.90971861">
<ele>0</ele>
<time>2011-09-30T15:30:30Z</time>
</trkpt>
<trkpt lat="51.19361117" lon="6.90971827">
<ele>84</ele>
<time>2011-09-30T15:30:34Z</time>
</trkpt>
<trkpt lat="51.19361964" lon="6.90971743">
<ele>84.5</ele>
<time>2011-09-30T15:30:38Z</time>
</trkpt>
<trkpt lat="51.19362529" lon="6.90971634">
<ele>85</ele>
<time>2011-09-30T15:30:42Z</time>
</trkpt>
<trkpt lat="51.1936286" lon="6.90971408">
<ele>85.5</ele>
<time>2011-09-30T15:30:46Z</time>
</trkpt>
<trkpt lat="51.19363171" lon="6.90971299">
<ele>86</ele>
<time>2011-09-30T15:30:50Z</time>
</trkpt>
<trkpt lat="51.19363087" lon="6.90970754">
<ele>86.5</ele>
<time>2011-09-30T15:30:54Z</time>
</trkpt>
<trkpt lat="51.19362999" lon="6.90970788">
<ele>86.5</ele>
<time>2011-09-30T15:30:58Z</time>
</trkpt>
<trkpt lat="51.19363003" lon="6.90970612">
<ele>87.5</ele>
<time>2011-09-30T15:31:02Z</time>
</trkpt>
<trkpt lat="51.19362751" lon="6.90970478">
<ele>87.5</ele>
<time>2011-09-30T15:31:06Z</time>
</trkpt>
<trkpt lat="51.19362534" lon="6.90970779">
<ele>0</ele>
<time>2011-09-30T15:31:10Z</time>
</trkpt>
<trkpt lat="51.1936258" lon="6.9097067">
<ele>87</ele>
<time>2011-09-30T15:31:14Z</time>
</trkpt>
<trkpt lat="51.1936263" lon="6.90970553">
<ele>87</ele>
<time>2011-09-30T15:31:18Z</time>
</trkpt>
<trkpt lat="51.1936258" lon="6.90970142">
<ele>0</ele>
<time>2011-09-30T15:31:22Z</time>
</trkpt>
<trkpt lat="51.19362253" lon="6.90969472">
<ele>87</ele>
<time>2011-09-30T15:31:26Z</time>
</trkpt>
<trkpt lat="51.19362014" lon="6.90969036">
<ele>87</ele>
<time>2011-09-30T15:31:31Z</time>
</trkpt>
<trkpt lat="51.19361482" lon="6.90968717">
<ele>0</ele>
<time>2011-09-30T15:31:35Z</time>
</trkpt>
<trkpt lat="51.19361389" lon="6.90968617">
<ele>86.5</ele>
<time>2011-09-30T15:31:39Z</time>
</trkpt>
<trkpt lat="51.19361306" lon="6.90968642">
<ele>86.5</ele>
<time>2011-09-30T15:31:43Z</time>
</trkpt>
<trkpt lat="51.19361373" lon="6.90968768">
<ele>0</ele>
<time>2011-09-30T15:31:47Z</time>
</trkpt>
<trkpt lat="51.19361339" lon="6.90969011">
<ele>86</ele>
<time>2011-09-30T15:31:51Z</time>
</trkpt>
<trkpt lat="51.19361469" lon="6.90969162">
<ele>85.5</ele>
<time>2011-09-30T15:31:55Z</time>
</trkpt>
<trkpt lat="51.19361335" lon="6.9096943">
<ele>0</ele>
<time>2011-09-30T15:31:59Z</time>
</trkpt>
<trkpt lat="51.19361272" lon="6.90969371">
<ele>0</ele>
<time>2011-09-30T15:32:03Z</time>
</trkpt>
<trkpt lat="51.19361063" lon="6.90969396">
<ele>85.5</ele>
<time>2011-09-30T15:32:07Z</time>
</trkpt>
<trkpt lat="51.1936079" lon="6.90969547">
<ele>0</ele>
<time>2011-09-30T15:32:11Z</time>
</trkpt>
<trkpt lat="51.19360451" lon="6.90969782">
<ele>0</ele>
<time>2011-09-30T15:32:15Z</time>
</trkpt>
<trkpt lat="51.19360153" lon="6.90970201">
<ele>85.5</ele>
<time>2011-09-30T15:32:19Z</time>
</trkpt>
<trkpt lat="51.19359864" lon="6.90970352">
<ele>85.5</ele>
<time>2011-09-30T15:32:23Z</time>
</trkpt>
<trkpt lat="51.19359424" lon="6.90970754">
<ele>86.5</ele>
<time>2011-09-30T15:32:27Z</time>
</trkpt>
<trkpt lat="51.19359105" lon="6.90970905">
<ele>86.5</ele>
<time>2011-09-30T15:32:31Z</time>
</trkpt>
<trkpt lat="51.193589" lon="6.90971056">
<ele>0</ele>
<time>2011-09-30T15:32:35Z</time>
</trkpt>
<trkpt lat="51.19358636" lon="6.90971299">
<ele>86.5</ele>
<time>2011-09-30T15:32:39Z</time>
</trkpt>
<trkpt lat="51.19358628" lon="6.90971618">
<ele>86.5</ele>
<time>2011-09-30T15:32:43Z</time>
</trkpt>
<trkpt lat="51.19358682" lon="6.90972037">
<ele>0</ele>
<time>2011-09-30T15:32:47Z</time>
</trkpt>
<trkpt lat="51.19358439" lon="6.90972179">
<ele>86</ele>
<time>2011-09-30T15:32:51Z</time>
</trkpt>
<trkpt lat="51.19358343" lon="6.9097197">
<ele>0</ele>
<time>2011-09-30T15:32:55Z</time>
</trkpt>
<trkpt lat="51.19358104" lon="6.90971701">
<ele>0</ele>
<time>2011-09-30T15:32:59Z</time>
</trkpt>
<trkpt lat="51.19357961" lon="6.90971299">
<ele>86.5</ele>
<time>2011-09-30T15:33:04Z</time>
</trkpt>
<trkpt lat="51.19357844" lon="6.90971056">
<ele>0</ele>
<time>2011-09-30T15:33:08Z</time>
</trkpt>
<trkpt lat="51.19357542" lon="6.90971081">
<ele>0</ele>
<time>2011-09-30T15:33:12Z</time>
</trkpt>
<trkpt lat="51.193574" lon="6.90971282">
<ele>86.5</ele>
<time>2011-09-30T15:33:16Z</time>
</trkpt>
<trkpt lat="51.19357131" lon="6.90971316">
<ele>86.5</ele>
<time>2011-09-30T15:33:20Z</time>
</trkpt>
<trkpt lat="51.19357064" lon="6.90971425">
<ele>0</ele>
<time>2011-09-30T15:33:24Z</time>
</trkpt>
<trkpt lat="51.19356964" lon="6.90971349">
<ele>87</ele>
<time>2011-09-30T15:33:28Z</time>
</trkpt>
<trkpt lat="51.19356867" lon="6.90971592">
<ele>87.5</ele>
<time>2011-09-30T15:33:32Z</time>
</trkpt>
<trkpt lat="51.19356679" lon="6.90971475">
<ele>0</ele>
<time>2011-09-30T15:33:36Z</time>
</trkpt>
<trkpt lat="51.19356633" lon="6.90971492">
<ele>0</ele>
<time>2011-09-30T15:33:40Z</time>
</trkpt>
<trkpt lat="51.19356675" lon="6.90971643">
<ele>87.5</ele>
<time>2011-09-30T15:33:44Z</time>
</trkpt>
<trkpt lat="51.19356758" lon="6.90971618">
<ele>0</ele>
<time>2011-09-30T15:33:48Z</time>
</trkpt>
<trkpt lat="51.19356968" lon="6.909715">
<ele>0</ele>
<time>2011-09-30T15:33:52Z</time>
</trkpt>
<trkpt lat="51.19356905" lon="6.90971391">
<ele>87</ele>
<time>2011-09-30T15:33:56Z</time>
</trkpt>
<trkpt lat="51.19356913" lon="6.9097114">
<ele>0</ele>
<time>2011-09-30T15:34:00Z</time>
</trkpt>
<trkpt lat="51.1935696" lon="6.90970545">
<ele>0</ele>
<time>2011-09-30T15:34:04Z</time>
</trkpt>
<trkpt lat="51.19356805" lon="6.90970201">
<ele>86.5</ele>
<time>2011-09-30T15:34:08Z</time>
</trkpt>
<trkpt lat="51.19356981" lon="6.9096995">
<ele>0</ele>
<time>2011-09-30T15:34:12Z</time>
</trkpt>
<trkpt lat="51.19356981" lon="6.90969748">
<ele>86.5</ele>
<time>2011-09-30T15:34:16Z</time>
</trkpt>
<trkpt lat="51.19357069" lon="6.90969639">
<ele>86</ele>
<time>2011-09-30T15:34:20Z</time>
</trkpt>
<trkpt lat="51.19357123" lon="6.90969849">
<ele>0</ele>
<time>2011-09-30T15:34:24Z</time>
</trkpt>
<trkpt lat="51.19357098" lon="6.90969908">
<ele>0</ele>
<time>2011-09-30T15:34:28Z</time>
</trkpt>
<trkpt lat="51.19357299" lon="6.90969732">
<ele>86</ele>
<time>2011-09-30T15:34:33Z</time>
</trkpt>
<trkpt lat="51.19357538" lon="6.90969564">
<ele>0</ele>
<time>2011-09-30T15:34:37Z</time>
</trkpt>
<trkpt lat="51.19357509" lon="6.90969388">
<ele>86</ele>
<time>2011-09-30T15:34:41Z</time>
</trkpt>
<trkpt lat="51.19357551" lon="6.90969246">
<ele>86</ele>
<time>2011-09-30T15:34:45Z</time>
</trkpt>
<trkpt lat="51.19357454" lon="6.90969204">
<ele>0</ele>
<time>2011-09-30T15:34:49Z</time>
</trkpt>
<trkpt lat="51.19357115" lon="6.9096912">
<ele>86</ele>
<time>2011-09-30T15:34:53Z</time>
</trkpt>
<trkpt lat="51.19339035" lon="6.90962557">
<ele>85.5</ele>
<time>2011-09-30T15:34:57Z</time>
</trkpt>
<trkpt lat="51.1932852" lon="6.90963135">
<ele>87.5</ele>
<time>2011-09-30T15:35:01Z</time>
</trkpt>
<trkpt lat="51.19316982" lon="6.90965775">
<ele>88</ele>
<time>2011-09-30T15:35:05Z</time>
</trkpt>
<trkpt lat="51.19303772" lon="6.90972556">
<ele>88</ele>
<time>2011-09-30T15:35:09Z</time>
</trkpt>
<trkpt lat="51.19291199" lon="6.9098616">
<ele>90</ele>
<time>2011-09-30T15:35:13Z</time>
</trkpt>
<trkpt lat="51.19280089" lon="6.91000845">
<ele>92</ele>
<time>2011-09-30T15:35:17Z</time>
</trkpt>
<trkpt lat="51.1927019" lon="6.9100248">
<ele>92.5</ele>
<time>2011-09-30T15:35:21Z</time>
</trkpt>
<trkpt lat="51.19267768" lon="6.90982087">
<ele>89</ele>
<time>2011-09-30T15:35:25Z</time>
</trkpt>
<trkpt lat="51.19270676" lon="6.9095358">
<ele>88.5</ele>
<time>2011-09-30T15:35:29Z</time>
</trkpt>
<trkpt lat="51.19273367" lon="6.90922843">
<ele>88.5</ele>
<time>2011-09-30T15:35:33Z</time>
</trkpt>
<trkpt lat="51.19276824" lon="6.90892425">
<ele>88</ele>
<time>2011-09-30T15:35:37Z</time>
</trkpt>
<trkpt lat="51.1927804" lon="6.90863173">
<ele>87.5</ele>
<time>2011-09-30T15:35:41Z</time>
</trkpt>
<trkpt lat="51.19278895" lon="6.90836216">
<ele>86</ele>
<time>2011-09-30T15:35:45Z</time>
</trkpt>
<trkpt lat="51.19278694" lon="6.90808799">
<ele>83</ele>
<time>2011-09-30T15:35:49Z</time>
</trkpt>
<trkpt lat="51.19277323" lon="6.90784316">
<ele>81</ele>
<time>2011-09-30T15:35:53Z</time>
</trkpt>
<trkpt lat="51.19278249" lon="6.90763755">
<ele>79.5</ele>
<time>2011-09-30T15:35:57Z</time>
</trkpt>
<trkpt lat="51.19274243" lon="6.90743957">
<ele>80</ele>
<time>2011-09-30T15:36:01Z</time>
</trkpt>
<trkpt lat="51.19266598" lon="6.90715844">
<ele>79.5</ele>
<time>2011-09-30T15:36:06Z</time>
</trkpt>
<trkpt lat="51.19260086" lon="6.90693833">
<ele>76.5</ele>
<time>2011-09-30T15:36:10Z</time>
</trkpt>
<trkpt lat="51.19254076" lon="6.90668033">
<ele>72.5</ele>
<time>2011-09-30T15:36:14Z</time>
</trkpt>
<trkpt lat="51.19247551" lon="6.90636274">
<ele>73</ele>
<time>2011-09-30T15:36:18Z</time>
</trkpt>
<trkpt lat="51.19244152" lon="6.90608128">
<ele>72.5</ele>
<time>2011-09-30T15:36:22Z</time>
</trkpt>
<trkpt lat="51.19242148" lon="6.90578582">
<ele>74</ele>
<time>2011-09-30T15:36:26Z</time>
</trkpt>
<trkpt lat="51.19240388" lon="6.90549396">
<ele>77.5</ele>
<time>2011-09-30T15:36:30Z</time>
</trkpt>
<trkpt lat="51.19238829" lon="6.90518919">
<ele>79</ele>
<time>2011-09-30T15:36:34Z</time>
</trkpt>
<trkpt lat="51.19237082" lon="6.90484922">
<ele>81.5</ele>
<time>2011-09-30T15:36:38Z</time>
</trkpt>
<trkpt lat="51.19237974" lon="6.90452878">
<ele>84.5</ele>
<time>2011-09-30T15:36:42Z</time>
</trkpt>
<trkpt lat="51.19239458" lon="6.90421337">
<ele>88</ele>
<time>2011-09-30T15:36:46Z</time>
</trkpt>
<trkpt lat="51.19242329" lon="6.90393233">
<ele>92</ele>
<time>2011-09-30T15:36:50Z</time>
</trkpt>
<trkpt lat="51.19245736" lon="6.90367668">
<ele>97</ele>
<time>2011-09-30T15:36:54Z</time>
</trkpt>
<trkpt lat="51.19247919" lon="6.90341273">
<ele>102</ele>
<time>2011-09-30T15:36:58Z</time>
</trkpt>
<trkpt lat="51.19249701" lon="6.90312264">
<ele>104</ele>
<time>2011-09-30T15:37:02Z</time>
</trkpt>
<trkpt lat="51.19250765" lon="6.90282357">
<ele>105</ele>
<time>2011-09-30T15:37:06Z</time>
</trkpt>
<trkpt lat="51.19250945" lon="6.90255216">
<ele>106</ele>
<time>2011-09-30T15:37:10Z</time>
</trkpt>
<trkpt lat="51.19254042" lon="6.90227481">
<ele>108.5</ele>
<time>2011-09-30T15:37:14Z</time>
</trkpt>
<trkpt lat="51.19257919" lon="6.90198412">
<ele>109.5</ele>
<time>2011-09-30T15:37:18Z</time>
</trkpt>
<trkpt lat="51.19261532" lon="6.90168941">
<ele>111</ele>
<time>2011-09-30T15:37:22Z</time>
</trkpt>
<trkpt lat="51.19265102" lon="6.90135766">
<ele>113</ele>
<time>2011-09-30T15:37:26Z</time>
</trkpt>
<trkpt lat="51.1926988" lon="6.90096094">
<ele>105.5</ele>
<time>2011-09-30T15:37:30Z</time>
</trkpt>
<trkpt lat="51.19269511" lon="6.90059482">
<ele>101.5</ele>
<time>2011-09-30T15:37:34Z</time>
</trkpt>
<trkpt lat="51.19269448" lon="6.90014279">
<ele>100.5</ele>
<time>2011-09-30T15:37:39Z</time>
</trkpt>
<trkpt lat="51.19272386" lon="6.8997837">
<ele>99.5</ele>
<time>2011-09-30T15:37:43Z</time>
</trkpt>
<trkpt lat="51.19274234" lon="6.89941641">
<ele>99</ele>
<time>2011-09-30T15:37:47Z</time>
</trkpt>
<trkpt lat="51.19275399" lon="6.89908675">
<ele>99.5</ele>
<time>2011-09-30T15:37:51Z</time>
</trkpt>
<trkpt lat="51.19278844" lon="6.89870621">
<ele>98.5</ele>
<time>2011-09-30T15:37:55Z</time>
</trkpt>
<trkpt lat="51.19279406" lon="6.89831545">
<ele>89.5</ele>
<time>2011-09-30T15:37:59Z</time>
</trkpt>
<trkpt lat="51.19277813" lon="6.89795611">
<ele>86</ele>
<time>2011-09-30T15:38:03Z</time>
</trkpt>
<trkpt lat="51.19271225" lon="6.89762939">
<ele>87.5</ele>
<time>2011-09-30T15:38:07Z</time>
</trkpt>
<trkpt lat="51.19259176" lon="6.8973672">
<ele>88</ele>
<time>2011-09-30T15:38:11Z</time>
</trkpt>
<trkpt lat="51.19250522" lon="6.8970854">
<ele>87</ele>
<time>2011-09-30T15:38:15Z</time>
</trkpt>
<trkpt lat="51.19243213" lon="6.89676178">
<ele>86.5</ele>
<time>2011-09-30T15:38:19Z</time>
</trkpt>
<trkpt lat="51.19239169" lon="6.89643287">
<ele>84</ele>
<time>2011-09-30T15:38:23Z</time>
</trkpt>
<trkpt lat="51.19237639" lon="6.89608452">
<ele>84.5</ele>
<time>2011-09-30T15:38:27Z</time>
</trkpt>
<trkpt lat="51.19235062" lon="6.8957588">
<ele>84.5</ele>
<time>2011-09-30T15:38:31Z</time>
</trkpt>
<trkpt lat="51.19229643" lon="6.89543056">
<ele>0</ele>
<time>2011-09-30T15:38:35Z</time>
</trkpt>
<trkpt lat="51.19224815" lon="6.89514382">
<ele>84</ele>
<time>2011-09-30T15:38:39Z</time>
</trkpt>
<trkpt lat="51.19220712" lon="6.89485867">
<ele>80.5</ele>
<time>2011-09-30T15:38:43Z</time>
</trkpt>
<trkpt lat="51.19215402" lon="6.89455977">
<ele>80.5</ele>
<time>2011-09-30T15:38:47Z</time>
</trkpt>
<trkpt lat="51.19208751" lon="6.89424855">
<ele>79.5</ele>
<time>2011-09-30T15:38:51Z</time>
</trkpt>
<trkpt lat="51.19202049" lon="6.89395694">
<ele>82</ele>
<time>2011-09-30T15:38:55Z</time>
</trkpt>
<trkpt lat="51.19195935" lon="6.89369828">
<ele>84</ele>
<time>2011-09-30T15:38:59Z</time>
</trkpt>
<trkpt lat="51.19190474" lon="6.89338814">
<ele>83</ele>
<time>2011-09-30T15:39:03Z</time>
</trkpt>
<trkpt lat="51.1918718" lon="6.89296938">
<ele>82</ele>
<time>2011-09-30T15:39:08Z</time>
</trkpt>
<trkpt lat="51.19184175" lon="6.89265054">
<ele>77.5</ele>
<time>2011-09-30T15:39:12Z</time>
</trkpt>
<trkpt lat="51.1918547" lon="6.89232356">
<ele>78</ele>
<time>2011-09-30T15:39:16Z</time>
</trkpt>
<trkpt lat="51.19187042" lon="6.89197747">
<ele>81</ele>
<time>2011-09-30T15:39:20Z</time>
</trkpt>
<trkpt lat="51.19187557" lon="6.89165426">
<ele>85.5</ele>
<time>2011-09-30T15:39:24Z</time>
</trkpt>
<trkpt lat="51.19187905" lon="6.89135319">
<ele>86.5</ele>
<time>2011-09-30T15:39:28Z</time>
</trkpt>
<trkpt lat="51.19185541" lon="6.89105471">
<ele>84.5</ele>
<time>2011-09-30T15:39:32Z</time>
</trkpt>
<trkpt lat="51.19183182" lon="6.89076905">
<ele>85.5</ele>
<time>2011-09-30T15:39:36Z</time>
</trkpt>
<trkpt lat="51.19182155" lon="6.89049806">
<ele>82.5</ele>
<time>2011-09-30T15:39:40Z</time>
</trkpt>
<trkpt lat="51.19178886" lon="6.89023739">
<ele>78.5</ele>
<time>2011-09-30T15:39:44Z</time>
</trkpt>
<trkpt lat="51.19173903" lon="6.88994528">
<ele>77</ele>
<time>2011-09-30T15:39:48Z</time>
</trkpt>
<trkpt lat="51.19169666" lon="6.88962811">
<ele>76.5</ele>
<time>2011-09-30T15:39:52Z</time>
</trkpt>
<trkpt lat="51.19165312" lon="6.88932845">
<ele>74</ele>
<time>2011-09-30T15:39:56Z</time>
</trkpt>
<trkpt lat="51.19161489" lon="6.88913584">
<ele>73.5</ele>
<time>2011-09-30T15:40:00Z</time>
</trkpt>
<trkpt lat="51.19158728" lon="6.88910038">
<ele>74.5</ele>
<time>2011-09-30T15:40:04Z</time>
</trkpt>
<trkpt lat="51.1915864" lon="6.88909912">
<ele>74.5</ele>
<time>2011-09-30T15:40:08Z</time>
</trkpt>
<trkpt lat="51.19157961" lon="6.8890972">
<ele>0</ele>
<time>2011-09-30T15:40:12Z</time>
</trkpt>
<trkpt lat="51.19156242" lon="6.88908714">
<ele>75</ele>
<time>2011-09-30T15:40:16Z</time>
</trkpt>
<trkpt lat="51.19157454" lon="6.88909762">
<ele>75</ele>
<time>2011-09-30T15:40:20Z</time>
</trkpt>
<trkpt lat="51.19146016" lon="6.88899309">
<ele>76.5</ele>
<time>2011-09-30T15:40:24Z</time>
</trkpt>
<trkpt lat="51.19142991" lon="6.88896158">
<ele>78</ele>
<time>2011-09-30T15:40:28Z</time>
</trkpt>
<trkpt lat="51.19139495" lon="6.88895529">
<ele>79.5</ele>
<time>2011-09-30T15:40:32Z</time>
</trkpt>
<trkpt lat="51.19137815" lon="6.88892663">
<ele>80</ele>
<time>2011-09-30T15:40:36Z</time>
</trkpt>
<trkpt lat="51.19135359" lon="6.888776">
<ele>80.5</ele>
<time>2011-09-30T15:40:42Z</time>
</trkpt>
<trkpt lat="51.19132844" lon="6.88853745">
<ele>80</ele>
<time>2011-09-30T15:40:46Z</time>
</trkpt>
<trkpt lat="51.19130548" lon="6.88829706">
<ele>79.5</ele>
<time>2011-09-30T15:40:50Z</time>
</trkpt>
<trkpt lat="51.19126629" lon="6.88802415">
<ele>79</ele>
<time>2011-09-30T15:40:54Z</time>
</trkpt>
<trkpt lat="51.19123888" lon="6.88774235">
<ele>0</ele>
<time>2011-09-30T15:40:58Z</time>
</trkpt>
<trkpt lat="51.19123876" lon="6.88746667">
<ele>0</ele>
<time>2011-09-30T15:41:02Z</time>
</trkpt>
<trkpt lat="51.19126101" lon="6.88719057">
<ele>83</ele>
<time>2011-09-30T15:41:06Z</time>
</trkpt>
<trkpt lat="51.19126604" lon="6.88691019">
<ele>83</ele>
<time>2011-09-30T15:41:10Z</time>
</trkpt>
<trkpt lat="51.19126575" lon="6.88661548">
<ele>0</ele>
<time>2011-09-30T15:41:14Z</time>
</trkpt>
<trkpt lat="51.19127434" lon="6.88632404">
<ele>86</ele>
<time>2011-09-30T15:41:18Z</time>
</trkpt>
<trkpt lat="51.19128972" lon="6.88603495">
<ele>88.5</ele>
<time>2011-09-30T15:41:22Z</time>
</trkpt>
<trkpt lat="51.19132069" lon="6.88574712">
<ele>91</ele>
<time>2011-09-30T15:41:26Z</time>
</trkpt>
<trkpt lat="51.19134462" lon="6.88548225">
<ele>90.5</ele>
<time>2011-09-30T15:41:30Z</time>
</trkpt>
<trkpt lat="51.19139437" lon="6.88518888">
<ele>92</ele>
<time>2011-09-30T15:41:34Z</time>
</trkpt>
<trkpt lat="51.19145199" lon="6.88489703">
<ele>93.5</ele>
<time>2011-09-30T15:41:38Z</time>
</trkpt>
<trkpt lat="51.19152114" lon="6.88461564">
<ele>95.5</ele>
<time>2011-09-30T15:41:42Z</time>
</trkpt>
<trkpt lat="51.19159507" lon="6.88433276">
<ele>96</ele>
<time>2011-09-30T15:41:46Z</time>
</trkpt>
<trkpt lat="51.19168132" lon="6.88405724">
<ele>96.5</ele>
<time>2011-09-30T15:41:50Z</time>
</trkpt>
<trkpt lat="51.19177189" lon="6.88377134">
<ele>97.5</ele>
<time>2011-09-30T15:41:54Z</time>
</trkpt>
<trkpt lat="51.19185801" lon="6.88350722">
<ele>97</ele>
<time>2011-09-30T15:41:58Z</time>
</trkpt>
<trkpt lat="51.19195453" lon="6.88323313">
<ele>96</ele>
<time>2011-09-30T15:42:02Z</time>
</trkpt>
<trkpt lat="51.19206794" lon="6.8829572">
<ele>95.5</ele>
<time>2011-09-30T15:42:06Z</time>
</trkpt>
<trkpt lat="51.19220268" lon="6.88269384">
<ele>96.5</ele>
<time>2011-09-30T15:42:11Z</time>
</trkpt>
<trkpt lat="51.19236407" lon="6.88241632">
<ele>96</ele>
<time>2011-09-30T15:42:15Z</time>
</trkpt>
<trkpt lat="51.19245057" lon="6.88224943">
<ele>94.5</ele>
<time>2011-09-30T15:42:19Z</time>
</trkpt>
<trkpt lat="51.19240191" lon="6.88209839">
<ele>92</ele>
<time>2011-09-30T15:42:23Z</time>
</trkpt>
<trkpt lat="51.19232618" lon="6.88198037">
<ele>90.5</ele>
<time>2011-09-30T15:42:27Z</time>
</trkpt>
<trkpt lat="51.19236629" lon="6.88181961">
<ele>91</ele>
<time>2011-09-30T15:42:31Z</time>
</trkpt>
<trkpt lat="51.19247752" lon="6.88165625">
<ele>89.5</ele>
<time>2011-09-30T15:42:35Z</time>
</trkpt>
<trkpt lat="51.1925755" lon="6.88148081">
<ele>88.5</ele>
<time>2011-09-30T15:42:39Z</time>
</trkpt>
<trkpt lat="51.19269402" lon="6.88127906">
<ele>87.5</ele>
<time>2011-09-30T15:42:43Z</time>
</trkpt>
<trkpt lat="51.19281175" lon="6.88106306">
<ele>88.5</ele>
<time>2011-09-30T15:42:47Z</time>
</trkpt>
<trkpt lat="51.1929355" lon="6.8808567">
<ele>88</ele>
<time>2011-09-30T15:42:51Z</time>
</trkpt>
<trkpt lat="51.19305993" lon="6.88064815">
<ele>87</ele>
<time>2011-09-30T15:42:55Z</time>
</trkpt>
<trkpt lat="51.19317996" lon="6.88044062">
<ele>87</ele>
<time>2011-09-30T15:42:59Z</time>
</trkpt>
<trkpt lat="51.19329077" lon="6.8802366">
<ele>86.5</ele>
<time>2011-09-30T15:43:03Z</time>
</trkpt>
<trkpt lat="51.19339601" lon="6.88004441">
<ele>86</ele>
<time>2011-09-30T15:43:07Z</time>
</trkpt>
<trkpt lat="51.19351428" lon="6.87983654">
<ele>85.5</ele>
<time>2011-09-30T15:43:11Z</time>
</trkpt>
<trkpt lat="51.19360727" lon="6.87964006">
<ele>84.5</ele>
<time>2011-09-30T15:43:15Z</time>
</trkpt>
<trkpt lat="51.19366712" lon="6.87949413">
<ele>83.5</ele>
<time>2011-09-30T15:43:19Z</time>
</trkpt>
<trkpt lat="51.19371439" lon="6.87937788">
<ele>83.5</ele>
<time>2011-09-30T15:43:23Z</time>
</trkpt>
<trkpt lat="51.19377634" lon="6.8792172">
<ele>83.5</ele>
<time>2011-09-30T15:43:27Z</time>
</trkpt>
<trkpt lat="51.19385223" lon="6.87897823">
<ele>83.5</ele>
<time>2011-09-30T15:43:31Z</time>
</trkpt>
<trkpt lat="51.19392117" lon="6.87871143">
<ele>84</ele>
<time>2011-09-30T15:43:35Z</time>
</trkpt>
<trkpt lat="51.19398877" lon="6.87843273">
<ele>84</ele>
<time>2011-09-30T15:43:39Z</time>
</trkpt>
<trkpt lat="51.19407368" lon="6.87809017">
<ele>83.5</ele>
<time>2011-09-30T15:43:44Z</time>
</trkpt>
<trkpt lat="51.19413399" lon="6.87779009">
<ele>81.5</ele>
<time>2011-09-30T15:43:48Z</time>
</trkpt>
<trkpt lat="51.19420817" lon="6.87752514">
<ele>81.5</ele>
<time>2011-09-30T15:43:52Z</time>
</trkpt>
<trkpt lat="51.1942619" lon="6.87726078">
<ele>81</ele>
<time>2011-09-30T15:43:56Z</time>
</trkpt>
<trkpt lat="51.19432334" lon="6.87699029">
<ele>81</ele>
<time>2011-09-30T15:44:00Z</time>
</trkpt>
<trkpt lat="51.19437652" lon="6.87671604">
<ele>80</ele>
<time>2011-09-30T15:44:04Z</time>
</trkpt>
<trkpt lat="51.19444194" lon="6.87646986">
<ele>0</ele>
<time>2011-09-30T15:44:08Z</time>
</trkpt>
<trkpt lat="51.19451428" lon="6.87625478">
<ele>0</ele>
<time>2011-09-30T15:44:12Z</time>
</trkpt>
<trkpt lat="51.19458456" lon="6.87605546">
<ele>81</ele>
<time>2011-09-30T15:44:16Z</time>
</trkpt>
<trkpt lat="51.19463535" lon="6.87594775">
<ele>81.5</ele>
<time>2011-09-30T15:44:20Z</time>
</trkpt>
<trkpt lat="51.1946771" lon="6.87596041">
<ele>0</ele>
<time>2011-09-30T15:44:24Z</time>
</trkpt>
<trkpt lat="51.19475459" lon="6.87600165">
<ele>0</ele>
<time>2011-09-30T15:44:28Z</time>
</trkpt>
<trkpt lat="51.19486129" lon="6.8758636">
<ele>78.5</ele>
<time>2011-09-30T15:44:32Z</time>
</trkpt>
<trkpt lat="51.19491011" lon="6.87560116">
<ele>79</ele>
<time>2011-09-30T15:44:36Z</time>
</trkpt>
<trkpt lat="51.19493409" lon="6.87532539">
<ele>79.5</ele>
<time>2011-09-30T15:44:40Z</time>
</trkpt>
<trkpt lat="51.19493849" lon="6.8750358">
<ele>76.5</ele>
<time>2011-09-30T15:44:44Z</time>
</trkpt>
<trkpt lat="51.19493078" lon="6.87475995">
<ele>72</ele>
<time>2011-09-30T15:44:48Z</time>
</trkpt>
<trkpt lat="51.19493287" lon="6.87449282">
<ele>69</ele>
<time>2011-09-30T15:44:52Z</time>
</trkpt>
<trkpt lat="51.19494331" lon="6.87423315">
<ele>67</ele>
<time>2011-09-30T15:44:56Z</time>
</trkpt>
<trkpt lat="51.19496665" lon="6.87397314">
<ele>66.5</ele>
<time>2011-09-30T15:45:00Z</time>
</trkpt>
<trkpt lat="51.19505458" lon="6.87374583">
<ele>69.5</ele>
<time>2011-09-30T15:45:04Z</time>
</trkpt>
<trkpt lat="51.19522192" lon="6.87360845">
<ele>70.5</ele>
<time>2011-09-30T15:45:08Z</time>
</trkpt>
<trkpt lat="51.19539526" lon="6.87349613">
<ele>70.5</ele>
<time>2011-09-30T15:45:12Z</time>
</trkpt>
<trkpt lat="51.19559512" lon="6.87336168">
<ele>70.5</ele>
<time>2011-09-30T15:45:17Z</time>
</trkpt>
<trkpt lat="51.19567018" lon="6.87330628">
<ele>72</ele>
<time>2011-09-30T15:45:21Z</time>
</trkpt>
<trkpt lat="51.19565292" lon="6.87331768">
<ele>72.5</ele>
<time>2011-09-30T15:45:25Z</time>
</trkpt>
<trkpt lat="51.19560556" lon="6.87332447">
<ele>73.5</ele>
<time>2011-09-30T15:45:29Z</time>
</trkpt>
<trkpt lat="51.19555665" lon="6.8733538">
<ele>75.5</ele>
<time>2011-09-30T15:45:33Z</time>
</trkpt>
<trkpt lat="51.19554379" lon="6.87335414">
<ele>76</ele>
<time>2011-09-30T15:45:37Z</time>
</trkpt>
<trkpt lat="51.19554001" lon="6.87334768">
<ele>77.5</ele>
<time>2011-09-30T15:45:41Z</time>
</trkpt>
<trkpt lat="51.19554664" lon="6.87334249">
<ele>80</ele>
<time>2011-09-30T15:45:45Z</time>
</trkpt>
<trkpt lat="51.19558167" lon="6.87331676">
<ele>80.5</ele>
<time>2011-09-30T15:45:49Z</time>
</trkpt>
<trkpt lat="51.19570782" lon="6.8732259">
<ele>79.5</ele>
<time>2011-09-30T15:45:53Z</time>
</trkpt>
<trkpt lat="51.19582307" lon="6.87305817">
<ele>79</ele>
<time>2011-09-30T15:45:57Z</time>
</trkpt>
<trkpt lat="51.19586511" lon="6.87278358">
<ele>81.5</ele>
<time>2011-09-30T15:46:01Z</time>
</trkpt>
<trkpt lat="51.19589331" lon="6.87250773">
<ele>81.5</ele>
<time>2011-09-30T15:46:05Z</time>
</trkpt>
<trkpt lat="51.19595689" lon="6.87223356">
<ele>84</ele>
<time>2011-09-30T15:46:09Z</time>
</trkpt>
<trkpt lat="51.19607147" lon="6.87195285">
<ele>84</ele>
<time>2011-09-30T15:46:13Z</time>
</trkpt>
<trkpt lat="51.19617859" lon="6.8716817">
<ele>84</ele>
<time>2011-09-30T15:46:17Z</time>
</trkpt>
<trkpt lat="51.19627737" lon="6.87141172">
<ele>86</ele>
<time>2011-09-30T15:46:21Z</time>
</trkpt>
<trkpt lat="51.19638927" lon="6.87113704">
<ele>86</ele>
<time>2011-09-30T15:46:25Z</time>
</trkpt>
<trkpt lat="51.19649186" lon="6.87087603">
<ele>0</ele>
<time>2011-09-30T15:46:29Z</time>
</trkpt>
<trkpt lat="51.19659144" lon="6.87061594">
<ele>86.5</ele>
<time>2011-09-30T15:46:33Z</time>
</trkpt>
<trkpt lat="51.19676381" lon="6.87051443">
<ele>87</ele>
<time>2011-09-30T15:46:37Z</time>
</trkpt>
<trkpt lat="51.19693594" lon="6.87047915">
<ele>84.5</ele>
<time>2011-09-30T15:46:41Z</time>
</trkpt>
<trkpt lat="51.19706552" lon="6.87043715">
<ele>77.5</ele>
<time>2011-09-30T15:46:47Z</time>
</trkpt>
<trkpt lat="51.19730076" lon="6.87037018">
<ele>69.5</ele>
<time>2011-09-30T15:46:51Z</time>
</trkpt>
<trkpt lat="51.1974632" lon="6.87033003">
<ele>64</ele>
<time>2011-09-30T15:46:55Z</time>
</trkpt>
<trkpt lat="51.19760766" lon="6.87027278">
<ele>60</ele>
<time>2011-09-30T15:46:59Z</time>
</trkpt>
<trkpt lat="51.197767" lon="6.87022895">
<ele>58</ele>
<time>2011-09-30T15:47:03Z</time>
</trkpt>
<trkpt lat="51.19792215" lon="6.87023054">
<ele>59</ele>
<time>2011-09-30T15:47:07Z</time>
</trkpt>
<trkpt lat="51.19808836" lon="6.87022459">
<ele>57.5</ele>
<time>2011-09-30T15:47:11Z</time>
</trkpt>
<trkpt lat="51.19823006" lon="6.87019726">
<ele>55.5</ele>
<time>2011-09-30T15:47:15Z</time>
</trkpt>
<trkpt lat="51.19838462" lon="6.87016105">
<ele>54.5</ele>
<time>2011-09-30T15:47:19Z</time>
</trkpt>
<trkpt lat="51.1985712" lon="6.87016197">
<ele>54.5</ele>
<time>2011-09-30T15:47:23Z</time>
</trkpt>
<trkpt lat="51.19873243" lon="6.87015217">
<ele>54.5</ele>
<time>2011-09-30T15:47:27Z</time>
</trkpt>
<trkpt lat="51.19886331" lon="6.87013239">
<ele>53</ele>
<time>2011-09-30T15:47:31Z</time>
</trkpt>
<trkpt lat="51.19900987" lon="6.87014219">
<ele>49.5</ele>
<time>2011-09-30T15:47:35Z</time>
</trkpt>
<trkpt lat="51.19919746" lon="6.87015091">
<ele>44.5</ele>
<time>2011-09-30T15:47:39Z</time>
</trkpt>
<trkpt lat="51.19935579" lon="6.87016793">
<ele>39</ele>
<time>2011-09-30T15:47:43Z</time>
</trkpt>
<trkpt lat="51.19951953" lon="6.87016776">
<ele>38.5</ele>
<time>2011-09-30T15:47:47Z</time>
</trkpt>
<trkpt lat="51.19967606" lon="6.8701468">
<ele>36</ele>
<time>2011-09-30T15:47:51Z</time>
</trkpt>
<trkpt lat="51.19983398" lon="6.87018796">
<ele>39</ele>
<time>2011-09-30T15:47:55Z</time>
</trkpt>
<trkpt lat="51.20000832" lon="6.87016415">
<ele>41.5</ele>
<time>2011-09-30T15:47:59Z</time>
</trkpt>
<trkpt lat="51.20023535" lon="6.8700168">
<ele>49</ele>
<time>2011-09-30T15:48:03Z</time>
</trkpt>
<trkpt lat="51.20040194" lon="6.86981522">
<ele>52</ele>
<time>2011-09-30T15:48:07Z</time>
</trkpt>
<trkpt lat="51.20059309" lon="6.86960349">
<ele>54</ele>
<time>2011-09-30T15:48:11Z</time>
</trkpt>
<trkpt lat="51.20078667" lon="6.8693688">
<ele>58.5</ele>
<time>2011-09-30T15:48:15Z</time>
</trkpt>
<trkpt lat="51.20099802" lon="6.86902061">
<ele>62.5</ele>
<time>2011-09-30T15:48:21Z</time>
</trkpt>
<trkpt lat="51.2011294" lon="6.86879187">
<ele>65</ele>
<time>2011-09-30T15:48:25Z</time>
</trkpt>
<trkpt lat="51.20126439" lon="6.86854804">
<ele>66.5</ele>
<time>2011-09-30T15:48:29Z</time>
</trkpt>
<trkpt lat="51.20140014" lon="6.86831527">
<ele>67.5</ele>
<time>2011-09-30T15:48:33Z</time>
</trkpt>
<trkpt lat="51.20153337" lon="6.86809768">
<ele>71</ele>
<time>2011-09-30T15:48:37Z</time>
</trkpt>
<trkpt lat="51.20166061" lon="6.86787011">
<ele>73.5</ele>
<time>2011-09-30T15:48:41Z</time>
</trkpt>
<trkpt lat="51.20178474" lon="6.86763776">
<ele>75.5</ele>
<time>2011-09-30T15:48:45Z</time>
</trkpt>
<trkpt lat="51.20191345" lon="6.86742419">
<ele>78.5</ele>
<time>2011-09-30T15:48:49Z</time>
</trkpt>
<trkpt lat="51.2020258" lon="6.86721758">
<ele>80</ele>
<time>2011-09-30T15:48:53Z</time>
</trkpt>
<trkpt lat="51.20214164" lon="6.86698414">
<ele>81</ele>
<time>2011-09-30T15:48:57Z</time>
</trkpt>
<trkpt lat="51.2022693" lon="6.86677577">
<ele>80.5</ele>
<time>2011-09-30T15:49:01Z</time>
</trkpt>
<trkpt lat="51.20240328" lon="6.86652741">
<ele>81</ele>
<time>2011-09-30T15:49:05Z</time>
</trkpt>
<trkpt lat="51.20253551" lon="6.86626825">
<ele>83</ele>
<time>2011-09-30T15:49:09Z</time>
</trkpt>
<trkpt lat="51.20266161" lon="6.86603556">
<ele>84</ele>
<time>2011-09-30T15:49:13Z</time>
</trkpt>
<trkpt lat="51.20278609" lon="6.86579911">
<ele>83.5</ele>
<time>2011-09-30T15:49:17Z</time>
</trkpt>
<trkpt lat="51.2029088" lon="6.8655588">
<ele>85</ele>
<time>2011-09-30T15:49:21Z</time>
</trkpt>
<trkpt lat="51.20301231" lon="6.86534657">
<ele>87</ele>
<time>2011-09-30T15:49:25Z</time>
</trkpt>
<trkpt lat="51.20312044" lon="6.86512722">
<ele>87</ele>
<time>2011-09-30T15:49:29Z</time>
</trkpt>
<trkpt lat="51.20323569" lon="6.86488523">
<ele>87.5</ele>
<time>2011-09-30T15:49:33Z</time>
</trkpt>
<trkpt lat="51.20334922" lon="6.86464869">
<ele>89</ele>
<time>2011-09-30T15:49:37Z</time>
</trkpt>
<trkpt lat="51.20347101" lon="6.86438257">
<ele>89.5</ele>
<time>2011-09-30T15:49:41Z</time>
</trkpt>
<trkpt lat="51.20360299" lon="6.86411602">
<ele>88.5</ele>
<time>2011-09-30T15:49:45Z</time>
</trkpt>
<trkpt lat="51.20378093" lon="6.86371721">
<ele>88.5</ele>
<time>2011-09-30T15:49:51Z</time>
</trkpt>
<trkpt lat="51.20390071" lon="6.86345696">
<ele>90</ele>
<time>2011-09-30T15:49:55Z</time>
</trkpt>
<trkpt lat="51.20401873" lon="6.86320986">
<ele>90</ele>
<time>2011-09-30T15:49:59Z</time>
</trkpt>
<trkpt lat="51.20413063" lon="6.86296754">
<ele>91.5</ele>
<time>2011-09-30T15:50:03Z</time>
</trkpt>
<trkpt lat="51.2042349" lon="6.86270719">
<ele>92</ele>
<time>2011-09-30T15:50:07Z</time>
</trkpt>
<trkpt lat="51.20435509" lon="6.86248105">
<ele>94</ele>
<time>2011-09-30T15:50:11Z</time>
</trkpt>
<trkpt lat="51.20447206" lon="6.86224317">
<ele>94.5</ele>
<time>2011-09-30T15:50:15Z</time>
</trkpt>
<trkpt lat="51.2045884" lon="6.86201527">
<ele>96</ele>
<time>2011-09-30T15:50:19Z</time>
</trkpt>
<trkpt lat="51.20469435" lon="6.86177965">
<ele>97</ele>
<time>2011-09-30T15:50:23Z</time>
</trkpt>
<trkpt lat="51.20481551" lon="6.86152585">
<ele>97</ele>
<time>2011-09-30T15:50:27Z</time>
</trkpt>
<trkpt lat="51.20493055" lon="6.86129325">
<ele>96</ele>
<time>2011-09-30T15:50:31Z</time>
</trkpt>
<trkpt lat="51.20503403" lon="6.86108521">
<ele>95.5</ele>
<time>2011-09-30T15:50:35Z</time>
</trkpt>
<trkpt lat="51.2051238" lon="6.8608361">
<ele>95.5</ele>
<time>2011-09-30T15:50:39Z</time>
</trkpt>
<trkpt lat="51.20516671" lon="6.86059479">
<ele>91</ele>
<time>2011-09-30T15:50:43Z</time>
</trkpt>
<trkpt lat="51.20525875" lon="6.8605419">
<ele>91</ele>
<time>2011-09-30T15:50:47Z</time>
</trkpt>
<trkpt lat="51.20536784" lon="6.86057827">
<ele>91</ele>
<time>2011-09-30T15:50:51Z</time>
</trkpt>
<trkpt lat="51.20544503" lon="6.86064902">
<ele>90.5</ele>
<time>2011-09-30T15:50:55Z</time>
</trkpt>
<trkpt lat="51.20551972" lon="6.86069621">
<ele>0</ele>
<time>2011-09-30T15:50:59Z</time>
</trkpt>
<trkpt lat="51.20557768" lon="6.86072479">
<ele>0</ele>
<time>2011-09-30T15:51:03Z</time>
</trkpt>
<trkpt lat="51.20558849" lon="6.8607299">
<ele>89</ele>
<time>2011-09-30T15:51:07Z</time>
</trkpt>
<trkpt lat="51.20559914" lon="6.86071649">
<ele>88.5</ele>
<time>2011-09-30T15:51:11Z</time>
</trkpt>
<trkpt lat="51.20560429" lon="6.86071238">
<ele>88</ele>
<time>2011-09-30T15:51:15Z</time>
</trkpt>
<trkpt lat="51.20560245" lon="6.86071607">
<ele>87.5</ele>
<time>2011-09-30T15:51:19Z</time>
</trkpt>
<trkpt lat="51.20559775" lon="6.86072077">
<ele>88</ele>
<time>2011-09-30T15:51:24Z</time>
</trkpt>
<trkpt lat="51.20560974" lon="6.86071825">
<ele>88.5</ele>
<time>2011-09-30T15:51:28Z</time>
</trkpt>
<trkpt lat="51.20561447" lon="6.86071079">
<ele>89</ele>
<time>2011-09-30T15:51:32Z</time>
</trkpt>
<trkpt lat="51.20560953" lon="6.86070031">
<ele>90.5</ele>
<time>2011-09-30T15:51:36Z</time>
</trkpt>
<trkpt lat="51.20560404" lon="6.86069135">
<ele>90.5</ele>
<time>2011-09-30T15:51:40Z</time>
</trkpt>
<trkpt lat="51.20559909" lon="6.86068892">
<ele>0</ele>
<time>2011-09-30T15:51:44Z</time>
</trkpt>
<trkpt lat="51.20559415" lon="6.8606802">
<ele>89</ele>
<time>2011-09-30T15:51:48Z</time>
</trkpt>
<trkpt lat="51.20558799" lon="6.86067802">
<ele>88.5</ele>
<time>2011-09-30T15:51:52Z</time>
</trkpt>
<trkpt lat="51.20558451" lon="6.86067299">
<ele>88.5</ele>
<time>2011-09-30T15:51:56Z</time>
</trkpt>
<trkpt lat="51.20558363" lon="6.86067458">
<ele>88</ele>
<time>2011-09-30T15:52:00Z</time>
</trkpt>
<trkpt lat="51.20558308" lon="6.86067048">
<ele>88</ele>
<time>2011-09-30T15:52:04Z</time>
</trkpt>
<trkpt lat="51.20558526" lon="6.86066846">
<ele>0</ele>
<time>2011-09-30T15:52:08Z</time>
</trkpt>
<trkpt lat="51.2055851" lon="6.86066763">
<ele>86.5</ele>
<time>2011-09-30T15:52:12Z</time>
</trkpt>
<trkpt lat="51.20558698" lon="6.86066444">
<ele>86</ele>
<time>2011-09-30T15:52:16Z</time>
</trkpt>
<trkpt lat="51.20558996" lon="6.86065983">
<ele>86</ele>
<time>2011-09-30T15:52:20Z</time>
</trkpt>
<trkpt lat="51.20559683" lon="6.86066218">
<ele>86.5</ele>
<time>2011-09-30T15:52:24Z</time>
</trkpt>
<trkpt lat="51.20560215" lon="6.86066159">
<ele>87</ele>
<time>2011-09-30T15:52:28Z</time>
</trkpt>
<trkpt lat="51.20560639" lon="6.86066352">
<ele>87</ele>
<time>2011-09-30T15:52:32Z</time>
</trkpt>
<trkpt lat="51.20560802" lon="6.86066763">
<ele>0</ele>
<time>2011-09-30T15:52:36Z</time>
</trkpt>
<trkpt lat="51.2056713" lon="6.86074231">
<ele>86.5</ele>
<time>2011-09-30T15:52:40Z</time>
</trkpt>
<trkpt lat="51.20569318" lon="6.86076745">
<ele>87</ele>
<time>2011-09-30T15:52:44Z</time>
</trkpt>
<trkpt lat="51.20569528" lon="6.86076242">
<ele>86.5</ele>
<time>2011-09-30T15:52:48Z</time>
</trkpt>
<trkpt lat="51.2056967" lon="6.86075396">
<ele>86.5</ele>
<time>2011-09-30T15:52:54Z</time>
</trkpt>
<trkpt lat="51.20571208" lon="6.86075807">
<ele>0</ele>
<time>2011-09-30T15:52:58Z</time>
</trkpt>
<trkpt lat="51.20571447" lon="6.86076108">
<ele>87</ele>
<time>2011-09-30T15:53:02Z</time>
</trkpt>
<trkpt lat="51.20571594" lon="6.86076678">
<ele>0</ele>
<time>2011-09-30T15:53:06Z</time>
</trkpt>
<trkpt lat="51.20571476" lon="6.86077005">
<ele>0</ele>
<time>2011-09-30T15:53:10Z</time>
</trkpt>
<trkpt lat="51.20572176" lon="6.8607703">
<ele>86</ele>
<time>2011-09-30T15:53:14Z</time>
</trkpt>
<trkpt lat="51.20572776" lon="6.86076963">
<ele>85.5</ele>
<time>2011-09-30T15:53:18Z</time>
</trkpt>
<trkpt lat="51.20572859" lon="6.86077097">
<ele>84.5</ele>
<time>2011-09-30T15:53:22Z</time>
</trkpt>
<trkpt lat="51.20572805" lon="6.86077483">
<ele>84</ele>
<time>2011-09-30T15:53:26Z</time>
</trkpt>
<trkpt lat="51.20572813" lon="6.86077827">
<ele>0</ele>
<time>2011-09-30T15:53:30Z</time>
</trkpt>
<trkpt lat="51.20572591" lon="6.86078388">
<ele>0</ele>
<time>2011-09-30T15:53:34Z</time>
</trkpt>
<trkpt lat="51.20572289" lon="6.86078774">
<ele>83</ele>
<time>2011-09-30T15:53:38Z</time>
</trkpt>
<trkpt lat="51.2057221" lon="6.86079">
<ele>83</ele>
<time>2011-09-30T15:53:42Z</time>
</trkpt>
<trkpt lat="51.20572101" lon="6.86078933">
<ele>0</ele>
<time>2011-09-30T15:53:46Z</time>
</trkpt>
<trkpt lat="51.20572595" lon="6.86078665">
<ele>83.5</ele>
<time>2011-09-30T15:53:50Z</time>
</trkpt>
<trkpt lat="51.20572897" lon="6.86078531">
<ele>83</ele>
<time>2011-09-30T15:53:54Z</time>
</trkpt>
<trkpt lat="51.20573174" lon="6.86078271">
<ele>0</ele>
<time>2011-09-30T15:53:58Z</time>
</trkpt>
<trkpt lat="51.20573253" lon="6.86078128">
<ele>0</ele>
<time>2011-09-30T15:54:02Z</time>
</trkpt>
<trkpt lat="51.20573333" lon="6.8607843">
<ele>82.5</ele>
<time>2011-09-30T15:54:06Z</time>
</trkpt>
<trkpt lat="51.2057304" lon="6.86079009">
<ele>83</ele>
<time>2011-09-30T15:54:10Z</time>
</trkpt>
<trkpt lat="51.20572482" lon="6.86079537">
<ele>0</ele>
<time>2011-09-30T15:54:14Z</time>
</trkpt>
<trkpt lat="51.20570668" lon="6.86080752">
<ele>0</ele>
<time>2011-09-30T15:54:18Z</time>
</trkpt>
<trkpt lat="51.205706" lon="6.86080408">
<ele>79.5</ele>
<time>2011-09-30T15:54:22Z</time>
</trkpt>
<trkpt lat="51.20570923" lon="6.86079361">
<ele>0</ele>
<time>2011-09-30T15:54:28Z</time>
</trkpt>
<trkpt lat="51.20570961" lon="6.86079168">
<ele>0</ele>
<time>2011-09-30T15:54:32Z</time>
</trkpt>
<trkpt lat="51.20570818" lon="6.86079126">
<ele>80</ele>
<time>2011-09-30T15:54:36Z</time>
</trkpt>
<trkpt lat="51.20570906" lon="6.86078967">
<ele>0</ele>
<time>2011-09-30T15:54:40Z</time>
</trkpt>
<trkpt lat="51.20571015" lon="6.86079084">
<ele>80.5</ele>
<time>2011-09-30T15:54:44Z</time>
</trkpt>
<trkpt lat="51.20578065" lon="6.86088338">
<ele>79.5</ele>
<time>2011-09-30T15:54:48Z</time>
</trkpt>
<trkpt lat="51.20587498" lon="6.8608382">
<ele>81.5</ele>
<time>2011-09-30T15:54:52Z</time>
</trkpt>
<trkpt lat="51.20595788" lon="6.86065606">
<ele>82</ele>
<time>2011-09-30T15:54:56Z</time>
</trkpt>
<trkpt lat="51.20603491" lon="6.86044014">
<ele>83</ele>
<time>2011-09-30T15:55:00Z</time>
</trkpt>
<trkpt lat="51.20612057" lon="6.86019941">
<ele>83.5</ele>
<time>2011-09-30T15:55:04Z</time>
</trkpt>
<trkpt lat="51.20620988" lon="6.85994578">
<ele>84</ele>
<time>2011-09-30T15:55:08Z</time>
</trkpt>
<trkpt lat="51.20630091" lon="6.8596856">
<ele>0</ele>
<time>2011-09-30T15:55:12Z</time>
</trkpt>
<trkpt lat="51.20638213" lon="6.85944445">
<ele>0</ele>
<time>2011-09-30T15:55:16Z</time>
</trkpt>
<trkpt lat="51.20646046" lon="6.85918512">
<ele>83.5</ele>
<time>2011-09-30T15:55:20Z</time>
</trkpt>
<trkpt lat="51.20656159" lon="6.85893768">
<ele>84</ele>
<time>2011-09-30T15:55:24Z</time>
</trkpt>
<trkpt lat="51.20663853" lon="6.8586724">
<ele>84</ele>
<time>2011-09-30T15:55:28Z</time>
</trkpt>
<trkpt lat="51.20671045" lon="6.85839236">
<ele>0</ele>
<time>2011-09-30T15:55:32Z</time>
</trkpt>
<trkpt lat="51.20679385" lon="6.85812891">
<ele>84.5</ele>
<time>2011-09-30T15:55:36Z</time>
</trkpt>
<trkpt lat="51.20685374" lon="6.85787452">
<ele>84</ele>
<time>2011-09-30T15:55:40Z</time>
</trkpt>
<trkpt lat="51.20691535" lon="6.85777159">
<ele>82.5</ele>
<time>2011-09-30T15:55:44Z</time>
</trkpt>
<trkpt lat="51.20699774" lon="6.85780294">
<ele>81</ele>
<time>2011-09-30T15:55:48Z</time>
</trkpt>
<trkpt lat="51.20714899" lon="6.85790076">
<ele>80</ele>
<time>2011-09-30T15:55:52Z</time>
</trkpt>
<trkpt lat="51.20730531" lon="6.85799623">
<ele>79.5</ele>
<time>2011-09-30T15:55:58Z</time>
</trkpt>
<trkpt lat="51.2075377" lon="6.85816789">
<ele>79.5</ele>
<time>2011-09-30T15:56:02Z</time>
</trkpt>
<trkpt lat="51.20768962" lon="6.85828138">
<ele>79</ele>
<time>2011-09-30T15:56:06Z</time>
</trkpt>
<trkpt lat="51.20785655" lon="6.85838481">
<ele>79.5</ele>
<time>2011-09-30T15:56:10Z</time>
</trkpt>
<trkpt lat="51.2080117" lon="6.85849587">
<ele>78.5</ele>
<time>2011-09-30T15:56:14Z</time>
</trkpt>
<trkpt lat="51.20816819" lon="6.85862244">
<ele>79.5</ele>
<time>2011-09-30T15:56:18Z</time>
</trkpt>
<trkpt lat="51.20831621" lon="6.85876166">
<ele>81</ele>
<time>2011-09-30T15:56:22Z</time>
</trkpt>
<trkpt lat="51.20843654" lon="6.85890022">
<ele>81.5</ele>
<time>2011-09-30T15:56:26Z</time>
</trkpt>
<trkpt lat="51.20847551" lon="6.85891354">
<ele>82</ele>
<time>2011-09-30T15:56:30Z</time>
</trkpt>
<trkpt lat="51.20854227" lon="6.85886845">
<ele>81.5</ele>
<time>2011-09-30T15:56:34Z</time>
</trkpt>
<trkpt lat="51.20863858" lon="6.85884984">
<ele>82</ele>
<time>2011-09-30T15:56:38Z</time>
</trkpt>
<trkpt lat="51.20872236" lon="6.8589464">
<ele>83</ele>
<time>2011-09-30T15:56:42Z</time>
</trkpt>
<trkpt lat="51.20877571" lon="6.8589542">
<ele>84</ele>
<time>2011-09-30T15:56:46Z</time>
</trkpt>
<trkpt lat="51.20878686" lon="6.85896073">
<ele>84.5</ele>
<time>2011-09-30T15:56:50Z</time>
</trkpt>
<trkpt lat="51.2088597" lon="6.85908571">
<ele>84.5</ele>
<time>2011-09-30T15:56:54Z</time>
</trkpt>
<trkpt lat="51.2089835" lon="6.85921269">
<ele>83.5</ele>
<time>2011-09-30T15:56:58Z</time>
</trkpt>
<trkpt lat="51.2090998" lon="6.85935552">
<ele>83</ele>
<time>2011-09-30T15:57:02Z</time>
</trkpt>
<trkpt lat="51.20920922" lon="6.85954873">
<ele>83.5</ele>
<time>2011-09-30T15:57:06Z</time>
</trkpt>
<trkpt lat="51.20931626" lon="6.85969247">
<ele>0</ele>
<time>2011-09-30T15:57:10Z</time>
</trkpt>
<trkpt lat="51.2094129" lon="6.85964344">
<ele>0</ele>
<time>2011-09-30T15:57:14Z</time>
</trkpt>
<trkpt lat="51.20951118" lon="6.8594577">
<ele>81</ele>
<time>2011-09-30T15:57:18Z</time>
</trkpt>
<trkpt lat="51.20962413" lon="6.85926508">
<ele>80.5</ele>
<time>2011-09-30T15:57:22Z</time>
</trkpt>
<trkpt lat="51.20972412" lon="6.85906576">
<ele>76.5</ele>
<time>2011-09-30T15:57:26Z</time>
</trkpt>
<trkpt lat="51.20989796" lon="6.85875596">
<ele>76.5</ele>
<time>2011-09-30T15:57:32Z</time>
</trkpt>
<trkpt lat="51.20999729" lon="6.85854248">
<ele>74.5</ele>
<time>2011-09-30T15:57:36Z</time>
</trkpt>
<trkpt lat="51.21010676" lon="6.85833561">
<ele>71.5</ele>
<time>2011-09-30T15:57:40Z</time>
</trkpt>
<trkpt lat="51.21016824" lon="6.85817678">
<ele>70.5</ele>
<time>2011-09-30T15:57:44Z</time>
</trkpt>
<trkpt lat="51.21018798" lon="6.8580264">
<ele>70</ele>
<time>2011-09-30T15:57:48Z</time>
</trkpt>
<trkpt lat="51.21019896" lon="6.85776112">
<ele>68.5</ele>
<time>2011-09-30T15:57:52Z</time>
</trkpt>
<trkpt lat="51.21028395" lon="6.85746809">
<ele>70</ele>
<time>2011-09-30T15:57:56Z</time>
</trkpt>
<trkpt lat="51.21037183" lon="6.85715712">
<ele>71</ele>
<time>2011-09-30T15:58:00Z</time>
</trkpt>
<trkpt lat="51.21046106" lon="6.85685252">
<ele>71</ele>
<time>2011-09-30T15:58:04Z</time>
</trkpt>
<trkpt lat="51.21054634" lon="6.85655773">
<ele>71</ele>
<time>2011-09-30T15:58:08Z</time>
</trkpt>
<trkpt lat="51.21062388" lon="6.85625849">
<ele>72</ele>
<time>2011-09-30T15:58:12Z</time>
</trkpt>
<trkpt lat="51.21069684" lon="6.85595054">
<ele>73</ele>
<time>2011-09-30T15:58:16Z</time>
</trkpt>
<trkpt lat="51.2107921" lon="6.85565433">
<ele>74</ele>
<time>2011-09-30T15:58:20Z</time>
</trkpt>
<trkpt lat="51.21087701" lon="6.85536146">
<ele>76</ele>
<time>2011-09-30T15:58:24Z</time>
</trkpt>
<trkpt lat="51.21095375" lon="6.85508519">
<ele>77</ele>
<time>2011-09-30T15:58:28Z</time>
</trkpt>
<trkpt lat="51.21104373" lon="6.85484204">
<ele>76.5</ele>
<time>2011-09-30T15:58:32Z</time>
</trkpt>
<trkpt lat="51.21108677" lon="6.85460248">
<ele>77.5</ele>
<time>2011-09-30T15:58:36Z</time>
</trkpt>
<trkpt lat="51.21112516" lon="6.85445756">
<ele>78</ele>
<time>2011-09-30T15:58:40Z</time>
</trkpt>
<trkpt lat="51.21118002" lon="6.85430165">
<ele>77</ele>
<time>2011-09-30T15:58:44Z</time>
</trkpt>
<trkpt lat="51.21124418" lon="6.85410577">
<ele>78</ele>
<time>2011-09-30T15:58:48Z</time>
</trkpt>
<trkpt lat="51.21132456" lon="6.85394207">
<ele>77.5</ele>
<time>2011-09-30T15:58:52Z</time>
</trkpt>
<trkpt lat="51.21140562" lon="6.85393411">
<ele>78</ele>
<time>2011-09-30T15:58:56Z</time>
</trkpt>
<trkpt lat="51.2115792" lon="6.85418271">
<ele>78.5</ele>
<time>2011-09-30T15:59:02Z</time>
</trkpt>
<trkpt lat="51.21169944" lon="6.85439419">
<ele>79</ele>
<time>2011-09-30T15:59:06Z</time>
</trkpt>
<trkpt lat="51.21182488" lon="6.85461748">
<ele>0</ele>
<time>2011-09-30T15:59:10Z</time>
</trkpt>
<trkpt lat="51.21195786" lon="6.85482217">
<ele>0</ele>
<time>2011-09-30T15:59:14Z</time>
</trkpt>
<trkpt lat="51.21209063" lon="6.85504655">
<ele>80.5</ele>
<time>2011-09-30T15:59:18Z</time>
</trkpt>
<trkpt lat="51.21224888" lon="6.85524319">
<ele>81.5</ele>
<time>2011-09-30T15:59:22Z</time>
</trkpt>
<trkpt lat="51.21241501" lon="6.85538828">
<ele>82</ele>
<time>2011-09-30T15:59:26Z</time>
</trkpt>
<trkpt lat="51.2125852" lon="6.85551259">
<ele>82</ele>
<time>2011-09-30T15:59:30Z</time>
</trkpt>
<trkpt lat="51.21274232" lon="6.85561049">
<ele>82.5</ele>
<time>2011-09-30T15:59:34Z</time>
</trkpt>
<trkpt lat="51.21283741" lon="6.85564527">
<ele>82.5</ele>
<time>2011-09-30T15:59:38Z</time>
</trkpt>
<trkpt lat="51.21286851" lon="6.85564418">
<ele>82</ele>
<time>2011-09-30T15:59:42Z</time>
</trkpt>
<trkpt lat="51.21293137" lon="6.85568064">
<ele>80.5</ele>
<time>2011-09-30T15:59:46Z</time>
</trkpt>
<trkpt lat="51.21308112" lon="6.85569925">
<ele>81</ele>
<time>2011-09-30T15:59:50Z</time>
</trkpt>
<trkpt lat="51.21324062" lon="6.85567989">
<ele>82.5</ele>
<time>2011-09-30T15:59:54Z</time>
</trkpt>
<trkpt lat="51.21342653" lon="6.85567419">
<ele>82.5</ele>
<time>2011-09-30T15:59:58Z</time>
</trkpt>
<trkpt lat="51.21360884" lon="6.85565609">
<ele>0</ele>
<time>2011-09-30T16:00:02Z</time>
</trkpt>
<trkpt lat="51.21377992" lon="6.85562264">
<ele>82.5</ele>
<time>2011-09-30T16:00:06Z</time>
</trkpt>
<trkpt lat="51.21396155" lon="6.85559607">
<ele>82</ele>
<time>2011-09-30T16:00:10Z</time>
</trkpt>
<trkpt lat="51.21414268" lon="6.85556296">
<ele>81.5</ele>
<time>2011-09-30T16:00:14Z</time>
</trkpt>
<trkpt lat="51.21430919" lon="6.85554553">
<ele>80</ele>
<time>2011-09-30T16:00:18Z</time>
</trkpt>
<trkpt lat="51.21448567" lon="6.85553413">
<ele>79.5</ele>
<time>2011-09-30T16:00:22Z</time>
</trkpt>
<trkpt lat="51.21467414" lon="6.85552575">
<ele>78</ele>
<time>2011-09-30T16:00:26Z</time>
</trkpt>
<trkpt lat="51.21483591" lon="6.85548468">
<ele>76</ele>
<time>2011-09-30T16:00:30Z</time>
</trkpt>
<trkpt lat="51.21507396" lon="6.85544377">
<ele>70.5</ele>
<time>2011-09-30T16:00:36Z</time>
</trkpt>
<trkpt lat="51.21526393" lon="6.85541502">
<ele>71</ele>
<time>2011-09-30T16:00:40Z</time>
</trkpt>
<trkpt lat="51.21545336" lon="6.85540086">
<ele>72</ele>
<time>2011-09-30T16:00:44Z</time>
</trkpt>
<trkpt lat="51.21564845" lon="6.85538594">
<ele>72</ele>
<time>2011-09-30T16:00:48Z</time>
</trkpt>
<trkpt lat="51.21584404" lon="6.85535375">
<ele>73.5</ele>
<time>2011-09-30T16:00:52Z</time>
</trkpt>
<trkpt lat="51.21604973" lon="6.85533506">
<ele>74</ele>
<time>2011-09-30T16:00:56Z</time>
</trkpt>
<trkpt lat="51.21626062" lon="6.8553136">
<ele>75</ele>
<time>2011-09-30T16:01:00Z</time>
</trkpt>
<trkpt lat="51.21646787" lon="6.85527798">
<ele>76.5</ele>
<time>2011-09-30T16:01:04Z</time>
</trkpt>
<trkpt lat="51.2166754" lon="6.85525166">
<ele>77.5</ele>
<time>2011-09-30T16:01:08Z</time>
</trkpt>
<trkpt lat="51.21687648" lon="6.85526415">
<ele>79</ele>
<time>2011-09-30T16:01:12Z</time>
</trkpt>
<trkpt lat="51.21707208" lon="6.85530044">
<ele>80</ele>
<time>2011-09-30T16:01:16Z</time>
</trkpt>
<trkpt lat="51.21727827" lon="6.85535786">
<ele>81.5</ele>
<time>2011-09-30T16:01:20Z</time>
</trkpt>
<trkpt lat="51.21748522" lon="6.85541259">
<ele>82</ele>
<time>2011-09-30T16:01:24Z</time>
</trkpt>
<trkpt lat="51.21765001" lon="6.85548937">
<ele>83</ele>
<time>2011-09-30T16:01:28Z</time>
</trkpt>
<trkpt lat="51.21774472" lon="6.85539264">
<ele>84</ele>
<time>2011-09-30T16:01:32Z</time>
</trkpt>
<trkpt lat="51.21777054" lon="6.8551401">
<ele>83.5</ele>
<time>2011-09-30T16:01:36Z</time>
</trkpt>
<trkpt lat="51.21784891" lon="6.85493767">
<ele>83.5</ele>
<time>2011-09-30T16:01:40Z</time>
</trkpt>
<trkpt lat="51.21798306" lon="6.85494002">
<ele>0</ele>
<time>2011-09-30T16:01:44Z</time>
</trkpt>
<trkpt lat="51.21810728" lon="6.85497296">
<ele>83</ele>
<time>2011-09-30T16:01:48Z</time>
</trkpt>
<trkpt lat="51.21813637" lon="6.85497874">
<ele>83.5</ele>
<time>2011-09-30T16:01:52Z</time>
</trkpt>
<trkpt lat="51.21813557" lon="6.85497824">
<ele>83.5</ele>
<time>2011-09-30T16:01:56Z</time>
</trkpt>
<trkpt lat="51.21814098" lon="6.85498671">
<ele>0</ele>
<time>2011-09-30T16:02:00Z</time>
</trkpt>
<trkpt lat="51.21814802" lon="6.85499635">
<ele>81</ele>
<time>2011-09-30T16:02:06Z</time>
</trkpt>
<trkpt lat="51.21814923" lon="6.8549935">
<ele>0</ele>
<time>2011-09-30T16:02:10Z</time>
</trkpt>
<trkpt lat="51.21814651" lon="6.85500842">
<ele>0</ele>
<time>2011-09-30T16:02:14Z</time>
</trkpt>
<trkpt lat="51.21814223" lon="6.85502191">
<ele>84.5</ele>
<time>2011-09-30T16:02:18Z</time>
</trkpt>
<trkpt lat="51.21814047" lon="6.8550323">
<ele>86</ele>
<time>2011-09-30T16:02:22Z</time>
</trkpt>
<trkpt lat="51.2181326" lon="6.85504496">
<ele>88</ele>
<time>2011-09-30T16:02:26Z</time>
</trkpt>
<trkpt lat="51.21812463" lon="6.85505854">
<ele>89</ele>
<time>2011-09-30T16:02:30Z</time>
</trkpt>
<trkpt lat="51.21812166" lon="6.855066">
<ele>89.5</ele>
<time>2011-09-30T16:02:34Z</time>
</trkpt>
<trkpt lat="51.21812652" lon="6.85506893">
<ele>90</ele>
<time>2011-09-30T16:02:38Z</time>
</trkpt>
<trkpt lat="51.21813758" lon="6.85507027">
<ele>91</ele>
<time>2011-09-30T16:02:42Z</time>
</trkpt>
<trkpt lat="51.21813423" lon="6.85507413">
<ele>91.5</ele>
<time>2011-09-30T16:02:46Z</time>
</trkpt>
<trkpt lat="51.21813021" lon="6.85507153">
<ele>92</ele>
<time>2011-09-30T16:02:50Z</time>
</trkpt>
<trkpt lat="51.21812727" lon="6.8550717">
<ele>92</ele>
<time>2011-09-30T16:02:54Z</time>
</trkpt>
<trkpt lat="51.21812413" lon="6.85507438">
<ele>91.5</ele>
<time>2011-09-30T16:02:58Z</time>
</trkpt>
<trkpt lat="51.21812128" lon="6.85507614">
<ele>91</ele>
<time>2011-09-30T16:03:02Z</time>
</trkpt>
<trkpt lat="51.21811562" lon="6.85507673">
<ele>91.5</ele>
<time>2011-09-30T16:03:06Z</time>
</trkpt>
<trkpt lat="51.21811981" lon="6.85507664">
<ele>0</ele>
<time>2011-09-30T16:03:10Z</time>
</trkpt>
<trkpt lat="51.21812321" lon="6.8550883">
<ele>0</ele>
<time>2011-09-30T16:03:14Z</time>
</trkpt>
<trkpt lat="51.2181279" lon="6.85508729">
<ele>93.5</ele>
<time>2011-09-30T16:03:18Z</time>
</trkpt>
<trkpt lat="51.21813255" lon="6.85509173">
<ele>0</ele>
<time>2011-09-30T16:03:22Z</time>
</trkpt>
<trkpt lat="51.21813096" lon="6.85508804">
<ele>0</ele>
<time>2011-09-30T16:03:26Z</time>
</trkpt>
<trkpt lat="51.21824211" lon="6.8551349">
<ele>94.5</ele>
<time>2011-09-30T16:03:30Z</time>
</trkpt>
<trkpt lat="51.21838577" lon="6.85517882">
<ele>94</ele>
<time>2011-09-30T16:03:34Z</time>
</trkpt>
<trkpt lat="51.21864938" lon="6.85527379">
<ele>93</ele>
<time>2011-09-30T16:03:40Z</time>
</trkpt>
<trkpt lat="51.21882741" lon="6.85531871">
<ele>92.5</ele>
<time>2011-09-30T16:03:44Z</time>
</trkpt>
<trkpt lat="51.21899321" lon="6.8553426">
<ele>92</ele>
<time>2011-09-30T16:03:48Z</time>
</trkpt>
<trkpt lat="51.21912585" lon="6.85519676">
<ele>91</ele>
<time>2011-09-30T16:03:52Z</time>
</trkpt>
<trkpt lat="51.21918188" lon="6.85495511">
<ele>90.5</ele>
<time>2011-09-30T16:03:56Z</time>
</trkpt>
<trkpt lat="51.21921068" lon="6.85474665">
<ele>90.5</ele>
<time>2011-09-30T16:04:00Z</time>
</trkpt>
<trkpt lat="51.21927203" lon="6.85464716">
<ele>0</ele>
<time>2011-09-30T16:04:04Z</time>
</trkpt>
<trkpt lat="51.21929227" lon="6.85463307">
<ele>88.5</ele>
<time>2011-09-30T16:04:08Z</time>
</trkpt>
<trkpt lat="51.2192937" lon="6.85463006">
<ele>89</ele>
<time>2011-09-30T16:04:12Z</time>
</trkpt>
<trkpt lat="51.21929278" lon="6.85462436">
<ele>88.5</ele>
<time>2011-09-30T16:04:16Z</time>
</trkpt>
<trkpt lat="51.21929584" lon="6.85462159">
<ele>89.5</ele>
<time>2011-09-30T16:04:20Z</time>
</trkpt>
<trkpt lat="51.21929081" lon="6.85462268">
<ele>89.5</ele>
<time>2011-09-30T16:04:24Z</time>
</trkpt>
<trkpt lat="51.21929797" lon="6.85461061">
<ele>89.5</ele>
<time>2011-09-30T16:04:28Z</time>
</trkpt>
<trkpt lat="51.21929273" lon="6.85461631">
<ele>0</ele>
<time>2011-09-30T16:04:32Z</time>
</trkpt>
<trkpt lat="51.21929613" lon="6.85460441">
<ele>87</ele>
<time>2011-09-30T16:04:36Z</time>
</trkpt>
<trkpt lat="51.21929525" lon="6.85459267">
<ele>87.5</ele>
<time>2011-09-30T16:04:40Z</time>
</trkpt>
<trkpt lat="51.21929068" lon="6.8545951">
<ele>87.5</ele>
<time>2011-09-30T16:04:44Z</time>
</trkpt>
<trkpt lat="51.21928812" lon="6.85459628">
<ele>87.5</ele>
<time>2011-09-30T16:04:48Z</time>
</trkpt>
<trkpt lat="51.21929227" lon="6.85459049">
<ele>87</ele>
<time>2011-09-30T16:04:52Z</time>
</trkpt>
<trkpt lat="51.21929072" lon="6.854591">
<ele>0</ele>
<time>2011-09-30T16:04:56Z</time>
</trkpt>
<trkpt lat="51.21929018" lon="6.85459033">
<ele>0</ele>
<time>2011-09-30T16:05:00Z</time>
</trkpt>
<trkpt lat="51.21928607" lon="6.85457968">
<ele>86.5</ele>
<time>2011-09-30T16:05:04Z</time>
</trkpt>
<trkpt lat="51.21928087" lon="6.85457071">
<ele>0</ele>
<time>2011-09-30T16:05:10Z</time>
</trkpt>
<trkpt lat="51.21927786" lon="6.85456795">
<ele>87</ele>
<time>2011-09-30T16:05:14Z</time>
</trkpt>
<trkpt lat="51.21927543" lon="6.8545656">
<ele>86.5</ele>
<time>2011-09-30T16:05:18Z</time>
</trkpt>
<trkpt lat="51.21927756" lon="6.85456879">
<ele>85.5</ele>
<time>2011-09-30T16:05:22Z</time>
</trkpt>
<trkpt lat="51.21927861" lon="6.85457348">
<ele>85.5</ele>
<time>2011-09-30T16:05:26Z</time>
</trkpt>
<trkpt lat="51.21927568" lon="6.85457021">
<ele>85</ele>
<time>2011-09-30T16:05:30Z</time>
</trkpt>
<trkpt lat="51.21927568" lon="6.85456501">
<ele>84.5</ele>
<time>2011-09-30T16:05:34Z</time>
</trkpt>
<trkpt lat="51.21927895" lon="6.85456216">
<ele>0</ele>
<time>2011-09-30T16:05:38Z</time>
</trkpt>
<trkpt lat="51.21928154" lon="6.85456627">
<ele>0</ele>
<time>2011-09-30T16:05:42Z</time>
</trkpt>
<trkpt lat="51.21928586" lon="6.85456493">
<ele>85.5</ele>
<time>2011-09-30T16:05:46Z</time>
</trkpt>
<trkpt lat="51.21929051" lon="6.85456325">
<ele>85</ele>
<time>2011-09-30T16:05:50Z</time>
</trkpt>
<trkpt lat="51.21929751" lon="6.85456091">
<ele>85.5</ele>
<time>2011-09-30T16:05:54Z</time>
</trkpt>
<trkpt lat="51.2193007" lon="6.85456082">
<ele>85.5</ele>
<time>2011-09-30T16:05:58Z</time>
</trkpt>
<trkpt lat="51.21929965" lon="6.85455554">
<ele>0</ele>
<time>2011-09-30T16:06:02Z</time>
</trkpt>
<trkpt lat="51.21929982" lon="6.85455387">
<ele>83.5</ele>
<time>2011-09-30T16:06:06Z</time>
</trkpt>
<trkpt lat="51.21930338" lon="6.85455278">
<ele>83.5</ele>
<time>2011-09-30T16:06:10Z</time>
</trkpt>
<trkpt lat="51.21930849" lon="6.85455051">
<ele>82.5</ele>
<time>2011-09-30T16:06:14Z</time>
</trkpt>
<trkpt lat="51.21930946" lon="6.85455546">
<ele>82</ele>
<time>2011-09-30T16:06:18Z</time>
</trkpt>
<trkpt lat="51.21930707" lon="6.8545635">
<ele>82.5</ele>
<time>2011-09-30T16:06:22Z</time>
</trkpt>
<trkpt lat="51.21930388" lon="6.85457281">
<ele>82.5</ele>
<time>2011-09-30T16:06:26Z</time>
</trkpt>
<trkpt lat="51.21930443" lon="6.85457348">
<ele>0</ele>
<time>2011-09-30T16:06:30Z</time>
</trkpt>
<trkpt lat="51.21930413" lon="6.85457289">
<ele>83</ele>
<time>2011-09-30T16:06:34Z</time>
</trkpt>
<trkpt lat="51.21930468" lon="6.8545708">
<ele>83.5</ele>
<time>2011-09-30T16:06:38Z</time>
</trkpt>
<trkpt lat="51.21930698" lon="6.85456158">
<ele>83</ele>
<time>2011-09-30T16:06:44Z</time>
</trkpt>
<trkpt lat="51.21930535" lon="6.85455923">
<ele>83.5</ele>
<time>2011-09-30T16:06:48Z</time>
</trkpt>
<trkpt lat="51.21929408" lon="6.85456384">
<ele>83.5</ele>
<time>2011-09-30T16:06:52Z</time>
</trkpt>
<trkpt lat="51.21928448" lon="6.85457138">
<ele>0</ele>
<time>2011-09-30T16:06:56Z</time>
</trkpt>
<trkpt lat="51.21928377" lon="6.85457943">
<ele>85</ele>
<time>2011-09-30T16:07:00Z</time>
</trkpt>
<trkpt lat="51.21928574" lon="6.8545879">
<ele>85</ele>
<time>2011-09-30T16:07:04Z</time>
</trkpt>
<trkpt lat="51.21928603" lon="6.85459628">
<ele>0</ele>
<time>2011-09-30T16:07:08Z</time>
</trkpt>
<trkpt lat="51.2192862" lon="6.85460349">
<ele>85.5</ele>
<time>2011-09-30T16:07:12Z</time>
</trkpt>
<trkpt lat="51.21928909" lon="6.85460676">
<ele>85</ele>
<time>2011-09-30T16:07:16Z</time>
</trkpt>
<trkpt lat="51.21929001" lon="6.8546029">
<ele>84.5</ele>
<time>2011-09-30T16:07:20Z</time>
</trkpt>
<trkpt lat="51.21928712" lon="6.85459485">
<ele>84</ele>
<time>2011-09-30T16:07:24Z</time>
</trkpt>
<trkpt lat="51.21928653" lon="6.85458966">
<ele>0</ele>
<time>2011-09-30T16:07:28Z</time>
</trkpt>
<trkpt lat="51.2192898" lon="6.85459209">
<ele>0</ele>
<time>2011-09-30T16:07:32Z</time>
</trkpt>
<trkpt lat="51.21929525" lon="6.85459829">
<ele>83.5</ele>
<time>2011-09-30T16:07:36Z</time>
</trkpt>
<trkpt lat="51.21929571" lon="6.85460181">
<ele>84.5</ele>
<time>2011-09-30T16:07:40Z</time>
</trkpt>
<trkpt lat="51.2192973" lon="6.85460223">
<ele>84.5</ele>
<time>2011-09-30T16:07:44Z</time>
</trkpt>
<trkpt lat="51.21929529" lon="6.85460189">
<ele>0</ele>
<time>2011-09-30T16:07:48Z</time>
</trkpt>
<trkpt lat="51.21929232" lon="6.85460055">
<ele>84.5</ele>
<time>2011-09-30T16:07:52Z</time>
</trkpt>
<trkpt lat="51.21929244" lon="6.85459913">
<ele>85</ele>
<time>2011-09-30T16:07:56Z</time>
</trkpt>
<trkpt lat="51.21929278" lon="6.8545941">
<ele>0</ele>
<time>2011-09-30T16:08:00Z</time>
</trkpt>
<trkpt lat="51.2192919" lon="6.85459184">
<ele>0</ele>
<time>2011-09-30T16:08:04Z</time>
</trkpt>
<trkpt lat="51.21928905" lon="6.85459318">
<ele>85</ele>
<time>2011-09-30T16:08:08Z</time>
</trkpt>
<trkpt lat="51.21928863" lon="6.85459854">
<ele>0</ele>
<time>2011-09-30T16:08:14Z</time>
</trkpt>
<trkpt lat="51.2192898" lon="6.85460349">
<ele>85</ele>
<time>2011-09-30T16:08:18Z</time>
</trkpt>
<trkpt lat="51.21929123" lon="6.85460256">
<ele>85</ele>
<time>2011-09-30T16:08:22Z</time>
</trkpt>
<trkpt lat="51.21929374" lon="6.85459913">
<ele>0</ele>
<time>2011-09-30T16:08:26Z</time>
</trkpt>
<trkpt lat="51.21929366" lon="6.85459251">
<ele>85.5</ele>
<time>2011-09-30T16:08:30Z</time>
</trkpt>
<trkpt lat="51.21929299" lon="6.85458957">
<ele>85.5</ele>
<time>2011-09-30T16:08:34Z</time>
</trkpt>
<trkpt lat="51.21928934" lon="6.85458706">
<ele>0</ele>
<time>2011-09-30T16:08:38Z</time>
</trkpt>
<trkpt lat="51.21928645" lon="6.85459292">
<ele>85.5</ele>
<time>2011-09-30T16:08:42Z</time>
</trkpt>
<trkpt lat="51.21928393" lon="6.85459619">
<ele>85</ele>
<time>2011-09-30T16:08:46Z</time>
</trkpt>
<trkpt lat="51.21928209" lon="6.85459636">
<ele>85</ele>
<time>2011-09-30T16:08:50Z</time>
</trkpt>
<trkpt lat="51.21927941" lon="6.85460156">
<ele>85.5</ele>
<time>2011-09-30T16:08:54Z</time>
</trkpt>
<trkpt lat="51.2192787" lon="6.85460508">
<ele>0</ele>
<time>2011-09-30T16:08:58Z</time>
</trkpt>
<trkpt lat="51.21927903" lon="6.85460533">
<ele>0</ele>
<time>2011-09-30T16:09:02Z</time>
</trkpt>
<trkpt lat="51.21927999" lon="6.85460131">
<ele>85</ele>
<time>2011-09-30T16:09:06Z</time>
</trkpt>
<trkpt lat="51.21928096" lon="6.85459737">
<ele>0</ele>
<time>2011-09-30T16:09:10Z</time>
</trkpt>
<trkpt lat="51.2192823" lon="6.85459611">
<ele>0</ele>
<time>2011-09-30T16:09:14Z</time>
</trkpt>
<trkpt lat="51.21928414" lon="6.85459385">
<ele>85</ele>
<time>2011-09-30T16:09:18Z</time>
</trkpt>
<trkpt lat="51.21928402" lon="6.85458957">
<ele>85.5</ele>
<time>2011-09-30T16:09:22Z</time>
</trkpt>
<trkpt lat="51.21928427" lon="6.85458547">
<ele>85</ele>
<time>2011-09-30T16:09:26Z</time>
</trkpt>
<trkpt lat="51.21928905" lon="6.85458337">
<ele>0</ele>
<time>2011-09-30T16:09:30Z</time>
</trkpt>
<trkpt lat="51.21928859" lon="6.85458605">
<ele>0</ele>
<time>2011-09-30T16:09:34Z</time>
</trkpt>
<trkpt lat="51.21928402" lon="6.85458848">
<ele>86.5</ele>
<time>2011-09-30T16:09:38Z</time>
</trkpt>
<trkpt lat="51.21927836" lon="6.85458597">
<ele>86.5</ele>
<time>2011-09-30T16:09:42Z</time>
</trkpt>
<trkpt lat="51.21927446" lon="6.85458329">
<ele>0</ele>
<time>2011-09-30T16:09:48Z</time>
</trkpt>
<trkpt lat="51.21927346" lon="6.85458253">
<ele>87.5</ele>
<time>2011-09-30T16:09:52Z</time>
</trkpt>
<trkpt lat="51.21927036" lon="6.85458479">
<ele>87</ele>
<time>2011-09-30T16:09:56Z</time>
</trkpt>
<trkpt lat="51.21926943" lon="6.85458404">
<ele>86.5</ele>
<time>2011-09-30T16:10:00Z</time>
</trkpt>
<trkpt lat="51.21927086" lon="6.85458102">
<ele>86</ele>
<time>2011-09-30T16:10:04Z</time>
</trkpt>
<trkpt lat="51.21927283" lon="6.85458127">
<ele>86</ele>
<time>2011-09-30T16:10:08Z</time>
</trkpt>
<trkpt lat="51.21927241" lon="6.85457733">
<ele>0</ele>
<time>2011-09-30T16:10:12Z</time>
</trkpt>
<trkpt lat="51.21927308" lon="6.85457784">
<ele>86.5</ele>
<time>2011-09-30T16:10:16Z</time>
</trkpt>
<trkpt lat="51.21927442" lon="6.85457842">
<ele>86</ele>
<time>2011-09-30T16:10:20Z</time>
</trkpt>
<trkpt lat="51.21927509" lon="6.85457725">
<ele>0</ele>
<time>2011-09-30T16:10:24Z</time>
</trkpt>
<trkpt lat="51.21927228" lon="6.85457231">
<ele>0</ele>
<time>2011-09-30T16:10:28Z</time>
</trkpt>
<trkpt lat="51.21926839" lon="6.85457423">
<ele>86</ele>
<time>2011-09-30T16:10:32Z</time>
</trkpt>
<trkpt lat="51.21926671" lon="6.85457658">
<ele>0</ele>
<time>2011-09-30T16:10:36Z</time>
</trkpt>
<trkpt lat="51.21926792" lon="6.85457624">
<ele>0</ele>
<time>2011-09-30T16:10:40Z</time>
</trkpt>
<trkpt lat="51.21926512" lon="6.85458387">
<ele>86</ele>
<time>2011-09-30T16:10:44Z</time>
</trkpt>
<trkpt lat="51.21926067" lon="6.85459443">
<ele>0</ele>
<time>2011-09-30T16:10:48Z</time>
</trkpt>
<trkpt lat="51.21925808" lon="6.85459686">
<ele>87</ele>
<time>2011-09-30T16:10:52Z</time>
</trkpt>
<trkpt lat="51.21925615" lon="6.85459527">
<ele>87.5</ele>
<time>2011-09-30T16:10:56Z</time>
</trkpt>
<trkpt lat="51.21925569" lon="6.85459594">
<ele>87.5</ele>
<time>2011-09-30T16:11:00Z</time>
</trkpt>
<trkpt lat="51.21925711" lon="6.85459745">
<ele>0</ele>
<time>2011-09-30T16:11:04Z</time>
</trkpt>
<trkpt lat="51.21925967" lon="6.85460089">
<ele>87.5</ele>
<time>2011-09-30T16:11:08Z</time>
</trkpt>
<trkpt lat="51.21926172" lon="6.85460441">
<ele>0</ele>
<time>2011-09-30T16:11:12Z</time>
</trkpt>
<trkpt lat="51.21926202" lon="6.85460818">
<ele>0</ele>
<time>2011-09-30T16:11:18Z</time>
</trkpt>
<trkpt lat="51.21926306" lon="6.85460826">
<ele>87.5</ele>
<time>2011-09-30T16:11:22Z</time>
</trkpt>
<trkpt lat="51.21926315" lon="6.85460977">
<ele>0</ele>
<time>2011-09-30T16:11:26Z</time>
</trkpt>
<trkpt lat="51.21920887" lon="6.85460298">
<ele>0</ele>
<time>2011-09-30T16:11:30Z</time>
</trkpt>
<trkpt lat="51.21921118" lon="6.85457968">
<ele>90</ele>
<time>2011-09-30T16:11:34Z</time>
</trkpt>
<trkpt lat="51.21922032" lon="6.85446753">
<ele>0</ele>
<time>2011-09-30T16:11:38Z</time>
</trkpt>
<trkpt lat="51.21923243" lon="6.85427642">
<ele>89.5</ele>
<time>2011-09-30T16:11:42Z</time>
</trkpt>
<trkpt lat="51.21924735" lon="6.85403327">
<ele>90</ele>
<time>2011-09-30T16:11:46Z</time>
</trkpt>
<trkpt lat="51.21926231" lon="6.85375867">
<ele>90</ele>
<time>2011-09-30T16:11:50Z</time>
</trkpt>
<trkpt lat="51.21927974" lon="6.85344829">
<ele>0</ele>
<time>2011-09-30T16:11:54Z</time>
</trkpt>
<trkpt lat="51.21927832" lon="6.85312131">
<ele>90.5</ele>
<time>2011-09-30T16:11:58Z</time>
</trkpt>
<trkpt lat="51.2192538" lon="6.85279157">
<ele>90.5</ele>
<time>2011-09-30T16:12:02Z</time>
</trkpt>
<trkpt lat="51.21923834" lon="6.85245277">
<ele>0</ele>
<time>2011-09-30T16:12:06Z</time>
</trkpt>
<trkpt lat="51.21926134" lon="6.85211725">
<ele>90.5</ele>
<time>2011-09-30T16:12:10Z</time>
</trkpt>
<trkpt lat="51.2192973" lon="6.8517937">
<ele>91</ele>
<time>2011-09-30T16:12:14Z</time>
</trkpt>
<trkpt lat="51.21932501" lon="6.85146455">
<ele>0</ele>
<time>2011-09-30T16:12:18Z</time>
</trkpt>
<trkpt lat="51.21935497" lon="6.8511307">
<ele>0</ele>
<time>2011-09-30T16:12:22Z</time>
</trkpt>
<trkpt lat="51.21938502" lon="6.85079416">
<ele>90</ele>
<time>2011-09-30T16:12:26Z</time>
</trkpt>
<trkpt lat="51.21941955" lon="6.8504448">
<ele>90</ele>
<time>2011-09-30T16:12:30Z</time>
</trkpt>
<trkpt lat="51.21944667" lon="6.85008908">
<ele>90</ele>
<time>2011-09-30T16:12:34Z</time>
</trkpt>
<trkpt lat="51.21946796" lon="6.8497569">
<ele>0</ele>
<time>2011-09-30T16:12:38Z</time>
</trkpt>
<trkpt lat="51.21949067" lon="6.84943881">
<ele>89</ele>
<time>2011-09-30T16:12:42Z</time>
</trkpt>
<trkpt lat="51.21955262" lon="6.84914586">
<ele>87.5</ele>
<time>2011-09-30T16:12:46Z</time>
</trkpt>
<trkpt lat="51.2198627" lon="6.84904645">
<ele>86.5</ele>
<time>2011-09-30T16:12:52Z</time>
</trkpt>
<trkpt lat="51.22007686" lon="6.84903648">
<ele>87</ele>
<time>2011-09-30T16:12:56Z</time>
</trkpt>
<trkpt lat="51.22029182" lon="6.84903706">
<ele>87</ele>
<time>2011-09-30T16:13:00Z</time>
</trkpt>
<trkpt lat="51.22039307" lon="6.84905483">
<ele>0</ele>
<time>2011-09-30T16:13:04Z</time>
</trkpt>
<trkpt lat="51.22048544" lon="6.84907839">
<ele>86</ele>
<time>2011-09-30T16:13:08Z</time>
</trkpt>
<trkpt lat="51.22050044" lon="6.8490928">
<ele>87.5</ele>
<time>2011-09-30T16:13:12Z</time>
</trkpt>
<trkpt lat="51.22052085" lon="6.84909356">
<ele>89</ele>
<time>2011-09-30T16:13:16Z</time>
</trkpt>
<trkpt lat="51.22051666" lon="6.84907545">
<ele>90</ele>
<time>2011-09-30T16:13:20Z</time>
</trkpt>
<trkpt lat="51.22051972" lon="6.84905928">
<ele>91</ele>
<time>2011-09-30T16:13:24Z</time>
</trkpt>
<trkpt lat="51.22056942" lon="6.84906967">
<ele>90</ele>
<time>2011-09-30T16:13:28Z</time>
</trkpt>
<trkpt lat="51.2205646" lon="6.84898434">
<ele>89.5</ele>
<time>2011-09-30T16:13:32Z</time>
</trkpt>
<trkpt lat="51.22051247" lon="6.84876524">
<ele>89</ele>
<time>2011-09-30T16:13:36Z</time>
</trkpt>
<trkpt lat="51.22049847" lon="6.84850817">
<ele>86.5</ele>
<time>2011-09-30T16:13:40Z</time>
</trkpt>
<trkpt lat="51.22050073" lon="6.84823416">
<ele>87</ele>
<time>2011-09-30T16:13:44Z</time>
</trkpt>
<trkpt lat="51.22051184" lon="6.84793308">
<ele>89.5</ele>
<time>2011-09-30T16:13:48Z</time>
</trkpt>
<trkpt lat="51.22051888" lon="6.84762547">
<ele>90.5</ele>
<time>2011-09-30T16:13:52Z</time>
</trkpt>
<trkpt lat="51.22053083" lon="6.84729983">
<ele>90.5</ele>
<time>2011-09-30T16:13:56Z</time>
</trkpt>
<trkpt lat="51.22054864" lon="6.84697956">
<ele>90.5</ele>
<time>2011-09-30T16:14:00Z</time>
</trkpt>
<trkpt lat="51.22055882" lon="6.84664764">
<ele>0</ele>
<time>2011-09-30T16:14:04Z</time>
</trkpt>
<trkpt lat="51.22057026" lon="6.84632242">
<ele>91</ele>
<time>2011-09-30T16:14:08Z</time>
</trkpt>
<trkpt lat="51.22057764" lon="6.84602243">
<ele>91</ele>
<time>2011-09-30T16:14:12Z</time>
</trkpt>
<trkpt lat="51.22059193" lon="6.84570006">
<ele>90.5</ele>
<time>2011-09-30T16:14:16Z</time>
</trkpt>
<trkpt lat="51.22061406" lon="6.84520452">
<ele>90</ele>
<time>2011-09-30T16:14:22Z</time>
</trkpt>
<trkpt lat="51.22062935" lon="6.84486539">
<ele>89</ele>
<time>2011-09-30T16:14:26Z</time>
</trkpt>
<trkpt lat="51.22064511" lon="6.84452651">
<ele>88</ele>
<time>2011-09-30T16:14:30Z</time>
</trkpt>
<trkpt lat="51.22065597" lon="6.8441795">
<ele>88.5</ele>
<time>2011-09-30T16:14:34Z</time>
</trkpt>
<trkpt lat="51.22067634" lon="6.84381631">
<ele>0</ele>
<time>2011-09-30T16:14:38Z</time>
</trkpt>
<trkpt lat="51.22072181" lon="6.84346301">
<ele>0</ele>
<time>2011-09-30T16:14:42Z</time>
</trkpt>
<trkpt lat="51.22076921" lon="6.84312246">
<ele>89</ele>
<time>2011-09-30T16:14:46Z</time>
</trkpt>
<trkpt lat="51.22082268" lon="6.84280772">
<ele>88</ele>
<time>2011-09-30T16:14:50Z</time>
</trkpt>
<trkpt lat="51.22088291" lon="6.8425079">
<ele>87.5</ele>
<time>2011-09-30T16:14:54Z</time>
</trkpt>
<trkpt lat="51.22096115" lon="6.84222534">
<ele>87</ele>
<time>2011-09-30T16:14:58Z</time>
</trkpt>
<trkpt lat="51.22114325" lon="6.84215385">
<ele>83.5</ele>
<time>2011-09-30T16:15:02Z</time>
</trkpt>
<trkpt lat="51.2213349" lon="6.84230011">
<ele>82</ele>
<time>2011-09-30T16:15:06Z</time>
</trkpt>
<trkpt lat="51.22153607" lon="6.84243229">
<ele>83.5</ele>
<time>2011-09-30T16:15:10Z</time>
</trkpt>
<trkpt lat="51.22172881" lon="6.84256649">
<ele>84.5</ele>
<time>2011-09-30T16:15:14Z</time>
</trkpt>
<trkpt lat="51.22192151" lon="6.84270496">
<ele>84.5</ele>
<time>2011-09-30T16:15:18Z</time>
</trkpt>
<trkpt lat="51.22212666" lon="6.84284745">
<ele>84.5</ele>
<time>2011-09-30T16:15:22Z</time>
</trkpt>
<trkpt lat="51.2223326" lon="6.84298944">
<ele>0</ele>
<time>2011-09-30T16:15:26Z</time>
</trkpt>
<trkpt lat="51.22253691" lon="6.84312598">
<ele>85</ele>
<time>2011-09-30T16:15:30Z</time>
</trkpt>
<trkpt lat="51.22273904" lon="6.84325431">
<ele>85.5</ele>
<time>2011-09-30T16:15:34Z</time>
</trkpt>
<trkpt lat="51.22294603" lon="6.84339512">
<ele>0</ele>
<time>2011-09-30T16:15:38Z</time>
</trkpt>
<trkpt lat="51.22315403" lon="6.84353175">
<ele>0</ele>
<time>2011-09-30T16:15:42Z</time>
</trkpt>
<trkpt lat="51.22336261" lon="6.84366804">
<ele>85</ele>
<time>2011-09-30T16:15:46Z</time>
</trkpt>
<trkpt lat="51.22357161" lon="6.84380583">
<ele>85</ele>
<time>2011-09-30T16:15:50Z</time>
</trkpt>
<trkpt lat="51.22387642" lon="6.84403349">
<ele>85</ele>
<time>2011-09-30T16:15:56Z</time>
</trkpt>
<trkpt lat="51.22407847" lon="6.84416718">
<ele>0</ele>
<time>2011-09-30T16:16:00Z</time>
</trkpt>
<trkpt lat="51.22428215" lon="6.84429693">
<ele>85</ele>
<time>2011-09-30T16:16:04Z</time>
</trkpt>
<trkpt lat="51.22448021" lon="6.84442794">
<ele>85</ele>
<time>2011-09-30T16:16:08Z</time>
</trkpt>
<trkpt lat="51.22467274" lon="6.84455845">
<ele>0</ele>
<time>2011-09-30T16:16:12Z</time>
</trkpt>
<trkpt lat="51.22484952" lon="6.84466213">
<ele>84.5</ele>
<time>2011-09-30T16:16:16Z</time>
</trkpt>
<trkpt lat="51.2250296" lon="6.84478249">
<ele>0</ele>
<time>2011-09-30T16:16:20Z</time>
</trkpt>
<trkpt lat="51.22522268" lon="6.84490764">
<ele>0</ele>
<time>2011-09-30T16:16:24Z</time>
</trkpt>
<trkpt lat="51.22542028" lon="6.84503638">
<ele>85</ele>
<time>2011-09-30T16:16:28Z</time>
</trkpt>
<trkpt lat="51.22562036" lon="6.8451637">
<ele>0</ele>
<time>2011-09-30T16:16:32Z</time>
</trkpt>
<trkpt lat="51.22581997" lon="6.84529136">
<ele>0</ele>
<time>2011-09-30T16:16:36Z</time>
</trkpt>
<trkpt lat="51.22602022" lon="6.84542111">
<ele>85.5</ele>
<time>2011-09-30T16:16:40Z</time>
</trkpt>
<trkpt lat="51.22621673" lon="6.84554894">
<ele>0</ele>
<time>2011-09-30T16:16:44Z</time>
</trkpt>
<trkpt lat="51.22641501" lon="6.84568288">
<ele>0</ele>
<time>2011-09-30T16:16:48Z</time>
</trkpt>
<trkpt lat="51.22660984" lon="6.84581573">
<ele>85.5</ele>
<time>2011-09-30T16:16:52Z</time>
</trkpt>
<trkpt lat="51.22680879" lon="6.84593945">
<ele>85.5</ele>
<time>2011-09-30T16:16:56Z</time>
</trkpt>
<trkpt lat="51.22700991" lon="6.84607113">
<ele>0</ele>
<time>2011-09-30T16:17:00Z</time>
</trkpt>
<trkpt lat="51.22721347" lon="6.84619719">
<ele>85</ele>
<time>2011-09-30T16:17:04Z</time>
</trkpt>
<trkpt lat="51.22740922" lon="6.84633306">
<ele>85.5</ele>
<time>2011-09-30T16:17:08Z</time>
</trkpt>
<trkpt lat="51.22760565" lon="6.84645829">
<ele>85</ele>
<time>2011-09-30T16:17:12Z</time>
</trkpt>
<trkpt lat="51.22780326" lon="6.84654873">
<ele>0</ele>
<time>2011-09-30T16:17:16Z</time>
</trkpt>
<trkpt lat="51.22799956" lon="6.84652467">
<ele>0</ele>
<time>2011-09-30T16:17:20Z</time>
</trkpt>
<trkpt lat="51.22820257" lon="6.84645234">
<ele>86</ele>
<time>2011-09-30T16:17:26Z</time>
</trkpt>
<trkpt lat="51.22849271" lon="6.84636315">
<ele>86.5</ele>
<time>2011-09-30T16:17:30Z</time>
</trkpt>
<trkpt lat="51.22867049" lon="6.84631286">
<ele>0</ele>
<time>2011-09-30T16:17:34Z</time>
</trkpt>
<trkpt lat="51.22880783" lon="6.84627405">
<ele>0</ele>
<time>2011-09-30T16:17:38Z</time>
</trkpt>
<trkpt lat="51.22888398" lon="6.84624212">
<ele>86.5</ele>
<time>2011-09-30T16:17:42Z</time>
</trkpt>
<trkpt lat="51.22886998" lon="6.84624581">
<ele>85.5</ele>
<time>2011-09-30T16:17:46Z</time>
</trkpt>
<trkpt lat="51.22886135" lon="6.84624773">
<ele>85.5</ele>
<time>2011-09-30T16:17:50Z</time>
</trkpt>
<trkpt lat="51.22885611" lon="6.84625377">
<ele>85</ele>
<time>2011-09-30T16:17:54Z</time>
</trkpt>
<trkpt lat="51.22885255" lon="6.84625796">
<ele>86.5</ele>
<time>2011-09-30T16:17:58Z</time>
</trkpt>
<trkpt lat="51.22885686" lon="6.8462676">
<ele>89</ele>
<time>2011-09-30T16:18:02Z</time>
</trkpt>
<trkpt lat="51.22885691" lon="6.84627431">
<ele>89.5</ele>
<time>2011-09-30T16:18:06Z</time>
</trkpt>
<trkpt lat="51.22893104" lon="6.84621454">
<ele>88.5</ele>
<time>2011-09-30T16:18:10Z</time>
</trkpt>
<trkpt lat="51.2290468" lon="6.84613273">
<ele>86.5</ele>
<time>2011-09-30T16:18:14Z</time>
</trkpt>
<trkpt lat="51.22907454" lon="6.84605587">
<ele>85.5</ele>
<time>2011-09-30T16:18:18Z</time>
</trkpt>
<trkpt lat="51.22916792" lon="6.84587658">
<ele>85</ele>
<time>2011-09-30T16:18:22Z</time>
</trkpt>
<trkpt lat="51.22928698" lon="6.84563703">
<ele>84.5</ele>
<time>2011-09-30T16:18:26Z</time>
</trkpt>
<trkpt lat="51.22941673" lon="6.84537786">
<ele>84</ele>
<time>2011-09-30T16:18:30Z</time>
</trkpt>
<trkpt lat="51.2295412" lon="6.84511316">
<ele>84</ele>
<time>2011-09-30T16:18:34Z</time>
</trkpt>
<trkpt lat="51.22966911" lon="6.8448415">
<ele>83</ele>
<time>2011-09-30T16:18:38Z</time>
</trkpt>
<trkpt lat="51.22978717" lon="6.84458409">
<ele>83</ele>
<time>2011-09-30T16:18:42Z</time>
</trkpt>
<trkpt lat="51.22990238" lon="6.84433104">
<ele>0</ele>
<time>2011-09-30T16:18:46Z</time>
</trkpt>
<trkpt lat="51.23002157" lon="6.84409912">
<ele>0</ele>
<time>2011-09-30T16:18:50Z</time>
</trkpt>
<trkpt lat="51.23012681" lon="6.84387356">
<ele>84</ele>
<time>2011-09-30T16:18:54Z</time>
</trkpt>
<trkpt lat="51.23028024" lon="6.84351825">
<ele>84</ele>
<time>2011-09-30T16:19:00Z</time>
</trkpt>
<trkpt lat="51.23039524" lon="6.84326269">
<ele>83.5</ele>
<time>2011-09-30T16:19:04Z</time>
</trkpt>
<trkpt lat="51.23051753" lon="6.84301827">
<ele>84</ele>
<time>2011-09-30T16:19:08Z</time>
</trkpt>
<trkpt lat="51.23063995" lon="6.8427788">
<ele>84</ele>
<time>2011-09-30T16:19:12Z</time>
</trkpt>
<trkpt lat="51.23076102" lon="6.84252055">
<ele>0</ele>
<time>2011-09-30T16:19:16Z</time>
</trkpt>
<trkpt lat="51.23088885" lon="6.84225451">
<ele>84.5</ele>
<time>2011-09-30T16:19:20Z</time>
</trkpt>
<trkpt lat="51.23101851" lon="6.84198277">
<ele>84.5</ele>
<time>2011-09-30T16:19:24Z</time>
</trkpt>
<trkpt lat="51.2311468" lon="6.84171187">
<ele>84.5</ele>
<time>2011-09-30T16:19:28Z</time>
</trkpt>
<trkpt lat="51.23123879" lon="6.84149142">
<ele>85.5</ele>
<time>2011-09-30T16:19:32Z</time>
</trkpt>
<trkpt lat="51.23133015" lon="6.84132387">
<ele>86.5</ele>
<time>2011-09-30T16:19:36Z</time>
</trkpt>
<trkpt lat="51.23144364" lon="6.84109697">
<ele>87</ele>
<time>2011-09-30T16:19:40Z</time>
</trkpt>
<trkpt lat="51.23155739" lon="6.84086169">
<ele>87.5</ele>
<time>2011-09-30T16:19:44Z</time>
</trkpt>
<trkpt lat="51.23166937" lon="6.84063161">
<ele>87.5</ele>
<time>2011-09-30T16:19:48Z</time>
</trkpt>
<trkpt lat="51.2317775" lon="6.84039851">
<ele>87</ele>
<time>2011-09-30T16:19:52Z</time>
</trkpt>
<trkpt lat="51.23188466" lon="6.84016524">
<ele>87.5</ele>
<time>2011-09-30T16:19:56Z</time>
</trkpt>
<trkpt lat="51.23198499" lon="6.83994815">
<ele>88</ele>
<time>2011-09-30T16:20:00Z</time>
</trkpt>
<trkpt lat="51.23207577" lon="6.83974581">
<ele>87.5</ele>
<time>2011-09-30T16:20:04Z</time>
</trkpt>
<trkpt lat="51.23212002" lon="6.83963634">
<ele>87.5</ele>
<time>2011-09-30T16:20:08Z</time>
</trkpt>
<trkpt lat="51.23215808" lon="6.83950659">
<ele>87</ele>
<time>2011-09-30T16:20:12Z</time>
</trkpt>
<trkpt lat="51.23225451" lon="6.83928262">
<ele>86.5</ele>
<time>2011-09-30T16:20:16Z</time>
</trkpt>
<trkpt lat="51.23236356" lon="6.83904408">
<ele>86</ele>
<time>2011-09-30T16:20:20Z</time>
</trkpt>
<trkpt lat="51.23247671" lon="6.83880243">
<ele>0</ele>
<time>2011-09-30T16:20:24Z</time>
</trkpt>
<trkpt lat="51.23259578" lon="6.83855876">
<ele>0</ele>
<time>2011-09-30T16:20:28Z</time>
</trkpt>
<trkpt lat="51.2327731" lon="6.83818644">
<ele>85</ele>
<time>2011-09-30T16:20:34Z</time>
</trkpt>
<trkpt lat="51.2328951" lon="6.83793574">
<ele>84.5</ele>
<time>2011-09-30T16:20:38Z</time>
</trkpt>
<trkpt lat="51.23301936" lon="6.83768244">
<ele>85</ele>
<time>2011-09-30T16:20:42Z</time>
</trkpt>
<trkpt lat="51.23314463" lon="6.83740793">
<ele>0</ele>
<time>2011-09-30T16:20:46Z</time>
</trkpt>
<trkpt lat="51.23327605" lon="6.8371335">
<ele>0</ele>
<time>2011-09-30T16:20:50Z</time>
</trkpt>
<trkpt lat="51.23341415" lon="6.83685573">
<ele>84.5</ele>
<time>2011-09-30T16:20:54Z</time>
</trkpt>
<trkpt lat="51.23354256" lon="6.83657376">
<ele>0</ele>
<time>2011-09-30T16:20:58Z</time>
</trkpt>
<trkpt lat="51.23367478" lon="6.83628869">
<ele>85.5</ele>
<time>2011-09-30T16:21:02Z</time>
</trkpt>
<trkpt lat="51.23381178" lon="6.83599608">
<ele>85</ele>
<time>2011-09-30T16:21:06Z</time>
</trkpt>
<trkpt lat="51.23395009" lon="6.8357126">
<ele>85</ele>
<time>2011-09-30T16:21:10Z</time>
</trkpt>
<trkpt lat="51.23408713" lon="6.83541739">
<ele>85.5</ele>
<time>2011-09-30T16:21:14Z</time>
</trkpt>
<trkpt lat="51.23421487" lon="6.83513978">
<ele>85.5</ele>
<time>2011-09-30T16:21:18Z</time>
</trkpt>
<trkpt lat="51.23433762" lon="6.83488112">
<ele>85</ele>
<time>2011-09-30T16:21:22Z</time>
</trkpt>
<trkpt lat="51.2344566" lon="6.83463595">
<ele>0</ele>
<time>2011-09-30T16:21:26Z</time>
</trkpt>
<trkpt lat="51.23456196" lon="6.83439405">
<ele>0</ele>
<time>2011-09-30T16:21:30Z</time>
</trkpt>
<trkpt lat="51.23466406" lon="6.83415374">
<ele>84.5</ele>
<time>2011-09-30T16:21:34Z</time>
</trkpt>
<trkpt lat="51.2347617" lon="6.8340037">
<ele>0</ele>
<time>2011-09-30T16:21:38Z</time>
</trkpt>
<trkpt lat="51.23486099" lon="6.8341249">
<ele>0</ele>
<time>2011-09-30T16:21:42Z</time>
</trkpt>
<trkpt lat="51.23494854" lon="6.83424418">
<ele>85</ele>
<time>2011-09-30T16:21:46Z</time>
</trkpt>
<trkpt lat="51.23502569" lon="6.8343482">
<ele>84.5</ele>
<time>2011-09-30T16:21:50Z</time>
</trkpt>
<trkpt lat="51.23508977" lon="6.8343658">
<ele>84</ele>
<time>2011-09-30T16:21:54Z</time>
</trkpt>
<trkpt lat="51.2352163" lon="6.83436094">
<ele>84.5</ele>
<time>2011-09-30T16:21:58Z</time>
</trkpt>
<trkpt lat="51.23539311" lon="6.83426572">
<ele>84</ele>
<time>2011-09-30T16:22:04Z</time>
</trkpt>
<trkpt lat="51.23546687" lon="6.83403874">
<ele>84</ele>
<time>2011-09-30T16:22:08Z</time>
</trkpt>
<trkpt lat="51.2355623" lon="6.8337877">
<ele>0</ele>
<time>2011-09-30T16:22:12Z</time>
</trkpt>
<trkpt lat="51.23567014" lon="6.83356457">
<ele>83</ele>
<time>2011-09-30T16:22:16Z</time>
</trkpt>
<trkpt lat="51.23579905" lon="6.8333821">
<ele>83</ele>
<time>2011-09-30T16:22:20Z</time>
</trkpt>
<trkpt lat="51.23595738" lon="6.83333491">
<ele>80.5</ele>
<time>2011-09-30T16:22:24Z</time>
</trkpt>
<trkpt lat="51.23613324" lon="6.83342309">
<ele>79</ele>
<time>2011-09-30T16:22:28Z</time>
</trkpt>
<trkpt lat="51.23627414" lon="6.83333005">
<ele>81</ele>
<time>2011-09-30T16:22:32Z</time>
</trkpt>
<trkpt lat="51.23634961" lon="6.83319468">
<ele>80.5</ele>
<time>2011-09-30T16:22:36Z</time>
</trkpt>
<trkpt lat="51.23644617" lon="6.83319409">
<ele>80.5</ele>
<time>2011-09-30T16:22:40Z</time>
</trkpt>
<trkpt lat="51.23654231" lon="6.83327246">
<ele>81.5</ele>
<time>2011-09-30T16:22:44Z</time>
</trkpt>
<trkpt lat="51.23656402" lon="6.83329124">
<ele>83</ele>
<time>2011-09-30T16:22:48Z</time>
</trkpt>
<trkpt lat="51.2365732" lon="6.83328395">
<ele>83</ele>
<time>2011-09-30T16:22:52Z</time>
</trkpt>
<trkpt lat="51.23659055" lon="6.83327615">
<ele>82</ele>
<time>2011-09-30T16:22:56Z</time>
</trkpt>
<trkpt lat="51.23659156" lon="6.83329862">
<ele>81</ele>
<time>2011-09-30T16:23:00Z</time>
</trkpt>
<trkpt lat="51.23659307" lon="6.83330976">
<ele>81.5</ele>
<time>2011-09-30T16:23:04Z</time>
</trkpt>
<trkpt lat="51.23660631" lon="6.83330222">
<ele>83</ele>
<time>2011-09-30T16:23:08Z</time>
</trkpt>
<trkpt lat="51.23662182" lon="6.83326651">
<ele>85.5</ele>
<time>2011-09-30T16:23:12Z</time>
</trkpt>
<trkpt lat="51.23662161" lon="6.83324514">
<ele>86</ele>
<time>2011-09-30T16:23:16Z</time>
</trkpt>
<trkpt lat="51.23661431" lon="6.83324346">
<ele>86.5</ele>
<time>2011-09-30T16:23:20Z</time>
</trkpt>
<trkpt lat="51.23662022" lon="6.83324883">
<ele>88</ele>
<time>2011-09-30T16:23:24Z</time>
</trkpt>
<trkpt lat="51.23661201" lon="6.83326324">
<ele>88.5</ele>
<time>2011-09-30T16:23:28Z</time>
</trkpt>
<trkpt lat="51.23660002" lon="6.83326408">
<ele>0</ele>
<time>2011-09-30T16:23:32Z</time>
</trkpt>
<trkpt lat="51.23648921" lon="6.83321899">
<ele>0</ele>
<time>2011-09-30T16:23:38Z</time>
</trkpt>
<trkpt lat="51.2364111" lon="6.83318915">
<ele>88.5</ele>
<time>2011-09-30T16:23:42Z</time>
</trkpt>
<trkpt lat="51.23634106" lon="6.83326433">
<ele>0</ele>
<time>2011-09-30T16:23:46Z</time>
</trkpt>
<trkpt lat="51.2363015" lon="6.83342317">
<ele>86</ele>
<time>2011-09-30T16:23:50Z</time>
</trkpt>
<trkpt lat="51.23640535" lon="6.83352526">
<ele>83.5</ele>
<time>2011-09-30T16:23:54Z</time>
</trkpt>
<trkpt lat="51.23655334" lon="6.83363339">
<ele>84</ele>
<time>2011-09-30T16:23:58Z</time>
</trkpt>
<trkpt lat="51.23671339" lon="6.83369718">
<ele>84</ele>
<time>2011-09-30T16:24:02Z</time>
</trkpt>
<trkpt lat="51.23688287" lon="6.83368402">
<ele>0</ele>
<time>2011-09-30T16:24:06Z</time>
</trkpt>
<trkpt lat="51.23699951" lon="6.83354337">
<ele>84</ele>
<time>2011-09-30T16:24:10Z</time>
</trkpt>
<trkpt lat="51.23707637" lon="6.83343717">
<ele>83.5</ele>
<time>2011-09-30T16:24:14Z</time>
</trkpt>
<trkpt lat="51.23711388" lon="6.83330893">
<ele>81.5</ele>
<time>2011-09-30T16:24:18Z</time>
</trkpt>
<trkpt lat="51.23712624" lon="6.83328713">
<ele>82.5</ele>
<time>2011-09-30T16:24:22Z</time>
</trkpt>
<trkpt lat="51.23713424" lon="6.83327355">
<ele>84.5</ele>
<time>2011-09-30T16:24:26Z</time>
</trkpt>
<trkpt lat="51.23714342" lon="6.8332588">
<ele>84.5</ele>
<time>2011-09-30T16:24:30Z</time>
</trkpt>
<trkpt lat="51.23715235" lon="6.83326517">
<ele>84.5</ele>
<time>2011-09-30T16:24:34Z</time>
</trkpt>
<trkpt lat="51.2371733" lon="6.83321211">
<ele>84</ele>
<time>2011-09-30T16:24:38Z</time>
</trkpt>
<trkpt lat="51.23721433" lon="6.83309762">
<ele>83</ele>
<time>2011-09-30T16:24:42Z</time>
</trkpt>
<trkpt lat="51.2372391" lon="6.83297365">
<ele>80.5</ele>
<time>2011-09-30T16:24:46Z</time>
</trkpt>
<trkpt lat="51.2372702" lon="6.83287852">
<ele>81.5</ele>
<time>2011-09-30T16:24:50Z</time>
</trkpt>
<trkpt lat="51.23731919" lon="6.8327242">
<ele>82</ele>
<time>2011-09-30T16:24:54Z</time>
</trkpt>
<trkpt lat="51.23738641" lon="6.83250544">
<ele>83</ele>
<time>2011-09-30T16:24:58Z</time>
</trkpt>
<trkpt lat="51.23745858" lon="6.83227594">
<ele>83</ele>
<time>2011-09-30T16:25:02Z</time>
</trkpt>
<trkpt lat="51.23758213" lon="6.83195064">
<ele>82.5</ele>
<time>2011-09-30T16:25:08Z</time>
</trkpt>
<trkpt lat="51.23766997" lon="6.83184955">
<ele>80.5</ele>
<time>2011-09-30T16:25:12Z</time>
</trkpt>
<trkpt lat="51.23776083" lon="6.8316618">
<ele>80</ele>
<time>2011-09-30T16:25:16Z</time>
</trkpt>
<trkpt lat="51.23786427" lon="6.83144026">
<ele>0</ele>
<time>2011-09-30T16:25:20Z</time>
</trkpt>
<trkpt lat="51.2379752" lon="6.83121647">
<ele>0</ele>
<time>2011-09-30T16:25:24Z</time>
</trkpt>
<trkpt lat="51.23809079" lon="6.8309941">
<ele>78.5</ele>
<time>2011-09-30T16:25:28Z</time>
</trkpt>
<trkpt lat="51.23822569" lon="6.8307563">
<ele>78</ele>
<time>2011-09-30T16:25:32Z</time>
</trkpt>
<trkpt lat="51.23836957" lon="6.83054223">
<ele>75</ele>
<time>2011-09-30T16:25:36Z</time>
</trkpt>
<trkpt lat="51.23851805" lon="6.83034089">
<ele>74</ele>
<time>2011-09-30T16:25:40Z</time>
</trkpt>
<trkpt lat="51.23865342" lon="6.8301316">
<ele>72</ele>
<time>2011-09-30T16:25:44Z</time>
</trkpt>
<trkpt lat="51.23874747" lon="6.82991174">
<ele>70.5</ele>
<time>2011-09-30T16:25:48Z</time>
</trkpt>
<trkpt lat="51.23888451" lon="6.82978375">
<ele>71.5</ele>
<time>2011-09-30T16:25:52Z</time>
</trkpt>
<trkpt lat="51.23905785" lon="6.82967269">
<ele>71</ele>
<time>2011-09-30T16:25:56Z</time>
</trkpt>
<trkpt lat="51.2392495" lon="6.82959004">
<ele>72</ele>
<time>2011-09-30T16:26:00Z</time>
</trkpt>
<trkpt lat="51.23942489" lon="6.82947974">
<ele>72</ele>
<time>2011-09-30T16:26:04Z</time>
</trkpt>
<trkpt lat="51.23960372" lon="6.82938804">
<ele>0</ele>
<time>2011-09-30T16:26:08Z</time>
</trkpt>
<trkpt lat="51.23978628" lon="6.82929844">
<ele>72.5</ele>
<time>2011-09-30T16:26:12Z</time>
</trkpt>
<trkpt lat="51.23996578" lon="6.82921512">
<ele>72</ele>
<time>2011-09-30T16:26:16Z</time>
</trkpt>
<trkpt lat="51.24014515" lon="6.82912191">
<ele>72</ele>
<time>2011-09-30T16:26:20Z</time>
</trkpt>
<trkpt lat="51.24033131" lon="6.82901823">
<ele>73</ele>
<time>2011-09-30T16:26:24Z</time>
</trkpt>
<trkpt lat="51.24051852" lon="6.82890734">
<ele>74.5</ele>
<time>2011-09-30T16:26:28Z</time>
</trkpt>
<trkpt lat="51.24071059" lon="6.82879561">
<ele>75</ele>
<time>2011-09-30T16:26:32Z</time>
</trkpt>
<trkpt lat="51.2409017" lon="6.82867977">
<ele>76</ele>
<time>2011-09-30T16:26:36Z</time>
</trkpt>
<trkpt lat="51.24108707" lon="6.82854909">
<ele>77.5</ele>
<time>2011-09-30T16:26:40Z</time>
</trkpt>
<trkpt lat="51.2413684" lon="6.82846771">
<ele>78.5</ele>
<time>2011-09-30T16:26:46Z</time>
</trkpt>
<trkpt lat="51.24153638" lon="6.82849662">
<ele>80</ele>
<time>2011-09-30T16:26:50Z</time>
</trkpt>
<trkpt lat="51.24161383" lon="6.82862177">
<ele>79.5</ele>
<time>2011-09-30T16:26:54Z</time>
</trkpt>
<trkpt lat="51.24162653" lon="6.82882352">
<ele>79</ele>
<time>2011-09-30T16:26:58Z</time>
</trkpt>
<trkpt lat="51.24159245" lon="6.82904338">
<ele>79.5</ele>
<time>2011-09-30T16:27:02Z</time>
</trkpt>
<trkpt lat="51.24157045" lon="6.8292489">
<ele>78</ele>
<time>2011-09-30T16:27:06Z</time>
</trkpt>
<trkpt lat="51.24153168" lon="6.82943271">
<ele>78</ele>
<time>2011-09-30T16:27:10Z</time>
</trkpt>
<trkpt lat="51.24151303" lon="6.82954118">
<ele>77</ele>
<time>2011-09-30T16:27:14Z</time>
</trkpt>
<trkpt lat="51.24151752" lon="6.82960865">
<ele>77.5</ele>
<time>2011-09-30T16:27:18Z</time>
</trkpt>
<trkpt lat="51.24151433" lon="6.82961997">
<ele>77.5</ele>
<time>2011-09-30T16:27:22Z</time>
</trkpt>
<trkpt lat="51.24152389" lon="6.82964117">
<ele>0</ele>
<time>2011-09-30T16:27:26Z</time>
</trkpt>
<trkpt lat="51.24152125" lon="6.82962734">
<ele>79</ele>
<time>2011-09-30T16:27:30Z</time>
</trkpt>
<trkpt lat="51.24152603" lon="6.82962483">
<ele>79.5</ele>
<time>2011-09-30T16:27:34Z</time>
</trkpt>
<trkpt lat="51.24154484" lon="6.82963413">
<ele>80.5</ele>
<time>2011-09-30T16:27:38Z</time>
</trkpt>
<trkpt lat="51.24160578" lon="6.8296654">
<ele>81</ele>
<time>2011-09-30T16:27:42Z</time>
</trkpt>
<trkpt lat="51.24166424" lon="6.82970798">
<ele>81.5</ele>
<time>2011-09-30T16:27:46Z</time>
</trkpt>
<trkpt lat="51.24169547" lon="6.82973396">
<ele>82</ele>
<time>2011-09-30T16:27:50Z</time>
</trkpt>
<trkpt lat="51.24170343" lon="6.82974201">
<ele>83.5</ele>
<time>2011-09-30T16:27:54Z</time>
</trkpt>
<trkpt lat="51.24170154" lon="6.82975776">
<ele>83</ele>
<time>2011-09-30T16:27:58Z</time>
</trkpt>
<trkpt lat="51.24169945" lon="6.82977436">
<ele>80.5</ele>
<time>2011-09-30T16:28:02Z</time>
</trkpt>
<trkpt lat="51.24174563" lon="6.82983069">
<ele>81.5</ele>
<time>2011-09-30T16:28:06Z</time>
</trkpt>
<trkpt lat="51.24179919" lon="6.82998014">
<ele>80.5</ele>
<time>2011-09-30T16:28:10Z</time>
</trkpt>
<trkpt lat="51.2419851" lon="6.83019044">
<ele>80.5</ele>
<time>2011-09-30T16:28:16Z</time>
</trkpt>
<trkpt lat="51.24214293" lon="6.83030376">
<ele>0</ele>
<time>2011-09-30T16:28:20Z</time>
</trkpt>
<trkpt lat="51.24231996" lon="6.83040376">
<ele>82</ele>
<time>2011-09-30T16:28:24Z</time>
</trkpt>
<trkpt lat="51.24250327" lon="6.83049378">
<ele>82</ele>
<time>2011-09-30T16:28:28Z</time>
</trkpt>
<trkpt lat="51.24268068" lon="6.83056578">
<ele>83</ele>
<time>2011-09-30T16:28:32Z</time>
</trkpt>
<trkpt lat="51.24285783" lon="6.83063594">
<ele>83</ele>
<time>2011-09-30T16:28:36Z</time>
</trkpt>
<trkpt lat="51.2430478" lon="6.83067173">
<ele>0</ele>
<time>2011-09-30T16:28:40Z</time>
</trkpt>
<trkpt lat="51.24323648" lon="6.8306346">
<ele>84.5</ele>
<time>2011-09-30T16:28:44Z</time>
</trkpt>
<trkpt lat="51.2434234" lon="6.83055296">
<ele>83.5</ele>
<time>2011-09-30T16:28:48Z</time>
</trkpt>
<trkpt lat="51.24358986" lon="6.83044584">
<ele>83.5</ele>
<time>2011-09-30T16:28:52Z</time>
</trkpt>
<trkpt lat="51.24375289" lon="6.83030577">
<ele>83</ele>
<time>2011-09-30T16:28:56Z</time>
</trkpt>
<trkpt lat="51.2439139" lon="6.83010545">
<ele>83</ele>
<time>2011-09-30T16:29:00Z</time>
</trkpt>
<trkpt lat="51.24407572" lon="6.82990612">
<ele>82.5</ele>
<time>2011-09-30T16:29:04Z</time>
</trkpt>
<trkpt lat="51.24424235" lon="6.82972306">
<ele>83.5</ele>
<time>2011-09-30T16:29:08Z</time>
</trkpt>
<trkpt lat="51.24440089" lon="6.82953682">
<ele>84</ele>
<time>2011-09-30T16:29:12Z</time>
</trkpt>
<trkpt lat="51.24455541" lon="6.82935971">
<ele>84.5</ele>
<time>2011-09-30T16:29:16Z</time>
</trkpt>
<trkpt lat="51.24470247" lon="6.82918084">
<ele>85</ele>
<time>2011-09-30T16:29:20Z</time>
</trkpt>
<trkpt lat="51.24481726" lon="6.82904706">
<ele>85</ele>
<time>2011-09-30T16:29:24Z</time>
</trkpt>
<trkpt lat="51.2449458" lon="6.8288946">
<ele>83.5</ele>
<time>2011-09-30T16:29:28Z</time>
</trkpt>
<trkpt lat="51.24509047" lon="6.82874464">
<ele>83</ele>
<time>2011-09-30T16:29:32Z</time>
</trkpt>
<trkpt lat="51.24521302" lon="6.82860668">
<ele>82</ele>
<time>2011-09-30T16:29:36Z</time>
</trkpt>
<trkpt lat="51.24532521" lon="6.82846251">
<ele>82</ele>
<time>2011-09-30T16:29:40Z</time>
</trkpt>
<trkpt lat="51.24543539" lon="6.82837442">
<ele>0</ele>
<time>2011-09-30T16:29:44Z</time>
</trkpt>
<trkpt lat="51.24549658" lon="6.82828297">
<ele>81.5</ele>
<time>2011-09-30T16:29:49Z</time>
</trkpt>
<trkpt lat="51.24562" lon="6.82812505">
<ele>80</ele>
<time>2011-09-30T16:29:53Z</time>
</trkpt>
<trkpt lat="51.24576987" lon="6.82796638">
<ele>78.5</ele>
<time>2011-09-30T16:29:57Z</time>
</trkpt>
<trkpt lat="51.24589878" lon="6.82782196">
<ele>77.5</ele>
<time>2011-09-30T16:30:01Z</time>
</trkpt>
<trkpt lat="51.24603331" lon="6.82769188">
<ele>76.5</ele>
<time>2011-09-30T16:30:05Z</time>
</trkpt>
<trkpt lat="51.24617199" lon="6.82751636">
<ele>0</ele>
<time>2011-09-30T16:30:09Z</time>
</trkpt>
<trkpt lat="51.24629361" lon="6.82731754">
<ele>0</ele>
<time>2011-09-30T16:30:13Z</time>
</trkpt>
<trkpt lat="51.2464519" lon="6.82711663">
<ele>75.5</ele>
<time>2011-09-30T16:30:17Z</time>
</trkpt>
<trkpt lat="51.24663027" lon="6.82699014">
<ele>74</ele>
<time>2011-09-30T16:30:21Z</time>
</trkpt>
<trkpt lat="51.24677306" lon="6.82681362">
<ele>72</ele>
<time>2011-09-30T16:30:25Z</time>
</trkpt>
<trkpt lat="51.24693068" lon="6.82663484">
<ele>71.5</ele>
<time>2011-09-30T16:30:29Z</time>
</trkpt>
<trkpt lat="51.24709232" lon="6.82645714">
<ele>72.5</ele>
<time>2011-09-30T16:30:33Z</time>
</trkpt>
<trkpt lat="51.24724823" lon="6.82629411">
<ele>71.5</ele>
<time>2011-09-30T16:30:37Z</time>
</trkpt>
<trkpt lat="51.24741578" lon="6.82613201">
<ele>73</ele>
<time>2011-09-30T16:30:41Z</time>
</trkpt>
<trkpt lat="51.24757458" lon="6.82598893">
<ele>73.5</ele>
<time>2011-09-30T16:30:45Z</time>
</trkpt>
<trkpt lat="51.24774582" lon="6.82587686">
<ele>73</ele>
<time>2011-09-30T16:30:49Z</time>
</trkpt>
<trkpt lat="51.24793391" lon="6.82579983">
<ele>74.5</ele>
<time>2011-09-30T16:30:53Z</time>
</trkpt>
<trkpt lat="51.24812057" lon="6.82572951">
<ele>76</ele>
<time>2011-09-30T16:30:57Z</time>
</trkpt>
<trkpt lat="51.24831327" lon="6.82563907">
<ele>77</ele>
<time>2011-09-30T16:31:01Z</time>
</trkpt>
<trkpt lat="51.24844055" lon="6.82559757">
<ele>78</ele>
<time>2011-09-30T16:31:05Z</time>
</trkpt>
<trkpt lat="51.24849466" lon="6.82561099">
<ele>80.5</ele>
<time>2011-09-30T16:31:09Z</time>
</trkpt>
<trkpt lat="51.24865572" lon="6.8255415">
<ele>81</ele>
<time>2011-09-30T16:31:13Z</time>
</trkpt>
<trkpt lat="51.24886526" lon="6.82547394">
<ele>82</ele>
<time>2011-09-30T16:31:17Z</time>
</trkpt>
<trkpt lat="51.24918566" lon="6.82533774">
<ele>80.5</ele>
<time>2011-09-30T16:31:23Z</time>
</trkpt>
<trkpt lat="51.24938507" lon="6.82523439">
<ele>80.5</ele>
<time>2011-09-30T16:31:27Z</time>
</trkpt>
<trkpt lat="51.24959323" lon="6.82515484">
<ele>79.5</ele>
<time>2011-09-30T16:31:31Z</time>
</trkpt>
<trkpt lat="51.24978396" lon="6.82504873">
<ele>79.5</ele>
<time>2011-09-30T16:31:35Z</time>
</trkpt>
<trkpt lat="51.24996866" lon="6.8249411">
<ele>0</ele>
<time>2011-09-30T16:31:39Z</time>
</trkpt>
<trkpt lat="51.25014442" lon="6.82482376">
<ele>80.5</ele>
<time>2011-09-30T16:31:43Z</time>
</trkpt>
<trkpt lat="51.250315" lon="6.82471102">
<ele>81</ele>
<time>2011-09-30T16:31:47Z</time>
</trkpt>
<trkpt lat="51.25047555" lon="6.82460256">
<ele>81.5</ele>
<time>2011-09-30T16:31:51Z</time>
</trkpt>
<trkpt lat="51.25063942" lon="6.82448127">
<ele>82</ele>
<time>2011-09-30T16:31:55Z</time>
</trkpt>
<trkpt lat="51.25079863" lon="6.82436443">
<ele>80</ele>
<time>2011-09-30T16:31:59Z</time>
</trkpt>
<trkpt lat="51.25095412" lon="6.82422864">
<ele>78.5</ele>
<time>2011-09-30T16:32:03Z</time>
</trkpt>
<trkpt lat="51.25110914" lon="6.82412839">
<ele>77.5</ele>
<time>2011-09-30T16:32:07Z</time>
</trkpt>
<trkpt lat="51.25121031" lon="6.82399236">
<ele>77.5</ele>
<time>2011-09-30T16:32:11Z</time>
</trkpt>
<trkpt lat="51.25128265" lon="6.82395908">
<ele>79.5</ele>
<time>2011-09-30T16:32:15Z</time>
</trkpt>
<trkpt lat="51.25129627" lon="6.82395338">
<ele>81</ele>
<time>2011-09-30T16:32:19Z</time>
</trkpt>
<trkpt lat="51.25137619" lon="6.82386252">
<ele>80</ele>
<time>2011-09-30T16:32:23Z</time>
</trkpt>
<trkpt lat="51.25139718" lon="6.82369195">
<ele>78.5</ele>
<time>2011-09-30T16:32:27Z</time>
</trkpt>
<trkpt lat="51.25128688" lon="6.82347662">
<ele>78</ele>
<time>2011-09-30T16:32:31Z</time>
</trkpt>
<trkpt lat="51.25122548" lon="6.82316464">
<ele>75.5</ele>
<time>2011-09-30T16:32:35Z</time>
</trkpt>
<trkpt lat="51.25117561" lon="6.82282308">
<ele>73.5</ele>
<time>2011-09-30T16:32:39Z</time>
</trkpt>
<trkpt lat="51.25112553" lon="6.82261638">
<ele>73</ele>
<time>2011-09-30T16:32:43Z</time>
</trkpt>
<trkpt lat="51.25110633" lon="6.82245176">
<ele>74</ele>
<time>2011-09-30T16:32:47Z</time>
</trkpt>
<trkpt lat="51.25109841" lon="6.82245352">
<ele>75</ele>
<time>2011-09-30T16:32:53Z</time>
</trkpt>
<trkpt lat="51.25109619" lon="6.82245243">
<ele>77.5</ele>
<time>2011-09-30T16:32:57Z</time>
</trkpt>
<trkpt lat="51.25108969" lon="6.82244665">
<ele>80.5</ele>
<time>2011-09-30T16:33:01Z</time>
</trkpt>
<trkpt lat="51.2510762" lon="6.82246392">
<ele>85.5</ele>
<time>2011-09-30T16:33:05Z</time>
</trkpt>
<trkpt lat="51.25106367" lon="6.8224614">
<ele>89.5</ele>
<time>2011-09-30T16:33:09Z</time>
</trkpt>
<trkpt lat="51.25105214" lon="6.82245729">
<ele>92.5</ele>
<time>2011-09-30T16:33:13Z</time>
</trkpt>
<trkpt lat="51.2510469" lon="6.82243919">
<ele>95</ele>
<time>2011-09-30T16:33:17Z</time>
</trkpt>
<trkpt lat="51.25102691" lon="6.82238337">
<ele>97.5</ele>
<time>2011-09-30T16:33:21Z</time>
</trkpt>
<trkpt lat="51.25099469" lon="6.82221003">
<ele>101</ele>
<time>2011-09-30T16:33:25Z</time>
</trkpt>
<trkpt lat="51.25096275" lon="6.82194181">
<ele>102.5</ele>
<time>2011-09-30T16:33:29Z</time>
</trkpt>
<trkpt lat="51.25093915" lon="6.8216564">
<ele>101</ele>
<time>2011-09-30T16:33:33Z</time>
</trkpt>
<trkpt lat="51.25087822" lon="6.82136354">
<ele>100</ele>
<time>2011-09-30T16:33:37Z</time>
</trkpt>
<trkpt lat="51.25084855" lon="6.82103698">
<ele>98.5</ele>
<time>2011-09-30T16:33:41Z</time>
</trkpt>
<trkpt lat="51.25081649" lon="6.82071436">
<ele>98</ele>
<time>2011-09-30T16:33:45Z</time>
</trkpt>
<trkpt lat="51.25078174" lon="6.82040758">
<ele>97</ele>
<time>2011-09-30T16:33:49Z</time>
</trkpt>
<trkpt lat="51.25074855" lon="6.82008404">
<ele>97.5</ele>
<time>2011-09-30T16:33:53Z</time>
</trkpt>
<trkpt lat="51.25071041" lon="6.8197481">
<ele>95.5</ele>
<time>2011-09-30T16:33:57Z</time>
</trkpt>
<trkpt lat="51.25068238" lon="6.81941357">
<ele>93</ele>
<time>2011-09-30T16:34:01Z</time>
</trkpt>
<trkpt lat="51.25065958" lon="6.81908224">
<ele>91.5</ele>
<time>2011-09-30T16:34:05Z</time>
</trkpt>
<trkpt lat="51.25063363" lon="6.81875216">
<ele>91</ele>
<time>2011-09-30T16:34:09Z</time>
</trkpt>
<trkpt lat="51.25061234" lon="6.81842946">
<ele>90</ele>
<time>2011-09-30T16:34:13Z</time>
</trkpt>
<trkpt lat="51.25059487" lon="6.81810809">
<ele>89.5</ele>
<time>2011-09-30T16:34:17Z</time>
</trkpt>
<trkpt lat="51.25058091" lon="6.81778857">
<ele>0</ele>
<time>2011-09-30T16:34:21Z</time>
</trkpt>
<trkpt lat="51.25057789" lon="6.81728859">
<ele>0</ele>
<time>2011-09-30T16:34:27Z</time>
</trkpt>
<trkpt lat="51.2505763" lon="6.81696363">
<ele>88.5</ele>
<time>2011-09-30T16:34:31Z</time>
</trkpt>
<trkpt lat="51.25057769" lon="6.81663481">
<ele>0</ele>
<time>2011-09-30T16:34:35Z</time>
</trkpt>
<trkpt lat="51.25058313" lon="6.81630087">
<ele>0</ele>
<time>2011-09-30T16:34:39Z</time>
</trkpt>
<trkpt lat="51.25059005" lon="6.81597649">
<ele>86</ele>
<time>2011-09-30T16:34:43Z</time>
</trkpt>
<trkpt lat="51.2506074" lon="6.81565287">
<ele>84.5</ele>
<time>2011-09-30T16:34:47Z</time>
</trkpt>
<trkpt lat="51.25064105" lon="6.8153315">
<ele>83</ele>
<time>2011-09-30T16:34:51Z</time>
</trkpt>
<trkpt lat="51.25066264" lon="6.81501425">
<ele>83</ele>
<time>2011-09-30T16:34:55Z</time>
</trkpt>
<trkpt lat="51.25067982" lon="6.81471895">
<ele>0</ele>
<time>2011-09-30T16:34:59Z</time>
</trkpt>
<trkpt lat="51.25070015" lon="6.81441545">
<ele>82.5</ele>
<time>2011-09-30T16:35:03Z</time>
</trkpt>
<trkpt lat="51.25072982" lon="6.81411948">
<ele>81.5</ele>
<time>2011-09-30T16:35:07Z</time>
</trkpt>
<trkpt lat="51.2507597" lon="6.81381304">
<ele>81.5</ele>
<time>2011-09-30T16:35:11Z</time>
</trkpt>
<trkpt lat="51.25077403" lon="6.81350349">
<ele>0</ele>
<time>2011-09-30T16:35:15Z</time>
</trkpt>
<trkpt lat="51.25079855" lon="6.81320342">
<ele>80.5</ele>
<time>2011-09-30T16:35:19Z</time>
</trkpt>
<trkpt lat="51.25081644" lon="6.81290243">
<ele>79.5</ele>
<time>2011-09-30T16:35:23Z</time>
</trkpt>
<trkpt lat="51.25083656" lon="6.81259163">
<ele>80</ele>
<time>2011-09-30T16:35:27Z</time>
</trkpt>
<trkpt lat="51.25086498" lon="6.81228108">
<ele>78.5</ele>
<time>2011-09-30T16:35:31Z</time>
</trkpt>
<trkpt lat="51.25086992" lon="6.81197086">
<ele>79</ele>
<time>2011-09-30T16:35:35Z</time>
</trkpt>
<trkpt lat="51.25086753" lon="6.81166526">
<ele>78</ele>
<time>2011-09-30T16:35:39Z</time>
</trkpt>
<trkpt lat="51.25087524" lon="6.81138027">
<ele>76</ele>
<time>2011-09-30T16:35:43Z</time>
</trkpt>
<trkpt lat="51.25089352" lon="6.81110275">
<ele>75</ele>
<time>2011-09-30T16:35:47Z</time>
</trkpt>
<trkpt lat="51.25090345" lon="6.8108119">
<ele>74.5</ele>
<time>2011-09-30T16:35:51Z</time>
</trkpt>
<trkpt lat="51.25091325" lon="6.81052658">
<ele>73.5</ele>
<time>2011-09-30T16:35:55Z</time>
</trkpt>
<trkpt lat="51.25089368" lon="6.81010514">
<ele>74</ele>
<time>2011-09-30T16:36:01Z</time>
</trkpt>
<trkpt lat="51.25086682" lon="6.80981034">
<ele>75</ele>
<time>2011-09-30T16:36:05Z</time>
</trkpt>
<trkpt lat="51.25084536" lon="6.80952377">
<ele>75</ele>
<time>2011-09-30T16:36:09Z</time>
</trkpt>
<trkpt lat="51.25079934" lon="6.80925965">
<ele>0</ele>
<time>2011-09-30T16:36:13Z</time>
</trkpt>
<trkpt lat="51.2507387" lon="6.80897333">
<ele>0</ele>
<time>2011-09-30T16:36:17Z</time>
</trkpt>
<trkpt lat="51.25064076" lon="6.80876386">
<ele>77.5</ele>
<time>2011-09-30T16:36:21Z</time>
</trkpt>
<trkpt lat="51.2504393" lon="6.80873428">
<ele>78.5</ele>
<time>2011-09-30T16:36:25Z</time>
</trkpt>
<trkpt lat="51.25022036" lon="6.8087119">
<ele>78.5</ele>
<time>2011-09-30T16:36:29Z</time>
</trkpt>
<trkpt lat="51.24998907" lon="6.80867862">
<ele>78.5</ele>
<time>2011-09-30T16:36:33Z</time>
</trkpt>
<trkpt lat="51.24975882" lon="6.80865565">
<ele>78.5</ele>
<time>2011-09-30T16:36:37Z</time>
</trkpt>
<trkpt lat="51.24954327" lon="6.8086243">
<ele>79</ele>
<time>2011-09-30T16:36:41Z</time>
</trkpt>
<trkpt lat="51.24933859" lon="6.80859078">
<ele>80</ele>
<time>2011-09-30T16:36:45Z</time>
</trkpt>
<trkpt lat="51.24915054" lon="6.80855138">
<ele>80</ele>
<time>2011-09-30T16:36:49Z</time>
</trkpt>
<trkpt lat="51.24900185" lon="6.80862741">
<ele>80.5</ele>
<time>2011-09-30T16:36:53Z</time>
</trkpt>
<trkpt lat="51.2489601" lon="6.80891901">
<ele>80.5</ele>
<time>2011-09-30T16:36:57Z</time>
</trkpt>
<trkpt lat="51.24892666" lon="6.80921674">
<ele>80</ele>
<time>2011-09-30T16:37:01Z</time>
</trkpt>
<trkpt lat="51.24889971" lon="6.80950994">
<ele>79.5</ele>
<time>2011-09-30T16:37:05Z</time>
</trkpt>
<trkpt lat="51.24886769" lon="6.80981554">
<ele>78.5</ele>
<time>2011-09-30T16:37:09Z</time>
</trkpt>
<trkpt lat="51.24884204" lon="6.81008996">
<ele>78.5</ele>
<time>2011-09-30T16:37:13Z</time>
</trkpt>
<trkpt lat="51.24880437" lon="6.81031653">
<ele>80.5</ele>
<time>2011-09-30T16:37:17Z</time>
</trkpt>
<trkpt lat="51.24875005" lon="6.81035869">
<ele>79</ele>
<time>2011-09-30T16:37:21Z</time>
</trkpt>
<trkpt lat="51.24870052" lon="6.81035567">
<ele>79</ele>
<time>2011-09-30T16:37:25Z</time>
</trkpt>
<trkpt lat="51.24850295" lon="6.81029566">
<ele>0</ele>
<time>2011-09-30T16:37:31Z</time>
</trkpt>
<trkpt lat="51.24835355" lon="6.81031116">
<ele>80</ele>
<time>2011-09-30T16:37:35Z</time>
</trkpt>
<trkpt lat="51.24821504" lon="6.81038383">
<ele>80.5</ele>
<time>2011-09-30T16:37:39Z</time>
</trkpt>
<trkpt lat="51.24808252" lon="6.81043119">
<ele>81</ele>
<time>2011-09-30T16:37:43Z</time>
</trkpt>
<trkpt lat="51.24803323" lon="6.81051694">
<ele>82.5</ele>
<time>2011-09-30T16:37:47Z</time>
</trkpt>
<trkpt lat="51.248029" lon="6.8105192">
<ele>81.5</ele>
<time>2011-09-30T16:37:51Z</time>
</trkpt>
<trkpt lat="51.24803239" lon="6.81052314">
<ele>0</ele>
<time>2011-09-30T16:37:55Z</time>
</trkpt>
<trkpt lat="51.24803638" lon="6.81052063">
<ele>0</ele>
<time>2011-09-30T16:37:59Z</time>
</trkpt>
<trkpt lat="51.24804438" lon="6.81052314">
<ele>81</ele>
<time>2011-09-30T16:38:03Z</time>
</trkpt>
<trkpt lat="51.24804698" lon="6.81052616">
<ele>80.5</ele>
<time>2011-09-30T16:38:07Z</time>
</trkpt>
<trkpt lat="51.24803985" lon="6.81052364">
<ele>0</ele>
<time>2011-09-30T16:38:11Z</time>
</trkpt>
<trkpt lat="51.24804505" lon="6.81052792">
<ele>0</ele>
<time>2011-09-30T16:38:15Z</time>
</trkpt>
<trkpt lat="51.2480368" lon="6.81057964">
<ele>80</ele>
<time>2011-09-30T16:38:19Z</time>
</trkpt>
<trkpt lat="51.2480311" lon="6.81065876">
<ele>79.5</ele>
<time>2011-09-30T16:38:23Z</time>
</trkpt>
<trkpt lat="51.24802661" lon="6.81071928">
<ele>79.5</ele>
<time>2011-09-30T16:38:26Z</time>
</trkpt>
</trkseg>
</trk>
</gpx>
